     2.11           OBSERVATION DATA    G (GPS)             RINEX VERSION / TYPE
teqc 2010Oct21 OPUS Account 20111027 18:32:59UTC            PGM / RUN BY / DATE
W 1381                                                      MARKER NAME
2130                                                        MARKER NUMBER
CSMIDDLETON NGS                                             OBSERVER / AGENCY
4624K01583 TRIMBLE NETR5 4.41                               REC # / TYPE / VERS
60154430 TRM41249.00 NONE                                   ANT # / TYPE
  -760980.4588 -5553646.3584  3032724.9644                  APPROX POSITION XYZ
        2.0000        0.0000        0.0000                  ANTENNA: DELTA H/E/N
     1     1                                                WAVELENGTH FACT L1/2
     5    L1    L2    C1    P1    P2                        # / TYPES OF OBSERV
    15                                                      LEAP SECONDS
  2011     8    18     0     0    0.0000000     GPS         TIME OF FIRST OBS
                                                            END OF HEADER
 11  8 18  0  0  0.0000000  0  8G28G10G04G09G12G17G05G02
 127411992.12816  99281944.54853  24245664.789                    24245676.379
 110843156.60118  86371394.05956  21092730.531                    21092738.434
 109924161.37518  85655317.93456  20917848.789                    20917856.746
 120214963.97017  93674058.23554  22876151.258                    22876160.164
 116716486.06318  90947968.12417  22210411.000                    22210418.590
 119017701.67117  92741017.93017  22648276.688                    22648285.398
 121118731.31817  94378300.76317  23048121.977                    23048132.000
 108855504.01518  84822590.38956  20714491.641                    20714497.012
 11  8 18  0  0 30.0000000  0  8G28G10G04G09G12G17G05G02
 127513521.162 6  99361057.90243  24264985.117                    24264997.273
 110808170.163 8  86344131.93846  21086072.750                    21086080.766
 109989511.033 8  85706239.73346  20930284.188                    20930291.863
 120278275.004 7  93723391.48744  22888199.070                    22888207.809
 116636098.413 8  90885328.438 7  22195114.242                    22195121.270
 119062442.164 7  92775880.597 7  22656791.234                    22656798.520
 121016312.661 7  94298494.107 7  23028632.445                    23028642.176
 108837055.736 8  84808215.12246  20710980.906                    20710986.641
 11  8 18  0  1  0.0000000  0  8G28G10G04G09G12G17G05G02
 127615246.749 6  99440324.37943  24284342.711                    24284354.656
 110773752.394 8  86317312.94146  21079522.945                    21079531.609
 110055124.200 8  85757366.86446  20942770.281                    20942778.191
 120341944.004 6  93773003.66644  22900314.672                    22900323.867
 116555996.347 8  90822911.301 7  22179871.375                    22179878.785
 119107303.377 7  92810837.344 7  22665327.938                    22665336.164
 120914028.228 7  94218792.085 7  23009168.477                    23009178.242
 108818952.022 8  84794108.35246  20707536.586                    20707541.344
 11  8 18  0  1 30.0000000  0  8G28G10G04G09G12G17G05G02
 127717167.151 6  99519742.66343  24303737.891                    24303749.543
 110739905.275 8  86290938.59846  21073082.273                    21073090.223
 110120998.725 8  85808697.64446  20955305.523                    20955313.648
 120405968.045 7  93822892.49544  22912498.055                    22912507.285
 116476182.527 8  90760718.764 7  22164683.031                    22164690.457
 119152285.903 7  92845888.650 6  22673888.063                    22673895.246
 120811881.323 7  94139197.199 7  22989730.094                    22989740.160
 108801192.293 8  84780269.62146  20704156.492                    20704162.195
 11  8 18  0  2  0.0000000  0  8G28G10G04G09G12G17G05G02
 127819281.876 6  99599312.38443  24323169.711                    24323181.461
 110706632.164 8  86265011.52946  21066750.563                    21066758.719
 110187133.903 8  85860231.52846  20967890.727                    20967898.832
 120470345.288 7  93873056.52944  22924748.641                    22924758.133
 116396660.916 8  90698753.929 7  22149550.859                    22149558.297
 119197391.687 7  92881035.977 7  22682470.797                    22682479.305
 120709876.342 7  94059712.905 6  22970319.234                    22970328.418
 108783777.297 8  84766699.51446  20700842.602                    20700848.191
 11  8 18  0  2 30.0000000  0  7G10G04G09G12G17G05G02
 110673933.567 8  86239532.13146  21060528.133                    21060536.586
 110253525.961 8  85911965.57946  20980524.531                    20980532.988
 120535071.184 7  93923492.24044  22937065.469                    22937075.023
 116317433.085 8  90637018.018 7  22134474.094                    22134481.355
 119242620.497 7  92916279.165 7  22691077.617                    22691086.309
 120608014.843 7  93980340.399 6  22950935.094                    22950944.363
 108766704.826 8  84753396.31846  20697594.055                    20697599.145
 11  8 18  0  3  0.0000000  0  7G10G04G09G12G17G05G02
 110641810.633 8  86214501.29746  21054415.484                    21054423.699
 110320171.987 8  85963897.52746  20993207.133                    20993215.465
 120600142.153 7  93974196.85044  22949448.688                    22949457.773
 116238500.969 8  90575512.516 7  22119453.789                    22119461.059
 119287972.227 7  92951618.138 7  22699708.281                    22699716.426
 120506299.187 7  93901081.543 6  22931579.516                    22931588.496
 108749973.705 8  84740359.10946  20694409.758                    20694415.469
 11  8 18  0  3 30.0000000  0  7G10G04G09G12G17G05G02
 110610265.209 8  86189920.47346  21048412.414                    21048420.598
 110387069.664 8  86016025.56946  21005937.609                    21005944.980
 120665554.720 7  94025167.63644  22961895.438                    22961905.336
 116159867.059 8  90514239.398 7  22104489.898                    22104497.445
 119333447.682 7  92987053.512 7  22708361.227                    22708369.621
 120404732.806 7  93821939.010 7  22912252.273                    22912260.816
 108733583.268 8  84727587.36746  20691291.000                    20691296.465
 11  8 18  0  4  0.0000000  0  7G10G04G09G12G17G05G02
 110579299.309 8  86165791.22546  21042519.781                    21042527.746
 110454216.954 8  86068348.11846  21018715.117                    21018722.875
 120731305.863 7  94076402.22844  22974407.602                    22974417.527
 116081534.189 8  90453200.839 7  22089583.453                    22089591.008
 119379047.316 7  93022585.667 7  22717038.945                    22717046.840
 120303318.578 7  93742915.044 7  22892953.766                    22892962.531
 108717532.671 8  84715080.44446  20688236.641                    20688241.992
 11  8 18  0  4 30.0000000  0  7G10G04G09G12G17G05G02
 110548914.320 8  86142114.62846  21036737.766                    21036746.168
 110521611.275 8  86120863.14646  21031539.641                    21031547.625
 120797392.236 7  94127898.04944  22986983.273                    22986993.254
 116003504.820 8  90392398.782 7  22074735.203                    22074742.824
 119424771.739 7  93058215.067 7  22725739.680                    22725748.676
 120202059.330 7  93664011.841 7  22873684.766                    22873694.043
 108701820.936 8  84702837.55346  20685246.875                    20685252.039
 11  8 18  0  5  0.0000000  0  7G10G04G09G12G17G05G02
 110519111.707 8  86118891.83546  21031066.570                    21031074.734
 110589250.358 8  86173568.90246  21044411.133                    21044418.871
 120863810.383 7  94179652.38044  22999622.680                    22999632.277
 115925781.593 8  90331835.270 7  22059945.016                    22059952.520
 119470621.455 7  93093942.111 7  22734464.461                    22734473.109
 120100958.091 7  93585231.790 7  22854445.664                    22854454.957
 108686447.304 8  84690858.12646  20682321.031                    20682326.684
 11  8 18  0  5 30.0000000  0  7G10G04G09G12G17G05G02
 110489893.263 8  86096124.24046  21025506.391                    21025514.793
 110657131.897 8  86226463.58046  21057328.641                    21057336.340
 120930557.218 7  94231662.83244  23012324.430                    23012333.785
 115848367.206 8  90271512.406 7  22045213.719                    22045220.906
 119516597.521 7  93129767.569 7  22743213.406                    22743222.242
 120000018.396 7  93506577.577 7  22835237.180                    22835246.711
 108671411.382 8  84679141.84446  20679459.867                    20679465.363
 11  8 18  0  6  0.0000000  0  7G10G04G09G12G17G05G02
 110461260.956 8  86073813.37546  21020057.805                    21020066.000
 110725253.812 8  86279545.56846  21070292.063                    21070299.688
 120997629.490 7  94283926.86345  23025088.063                    23025097.266
 115771264.303 8  90211432.248 7  22030541.398                    22030548.246
 119562700.653 7  93165692.036 7  22751986.641                    22751995.516
 119899242.672 7  93428051.143 7  22816060.141                    22816068.895
 108656712.344 8  84667688.06146  20676662.945                    20676667.961
 11  8 18  0  6 30.0000000  0  7G10G04G09G12G17G05G02
 110433216.644 8  86051960.69646  21014720.742                    21014729.145
 110793614.059 8  86332813.27346  21083300.383                    21083308.270
 121065024.104 7  94336442.09944  23037913.258                    23037922.391
 115694475.698 8  90151597.000 7  22015928.992                    22015935.973
 119608931.496 7  93201716.026 6  22760784.250                    22760792.191
 119798634.228 7  93349655.051 7  22796914.938                    22796923.625
 108642349.568 8  84656496.30646  20673929.625                    20673934.781
 11  8 18  0  7  0.0000000  0  7G10G04G09G12G17G05G02
 110405761.354 8  86030566.98746  21009496.617                    21009504.566
 110862210.003 8  86386264.63446  21096353.961                    21096361.543
 121132737.498 7  94389205.73544  23050799.266                    23050807.871
 115618003.729 8  90092008.475 7  22001376.789                    22001383.887
 119655290.300 7  93237839.716 6  22769606.133                    22769614.156
 119698196.005 7  93271391.606 7  22777802.383                    22777811.184
 108628321.838 8  84645565.61746  20671260.516                    20671266.215
 11  8 18  0  7 30.0000000  0  7G10G04G09G12G17G05G02
 110378896.725 8  86009633.53246  21004384.266                    21004392.453
 110931039.146 8  86439897.72446  21109451.695                    21109459.531
 121200766.372 7  94442215.20244  23063744.078                    23063753.082
 115541850.818 8  90032668.572 7  21986885.273                    21986892.809
 119701777.860 7  93274063.760 6  22778452.484                    22778460.613
 119597930.848 7  93193263.047 6  22758722.250                    22758730.949
 108614628.285 8  84634895.33746  20668654.484                    20668660.137
 11  8 18  0  8  0.0000000  0  7G10G04G09G12G17G05G02
 110352623.909 8  85989161.23746  20999384.773                    20999392.922
 111000098.919 8  86493710.51846  21122593.156                    21122601.285
 121269107.174 7  94495467.73344  23076748.695                    23076758.043
 115466019.217 8  89973579.024 7  21972454.961                    21972462.324
 119748394.684 7  93310388.526 6  22787323.180                    22787330.578
 119497841.235 7  93115271.268 7  22739675.922                    22739684.523
 108601267.576 8  84624484.40946  20666112.352                    20666117.336
 11  8 18  0  8 30.0000000  0  8G30G10G04G09G12G17G05G02
 127955143.64316  99705363.51453  24349063.133                    24349071.770
 110326945.054 8  85969151.77146  20994498.375                    20994505.938
 111069387.590 8  86547701.68046  21135778.453                    21135786.188
 121337757.051 7  94548961.09444  23089811.984                    23089821.656
 115390512.130 8  89914742.342 7  21958086.305                    21958093.848
 119795141.429 7  93346814.509 6  22796219.023                    22796226.391
 119397931.023 7  93037419.256 7  22720663.398                    22720671.840
 108588239.654 8  84614332.78946  20663632.977                    20663638.207
 11  8 18  0  9  0.0000000  0  8G30G10G04G09G12G17G05G02
 127849471.385 7  99623021.52343  24328954.797                    24328962.930
 110301860.894 8  85949605.70145  20989724.641                    20989732.590
 111138902.649 8  86601869.24746  21149006.750                    21149014.367
 121406712.133 7  94602692.28944  23102933.672                    23102943.215
 115315331.922 8  89856160.352 7  21943780.234                    21943787.078
 119842018.594 7  93383342.127 6  22805139.320                    22805147.082
 119298202.530 7  92959708.864 7  22701685.367                    22701694.469
 108575542.990 8  84604439.28846  20661217.023                    20661222.523
 11  8 18  0  9 30.0000000  0  8G30G10G04G09G12G17G05G02
 127743963.740 7  99540807.85643  24308877.203                    24308885.613
 110277373.548 8  85930524.68045  20985064.773                    20985072.809
 111208642.075 8  86656211.64746  21162277.828                    21162285.934
 121475969.435 7  94656658.97844  23116113.094                    23116122.930
 115240481.337 8  89797835.237 7  21929536.297                    21929543.520
 119889027.185 7  93419972.156 6  22814084.789                    22814093.473
 119198659.320 7  92882142.826 7  22682742.633                    22682751.750
 108563177.204 8  84594803.61846  20658863.680                    20658868.801
 11  8 18  0 10  0.0000000  0  8G30G10G04G09G12G17G05G02
 127638623.249 7  99458724.42643  24288832.102                    24288840.145
 110253484.155 8  85911909.59045  20980519.016                    20980526.457
 111278603.266 8  86710726.85146  21175590.578                    21175598.598
 121545525.568 7  94710858.53144  23129348.328                    23129358.578
 115165962.846 8  89739768.875 7  21915356.008                    21915363.320
 119936167.951 7  93456705.173 7  22823055.938                    22823064.145
 119099304.245 7  92804723.396 7  22663836.172                    22663845.105
 108551141.473 8  84585425.14446  20656573.523                    20656578.836
 11  8 18  0 10 30.0000000  0  8G30G10G04G09G12G17G05G02
 127533452.674 6  99376773.37643  24268817.516                    24268827.145
 110230194.160 8  85893761.56746  20976087.102                    20976094.840
 111348784.330 8  86765413.38545  21188945.750                    21188953.809
 121615377.216 7  94765288.35444  23142641.391                    23142651.141
 115091779.059 8  89681963.342 7  21901239.125                    21901246.395
 119983440.894 7  93493541.175 7  22832051.656                    22832060.199
 119000140.559 7  92727453.090 7  22644965.898                    22644974.684
 108539434.572 8  84576302.89546  20654345.531                    20654350.922
 11  8 18  0 11  0.0000000  0  8G30G10G04G09G12G17G05G02
 127428454.897 6  99294956.97643  24248838.180                    24248847.105
 110207504.896 7  85876081.64445  20971769.734                    20971777.047
 111419182.598 8  86820269.16846  21202341.867                    21202350.105
 121685520.819 7  94819945.67044  23155989.375                    23155998.547
 115017932.600 8  89624420.668 7  21887186.742                    21887194.203
 120030847.377 7  93530481.232 7  22841073.453                    22841081.945
 118901170.883 7  92650333.961 7  22626133.125                    22626141.180
 108528056.008 7  84567436.48546  20652180.055                    20652185.383
 11  8 18  0 11 30.0000000  0  8G30G10G04G09G12G17G05G02
 127323632.415 7  99213277.14043  24228890.813                    24228899.570
 110185417.382 8  85858870.61946  20967566.266                    20967574.180
 111489795.870 8  86875292.48045  21215779.336                    21215787.219
 121755952.732 7  94874827.64944  23169392.195                    23169401.293
 114944426.040 8  89567142.834 7  21873199.070                    21873206.168
 120078387.659 7  93567525.559 7  22850119.602                    22850127.559
 118802397.915 7  92573368.101 7  22607337.125                    22607345.582
 108517004.452 8  84558824.90147  20650077.234                    20650082.434
 11  8 18  0 12  0.0000000  0  8G30G10G04G09G12G17G05G02
 127218988.110 6  99131736.21043  24208976.906                    24208986.836
 110163933.019 8  85842129.58245  20963478.203                    20963485.637
 111560622.045 8  86930481.69145  21229257.133                    21229265.340
 121826669.944 7  94929931.92444  23182849.367                    23182858.504
 114871261.602 8  89510131.611 7  21859276.641                    21859283.516
 120126062.364 7  93604674.626 7  22859191.648                    22859199.938
 118703824.894 7  92496558.066 7  22588579.047                    22588587.195
 108506279.080 8  84550467.47847  20648036.086                    20648041.516
 11  8 18  0 12 30.0000000  0  8G30G10G04G09G12G17G05G02
 127114524.913 6  99050336.37743  24189097.680                    24189107.844
 110143053.448 8  85825859.80646  20959504.961                    20959512.063
 111631658.960 8  86985835.12645  21242775.281                    21242782.762
 121897669.439 7  94985256.14744  23196360.492                    23196369.633
 114798442.197 8  89453389.244 7  21845419.430                    21845426.504
 120173871.841 7  93641928.723 6  22868289.453                    22868297.113
 118605455.194 7  92419906.447 7  22569859.758                    22569868.426
 108495879.199 8  84542363.69147  20646057.055                    20646062.398
 11  8 18  0 13  0.0000000  0  8G30G10G04G09G12G17G05G02
 127010245.499 6  98969079.78043  24169254.531                    24169263.762
 110122779.595 8  85810062.02045  20955646.500                    20955654.352
 111702904.372 8  87041351.03145  21256332.555                    21256340.645
 121968947.434 7  95040797.37944  23209924.438                    23209933.668
 114725970.318 8  89396917.689 7  21831628.180                    21831635.430
 120221817.052 7  93679288.589 6  22877413.648                    22877421.164
 118507291.593 7  92343415.426 7  22551179.766                    22551188.449
 108485803.696 8  84534512.66247  20644139.719                    20644145.156
 11  8 18  0 13 30.0000000  0  8G30G10G04G09G12G17G05G02
 126906152.538 6  98887968.42743  24149446.523                    24149455.484
 110103112.546 8  85794737.05946  20951904.359                    20951911.914
 111774356.021 8  87097027.63245  21269929.438                    21269937.242
 122040500.744 7  95096553.13144  23223540.719                    23223550.359
 114653848.527 8  89340718.925 7  21817903.828                    21817911.008
 120269898.681 7  93716754.765 7  22886563.055                    22886570.773
 118409336.820 7  92267087.113 7  22532539.625                    22532548.246
 108476051.806 8  84526913.79247  20642284.133                    20642289.539
 11  8 18  0 14  0.0000000  0  8G30G10G04G09G12G17G05G02
 126802248.806 6  98807004.57243  24129674.453                    24129683.184
 110084053.600 8  85779885.96346  20948277.461                    20948284.730
 111846011.377 8  87152862.96045  21283565.250                    21283573.031
 122112325.845 7  95152520.69144  23237208.711                    23237218.266
 114582079.233 8  89284794.843 7  21804246.508                    21804254.258
 120318117.505 7  93754327.832 7  22895738.695                    22895747.238
 118311594.034 7  92190923.990 7  22513939.492                    22513948.242
 108466622.618 8  84519566.38747  20640489.648                    20640494.859
 11  8 18  0 14 30.0000000  0  8G30G10G04G09G12G17G05G02
 126698537.411 6  98726190.54143  24109938.828                    24109946.844
 110065604.360 8  85765509.94346  20944766.406                    20944774.184
 111917868.652 8  87208855.64245  21297239.125                    21297247.180
 122184419.591 7  95208697.57744  23250927.203                    23250937.043
 114510665.381 8  89229147.731 7  21790657.109                    21790664.242
 120366473.781 7  93792008.008 7  22904940.727                    22904949.273
 118214066.374 7  92114928.488 7  22495380.242                    22495389.375
 108457515.147 8  84512469.67047  20638756.594                    20638761.668
 11  8 18  0 15  0.0000000  0  9G30G10G04G09G12G17G05G02G25
 126595020.580 6  98645528.17943  24090240.133                    24090248.508
 110047765.208 8  85751609.33346  20941371.914                    20941379.465
 111989925.118 8  87265003.52345  21310951.094                    21310959.230
 122256778.110 7  95265080.78944  23264695.875                    23264706.445
 114439609.204 8  89173779.327 7  21777135.578                    21777142.637
 120414968.038 7  93829795.698 7  22914168.258                    22914177.988
 118116756.612 7  92039102.807 7  22476863.250                    22476872.129
 108448728.018 8  84505622.57147  20637084.617                    20637089.941
 129620601.30217 101003109.44516  24665985.727                    24665996.367
 11  8 18  0 15 30.0000000  0  9G30G10G04G09G12G17G05G02G25
 126491701.240 6  98565019.66343  24070578.719                    24070587.371
 110030537.618 8  85738185.25146  20938093.523                    20938101.441
 112062179.020 8  87321305.26145  21324700.102                    21324708.461
 122329398.210 7  95321667.80744  23278516.297                    23278525.801
 114368913.102 8  89118691.496 7  21763682.398                    21763689.758
 120463601.024 7  93867691.486 7  22923422.844                    22923432.246
 118019667.868 7  91963449.339 7  22458387.242                    22458396.148
 108440260.621 8  84499024.61147  20635473.023                    20635478.336
 129517311.577 7 100922623.954 6  24646329.516                    24646340.363
 11  8 18  0 16  0.0000000  0  9G30G10G04G09G12G17G05G02G25
 126388582.254 6  98484667.27643  24050955.773                    24050964.754
 110013922.523 8  85725238.43646  20934931.805                    20934939.770
 112134627.823 8  87377758.87645  21338486.680                    21338494.742
 122402276.394 7  95378455.94344  23292384.180                    23292393.883
 114298579.413 8  89063886.082 7  21750298.227                    21750305.141
 120512373.527 7  93905696.008 7  22932704.031                    22932712.992
 117922802.954 7  91887970.275 7  22439954.508                    22439963.820
 108432111.753 8  84492674.85447  20633922.539                    20633928.031
 129414125.671 6 100842219.379 6  24626693.711                    24626704.938
 11  8 18  0 16 30.0000000  0  9G30G10G04G09G12G17G05G02G25
 126285666.565 6  98404473.29743  24031372.078                    24031380.996
 109997921.123 8  85712769.84146  20931886.852                    20931894.688
 112207269.403 8  87434362.70245  21352310.219                    21352317.078
 122475409.445 7  95435442.67144  23306300.867                    23306310.141
 114228611.288 8  89009365.517 7  21736983.742                    21736990.633
 120561286.227 7  93943809.759 6  22942012.133                    22942020.535
 117826165.137 7  91812668.182 7  22421564.961                    22421573.457
 108424280.585 8  84486572.64947  20632432.055                    20632437.434
 129311045.963 6 100761897.574 6  24607078.391                    24607089.504
 11  8 18  0 17  0.0000000  0  9G30G10G04G09G12G17G05G02G25
 126182956.867 6  98324439.79843  24011826.477                    24011835.883
 109982534.368 8  85700780.18446  20928958.711                    20928966.855
 112280101.531 8  87491114.99945  21366169.711                    21366177.699
 122548794.013 7  95492625.39144  23320265.625                    23320275.023
 114159010.782 8  88955131.410 7  21723739.297                    21723746.246
 120610339.680 7  93982033.217 6  22951347.008                    22951355.344
 117729757.006 7  91737545.046 7  22403219.016                    22403227.648
 108416766.032 8  84480717.16247  20631002.297                    20631007.359
 129208074.894 6 100681660.481 6  24587483.844                    24587495.168
 11  8 18  0 17 30.0000000  0  9G30G10G04G09G12G17G05G02G25
 126080456.084 6  98244569.14443  23992320.617                    23992330.086
 109967763.394 8  85689270.36346  20926147.992                    20926155.906
 112353122.463 8  87548014.43545  21380065.180                    21380072.930
 122622426.832 7  95550001.54544  23334277.359                    23334286.750
 114089780.573 8  88901185.853 7  21710565.063                    21710572.465
 120659534.477 7  94020366.777 6  22960708.414                    22960716.984
 117633581.789 7  91662603.399 7  22384917.508                    22384926.332
 108409567.454 8  84475107.89047  20629632.469                    20629637.777
 129105215.151 7 100601510.082 6  24567910.156                    24567921.586
 11  8 18  0 18  0.0000000  0  9G30G10G04G09G12G17G05G02G25
 125978166.731 6  98164863.19743  23972856.297                    23972865.129
 109953609.027 8  85678240.99946  20923454.422                    20923462.277
 112426329.648 8  87605058.98245  21393996.063                    21394004.180
 122696304.075 7  95607568.16644  23348335.984                    23348345.027
 114020923.481 8  88847531.030 7  21697461.969                    21697469.027
 120708871.502 7  94058811.199 6  22970097.281                    22970104.785
 117537642.352 7  91587845.483 7  22366660.789                    22366669.602
 108402683.504 8  84469743.79147  20628322.688                    20628327.633
 129002468.979 7 100521448.209 6  24548358.539                    24548369.996
 11  8 18  0 18 30.0000000  0  9G30G10G04G09G12G17G05G02G25
 125876091.921 6  98085324.44543  23953431.703                    23953441.148
 109940072.162 8  85667692.81446  20920878.766                    20920886.223
 112499720.913 8  87662246.96845  21407962.133                    21407969.797
 122770422.760 7  95665322.90644  23362440.164                    23362449.488
 113952441.368 8  88794168.381 7  21684430.336                    21684437.707
 120758350.783 6  94097366.443 6  22979512.289                    22979520.336
 117441941.838 7  91513273.734 7  22348449.500                    22348458.035
 108396113.372 8  84464624.21447  20627072.141                    20627077.648
 128899839.050 7 100441476.847 6  24528828.273                    24528839.895
 11  8 18  0 19  0.0000000  0  9G30G10G04G09G12G17G05G02G25
 125774234.164 6  98005954.81843  23934049.570                    23934057.859
 109927153.516 8  85657626.36346  20918420.211                    20918427.578
 112573294.088 8  87719576.70945  21421962.258                    21421970.230
 122844779.290 7  95723262.98844  23376590.352                    23376598.891
 113884337.019 8  88741100.100 7  21671470.500                    21671477.652
 120807972.957 6  94136033.022 6  22988955.172                    22988963.582
 117346483.318 7  91438890.545 7  22330284.211                    22330293.145
 108389855.758 8  84459748.15847  20625881.625                    20625886.664
 128797327.583 7 100361597.882 6  24509320.898                    24509333.074
 11  8 18  0 19 30.0000000  0  9G30G10G04G09G12G17G05G02G25
 125672596.392 7  97926756.61043  23914708.125                    23914716.285
 109914854.146 8  85648042.45946  20916079.570                    20916087.551
 112647046.920 8  87777046.43545  21435997.234                    21436004.727
 122919370.141 7  95781385.66244  23390784.391                    23390794.258
 113816612.875 8  88688328.071 7  21658583.172                    21658590.371
 120857738.988 6  94174811.700 6  22998424.578                    22998433.852
 117251269.122 7  91364697.746 7  22312165.102                    22312174.141
 108383909.601 8  84455114.80147  20624750.016                    20624755.281
 128694937.243 7 100281813.255 6  24489836.742                    24489848.422
 11  8 18  0 20  0.0000000  0  9G30G10G04G09G12G17G05G02G25
 125571181.471 7  97847732.03843  23895408.891                    23895417.883
 109903174.763 8  85638941.66246  20913856.766                    20913864.926
 112720977.515 8  87834654.68645  21450065.688                    21450073.727
 122994192.000 7  95839688.36244  23405022.398                    23405032.418
 113749271.527 8  88635854.315 7  21645768.359                    21645775.328
 120907649.748 7  94213703.151 6  23007923.430                    23007931.883
 117156302.685 7  91290697.996 7  22294093.883                    22294102.770
 108378274.454 8  84450723.78647  20623677.586                    20623682.289
 128592670.659 7 100202125.095 5  24470375.578                    24470387.234
 11  8 18  0 20 30.0000000  0  9G30G10G04G09G12G17G05G02G25
 125469992.551 7  97768883.55243  23876153.305                    23876162.855
 109892116.738 8  85630325.04446  20911752.664                    20911760.664
 112795083.864 8  87892399.88745  21464167.516                    21464175.590
 123069241.876 7  95898168.72244  23419304.844                    23419314.066
 113682315.748 8  88583680.992 7  21633027.000                    21633034.496
 120957705.444 7  94252707.555 6  23017448.414                    23017456.891
 117061587.324 7  91216893.881 7  22276070.203                    22276078.293
 108372949.471 8  84446574.47047  20622664.414                    20622669.621
 128490530.520 7 100122535.411 6  24450939.266                    24450950.488
 11  8 18  0 21  0.0000000  0  9G30G10G04G09G12G17G05G02G25
 125369031.906 6  97690212.93143  23856940.883                    23856950.172
 109881680.119 8  85622192.63246  20909766.789                    20909774.707
 112869363.376 8  87950280.01045  21478302.383                    21478310.598
 123144515.786 7  95956823.68144  23433627.742                    23433638.090
 113615747.340 8  88531809.522 7  21620359.328                    21620366.520
 121007906.480 7  94291825.191 6  23027001.539                    23027009.539
 116967125.215 7  91143287.119 7  22258095.141                    22258102.621
 108367932.475 8  84442665.13647  20621709.586                    20621714.645
 128388518.757 6 100043045.792 6  24431527.094                    24431537.695
 11  8 18  0 21 30.0000000  0  9G30G10G04G09G12G17G05G02G25
 125268302.566 7  97611722.54743  23837773.438                    23837782.543
 109871865.699 8  85614545.04946  20907899.406                    20907906.902
 112943814.058 8  88008293.50545  21492469.797                    21492478.047
 123220010.425 6  96015650.59944  23447994.500                    23448004.020
 113549569.057 8  88480242.047 7  21607765.805                    21607772.980
 121058253.763 7  94331056.782 6  23036581.711                    23036589.785
 116872919.973 7  91069880.520 7  22240167.727                    22240175.633
 108363223.116 8  84438995.51547  20620813.500                    20620818.895
 128286638.231 7  99963658.456 6  24412139.859                    24412150.684
 11  8 18  0 22  0.0000000  0  9G30G10G04G09G12G17G05G02G25
 125167807.599 7  97533414.77944  23818650.031                    23818658.977
 109862674.892 7  85607383.41046  20906150.266                    20906157.980
 113018434.072 8  88066438.95345  21506670.000                    21506677.750
 123295722.511 7  96074646.96544  23462401.781                    23462411.633
 113483783.682 8  88428980.712 7  21595247.438                    21595254.398
 121108747.998 7  94370402.899 6  23046191.195                    23046198.594
 116778974.294 7  90996676.171 7  22222290.883                    22222298.969
 108358820.690 8  84435565.06746  20619975.570                    20619980.652
 128184891.662 7  99884375.478 6  24392777.945                    24392788.629
 11  8 18  0 22 30.0000000  0  9G30G10G04G09G12G17G05G02G25
 125067549.587 6  97455291.64243  23799571.344                    23799580.059
 109854108.031 8  85600707.95946  20904519.617                    20904527.805
 113093220.832 8  88124714.34545  21520900.938                    21520909.402
 123371648.585 7  96133810.07744  23476850.797                    23476859.848
 113418393.350 8  88378027.215 7  21582804.070                    21582811.156
 121159389.586 7  94409863.839 6  23055828.195                    23055835.215
 116685290.965 7  90923676.247 7  22204463.469                    22204471.305
 108354723.570 8  84432372.51746  20619196.063                    20619201.305
 128083281.292 7  99805198.629 6  24373442.469                    24373452.867
 11  8 18  0 23  0.0000000  0  9G30G10G04G09G12G17G05G02G25
 124967531.221 7  97377355.26543  23780538.477                    23780547.129
 109846165.544 7  85594519.02746  20903008.422                    20903016.246
 113168172.524 8  88183118.24045  21535164.266                    21535172.242
 123447785.201 7  96193137.23044  23491338.523                    23491348.840
 113353400.401 8  88327383.365 7  21570436.641                    21570443.543
 121210179.035 7  94449439.980 6  23065493.094                    23065500.719
 116591872.927 7  90850883.044 7  22186686.648                    22186694.484
 108350930.614 8  84429416.98146  20618474.297                    20618479.250
 127981809.540 7  99726129.818 6  24354132.844                    24354143.762
 11  8 18  0 23 30.0000000  0  9G30G10G04G09G12G17G05G02G25
 124867755.439 7  97299607.91344  23761551.750                    23761560.535
 109838848.046 7  85588817.09646  20901616.031                    20901623.445
 113243286.881 8  88241648.89045  21549457.758                    21549466.203
 123524128.824 7  96252625.71844  23505865.547                    23505876.371
 113288807.522 8  88277051.257 7  21558144.820                    21558152.020
 121261117.102 7  94489131.929 6  23075185.953                    23075193.789
 116498723.208 7  90778298.917 7  22168960.180                    22168968.918
 108347440.871 8  84426697.71746  20617810.219                    20617815.285
 127880479.100 7  99647171.074 6  24334850.273                    24334861.605
 11  8 18  0 24  0.0000000  0  9G30G10G04G09G12G17G05G02G25
 124768225.318 7  97222052.02444  23742611.289                    23742620.535
 109832156.118 7  85583602.62746  20900342.469                    20900350.180
 113318562.236 8  88300304.99045  21563782.359                    21563790.805
 123600676.502 6  96312273.16244  23520432.375                    23520443.168
 113224617.184 8  88227032.820 7  21545929.828                    21545936.820
 121312204.328 7  94528940.110 6  23084907.414                    23084915.836
 116405844.881 7  90705926.259 7  22151285.930                    22151294.449
 108344253.603 8  84424214.14746  20617203.789                    20617208.984
 127779292.773 7  99568324.594 6  24315595.258                    24315606.613
 11  8 18  0 24 30.0000000  0  9G30G10G04G09G12G17G05G02G25
 124668943.365 7  97144689.51644  23723718.852                    23723728.074
 109826090.218 7  85578875.96646  20899188.664                    20899195.906
 113393995.969 8  88359084.49845  21578137.031                    21578144.945
 123677424.258 6  96372076.53944  23535036.953                    23535047.582
 113160831.193 8  88177329.457 7  21533792.055                    21533798.699
 121363441.280 7  94568864.968 6  23094657.797                    23094666.344
 116313240.648 7  90633767.177 7  22133663.766                    22133672.449
 108341367.331 8  84421965.11746  20616654.289                    20616659.551
 127678252.615 7  99489592.017 6  24296367.633                    24296379.391
 11  8 18  0 25  0.0000000  0  9G30G10G04G09G12G17G05G02G25
 124569912.728 7  97067522.85144  23704874.172                    23704883.027
 109820651.409 7  85574637.96246  20898153.203                    20898160.484
 113469586.355 8  88417986.06945  21592521.336                    21592529.375
 123754368.959 7  96432033.39543  23549678.742                    23549689.527
 113097452.621 8  88127943.557 7  21521731.203                    21521738.281
 121414828.627 7  94608907.020 6  23104435.430                    23104444.859
 116220913.847 7  90561824.287 7  22116095.148                    22116102.590
 108338781.331 8  84419950.07546  20616162.188                    20616167.586
 127577361.681 7  99410975.716 6  24277169.266                    24277180.336
 11  8 18  0 25 30.0000000  0  9G30G10G04G09G12G17G05G02G25
 124471135.852 7  96990553.94244  23686077.289                    23686086.270
 109815840.095 8  85570888.90646  20897237.914                    20897245.219
 113545331.039 8  88477007.87445  21606934.914                    21606943.152
 123831507.168 6  96492141.03344  23564358.125                    23564368.395
 113034483.572 8  88078876.763 7  21509748.805                    21509755.602
 121466366.773 7  94649066.552 6  23114243.422                    23114252.484
 116128867.413 7  90490099.868 7  22098579.086                    22098586.621
 108336494.165 8  84418167.87546  20615727.180                    20615732.004
 127476622.148 7  99332477.388 6  24257998.523                    24258010.012
 11  8 18  0 26  0.0000000  0  9G30G10G04G09G12G17G05G02G25
 124372616.085 7  96913785.39844  23667329.281                    23667338.414
 109811656.957 7  85567629.33646  20896441.688                    20896449.055
 113621228.511 8  88536148.73745  21621377.391                    21621385.633
 123908835.812 6  96552397.03744  23579073.547                    23579083.828
 112971926.795 8  88030131.227 7  21497844.633                    21497851.746
 121518056.714 7  94689344.374 7  23124080.125                    23124088.973
 116037103.939 7  90418595.946 7  22081117.102                    22081125.141
 108334505.338 8  84416618.15246  20615348.719                    20615353.520
 127376037.023 7  99254099.387 6  24238858.258                    24238869.152
 11  8 18  0 26 30.0000000  0  9G30G10G04G09G12G17G05G02G25
 124274355.983 7  96837219.18744  23648631.336                    23648640.484
 109808101.854 7  85564859.14746  20895765.328                    20895772.480
 113697276.194 8  88595406.64545  21635849.367                    21635856.961
 123986350.917 7  96612798.34944  23593824.609                    23593834.691
 112909784.415 8  87981708.591 7  21486018.914                    21486025.973
 121569898.761 7  94729740.736 6  23133945.836                    23133954.066
 115945626.213 7  90347314.675 7  22063709.273                    22063717.438
 108332813.382 7  84415299.75346  20615026.523                    20615031.352
 127275608.637 7  99175843.525 6  24219746.945                    24219758.129
 11  8 18  0 27  0.0000000  0  9G30G10G04G09G12G17G05G02G25
 124176358.335 7  96760857.48644  23629982.945                    23629991.922
 109805175.369 8  85562578.79546  20895208.273                    20895215.434
 113773472.044 8  88654780.00545  21650348.555                    21650356.840
 124064049.355 7  96673342.50944  23608610.344                    23608619.895
 112848058.810 8  87933610.723 7  21474272.813                    21474280.109
 121621893.631 7  94770256.182 6  23143839.805                    23143848.836
 115854437.204 7  90276258.367 7  22046356.367                    22046364.238
 108331417.077 8  84414211.72346  20614760.711                    20614766.164
 127175339.469 7  99097711.754 6  24200666.328                    24200677.738
 11  8 18  0 27 30.0000000  0  9G30G10G04G09G12G17G05G02G25
 124078625.957 7  96684702.49544  23611385.133                    23611393.730
 109802878.037 7  85560788.68646  20894770.930                    20894778.563
 113849814.075 8  88714267.27445  21664875.984                    21664884.344
 124141927.695 7  96734026.84344  23623430.328                    23623439.910
 112786752.201 8  87885839.343 7  21462606.750                    21462614.117
 121674041.608 7  94810890.928 7  23153762.953                    23153772.566
 115763539.534 7  90205429.076 7  22029059.273                    22029067.805
 108330315.215 8  84413353.13646  20614551.117                    20614556.414
 127075232.201 7  99019706.110 6  24181615.883                    24181627.477
 11  8 18  0 28  0.0000000  0  9G30G10G04G09G12G17G05G02G25
 123981161.672 7  96608756.41144  23592837.383                    23592846.301
 109801210.199 8  85559489.09946  20894453.391                    20894461.332
 113926300.361 8  88773866.94745  21679431.227                    21679439.191
 124219982.529 7  96794848.70344  23638283.680                    23638293.805
 112725867.134 8  87838396.452 7  21451020.672                    21451027.383
 121726343.425 7  94851645.541 6  23163715.422                    23163725.355
 115672936.637 7  90134829.474 7  22011818.359                    22011826.262
 108329506.707 8  84412723.13845  20614397.281                    20614402.527
 126975289.400 6  98941828.653 6  24162597.859                    24162609.621
 11  8 18  0 28 30.0000000  0  9G30G10G04G09G12G17G05G02G25
 123883968.402 7  96533021.47244  23574342.547                    23574351.512
 109800172.045 8  85558680.17446  20894256.367                    20894263.617
 114002928.760 8  88833577.36145  21694013.180                    21694021.949
 124298210.428 7  96855805.45544  23653170.250                    23653179.430
 112665405.830 8  87791283.769 7  21439515.445                    21439522.512
 121778799.532 7  94892520.354 7  23173697.570                    23173707.715
 115582631.511 8  90064461.895 7  21994633.711                    21994641.902
 108328990.663 7  84412321.03645  20614299.195                    20614304.094
 126875513.692 7  98864081.384 6  24143611.250                    24143622.973
 11  8 18  0 29  0.0000000  0  9G30G10G04G09G12G17G05G02G25
 123787049.007 7  96457499.94344  23555899.578                    23555907.355
 109799763.958 8  85558362.21346  20894178.539                    20894185.969
 114079697.498 8  88893397.12045  21708621.773                    21708630.371
 124376607.945 7  96916894.33844  23668088.578                    23668097.910
 112605370.747 8  87744503.204 7  21428091.094                    21428098.184
 121831410.692 7  94933516.029 7  23183709.633                    23183718.809
 115492626.703 8  89994328.328 7  21977505.953                    21977514.055
 108328765.891 7  84412145.90145  20614256.086                    20614261.477
 126775907.742 7  98786466.397 6  24124657.125                    24124668.793
 11  8 18  0 29 30.0000000  0  9G30G10G04G09G12G17G05G02G25
 123690406.392 7  96382194.08944  23537508.859                    23537516.875
 109799986.444 8  85558535.61546  20894220.484                    20894228.215
 114156604.413 8  88953324.55846  21723256.914                    21723264.902
 124455171.772 7  96978112.86444  23683038.492                    23683048.293
 112545764.372 8  87698056.707 7  21416748.609                    21416755.676
 121884177.342 7  94974632.841 7  23193751.039                    23193760.098
 115402925.222 7  89924431.138 7  21960436.727                    21960444.637
 108328831.409 7  84412196.95545  20614268.883                    20614274.063
 126676474.103 7  98708985.704 6  24105735.711                    24105746.590
 11  8 18  0 30  0.0000000  0  9G30G10G04G09G12G17G05G02G25
 123594043.284 7  96307106.03044  23519171.820                    23519179.746
 109800839.397 8  85559200.28146  20894383.125                    20894390.801
 114233647.414 8  89013358.03145  21737917.766                    21737925.980
 124533898.458 7  97039458.23744  23698019.531                    23698029.953
 112486588.972 8  87651946.043 7  21405487.492                    21405494.602
 121937100.092 7  95015871.271 6  23203821.352                    23203830.434
 115313529.800 8  89854772.456 7  21943424.813                    21943433.039
 108329185.972 7  84412473.25045  20614336.102                    20614341.594
 126577215.313 7  98631641.266 6  24086847.219                    24086857.879
 11  8 18  0 30 30.0000000  0  9G30G10G04G09G12G17G05G02G25
 123497962.756 7  96232238.14544  23500888.164                    23500896.109
 109802323.295 8  85560356.58646  20894665.570                    20894673.074
 114310824.867 8  89073496.27045  21752603.852                    21752612.086
 124612784.755 7  97100927.98644  23713031.633                    23713041.391
 112427847.057 8  87606173.164 7  21394309.398                    21394316.012
 121990179.594 7  95057231.905 6  23213922.914                    23213930.906
 115224443.535 7  89785354.659 7  21926472.680                    21926480.293
 108329828.806 7  84412974.16245  20614458.734                    20614464.246
 126478134.307 7  98554435.386 6  24067992.258                    24068003.711
 11  8 18  0 31  0.0000000  0  9G30G10G04G09G12G17G05G02G25
 123402167.157 7  96157592.27944  23482658.938                    23482666.496
 109804437.840 8  85562004.30146  20895067.789                    20895075.402
 114388134.420 8  89133737.45945  21767315.453                    21767323.672
 124691826.895 7  97162519.20344  23728073.547                    23728082.523
 112369539.965 8  87560739.104 7  21383213.703                    21383220.887
 122043416.122 7  95098714.882 6  23224052.586                    23224061.730
 115135668.890 7  89716179.668 7  21909578.984                    21909587.023
 108330757.920 7  84413698.14445  20614635.609                    20614640.563
 126379233.140 7  98477369.637 6  24049171.719                    24049182.348
 11  8 18  0 31 30.0000000  0  9G30G10G04G09G12G17G05G02G25
 123306659.750 7  96083170.96144  23464484.375                    23464492.500
 109807183.571 7  85564143.85146  20895590.219                    20895597.965
 114465574.222 8  89194080.14545  21782051.961                    21782059.695
 124771021.708 7  97224229.38844  23743143.281                    23743152.777
 112311670.717 8  87515646.232 7  21372201.906                    21372208.559
 122096810.578 7  95140320.896 6  23234213.594                    23234222.355
 115047209.074 7  89647249.996 7  21892745.766                    21892753.898
 108331972.753 7  84414644.77245  20614866.516                    20614871.512
 126280514.854 7  98400446.386 6  24030386.352                    24030396.926
 11  8 18  0 32  0.0000000  0  9G30G10G04G09G12G17G05G02G25
 123211443.174 7  96008976.27044  23446364.898                    23446373.289
 109810560.674 8  85566775.38246  20896232.953                    20896240.477
 114543142.201 8  89254522.70545  21796812.320                    21796820.477
 124850365.954 7  97286056.02443  23758241.477                    23758251.645
 112254241.258 8  87470896.053 7  21361273.352                    21361280.059
 122150363.255 7  95182050.190 6  23244404.516                    23244413.852
 114959066.759 7  89578567.726 7  21875972.945                    21875980.750
 108333472.018 7  84415813.03645  20615151.523                    20615156.988
 126181981.883 7  98323667.569 6  24011636.453                    24011647.547
 11  8 18  0 32 30.0000000  0  9G30G10G04G09G12G17G05G02G25
 123116520.340 7  95935010.47444  23428301.398                    23428310.090
 109814569.319 7  85569899.02946  20896995.961                    20897003.563
 114620836.700 7  89315063.85145  21811597.148                    21811605.227
 124929856.359 6  97347996.53343  23773368.055                    23773378.406
 112197254.109 8  87426490.521 7  21350428.813                    21350435.832
 122204074.816 7  95223903.294 6  23254625.602                    23254634.801
 114871244.979 7  89510135.222 7  21859260.953                    21859268.898
 108335254.781 7  84417202.20045  20615490.938                    20615496.227
 126083636.910 7  98247035.220 7  23992921.258                    23992932.508
 11  8 18  0 33  0.0000000  0  9G30G10G04G09G12G17G05G02G25
 123021894.279 7  95861275.91844  23410294.797                    23410303.586
 109819209.512 7  85573514.77446  20897878.742                    20897886.250
 114698655.788 8  89375702.08445  21826405.781                    21826414.059
 125009489.369 6  97410048.16744  23788522.055                    23788532.398
 112140711.694 8  87382431.541 7  21339668.992                    21339675.816
 122257945.866 7  95265880.690 6  23264876.727                    23264886.082
 114783746.760 7  89441954.851 7  21842610.719                    21842618.664
 108337319.877 7  84418811.36145  20615884.258                    20615888.945
 125985482.718 7  98170551.548 7  23974243.273                    23974254.906
 11  8 18  0 33 30.0000000  0  9G30G10G04G09G12G17G05G02G25
 122927567.617 7  95787774.65844  23392344.914                    23392353.469
 109824481.098 7  85577622.51446  20898881.664                    20898889.664
 114776597.199 8  89436435.61545  21841237.930                    21841245.770
 125089261.428 6  97472208.15943  23803702.336                    23803712.492
 112084616.196 8  87338720.802 7  21328994.273                    21329001.121
 122311977.034 7  95307982.850 6  23275159.008                    23275167.824
 114696574.570 7  89374028.523 7  21826022.273                    21826030.496
 108339665.911 7  84420639.44445  20616330.406                    20616335.777
 125887521.734 7  98094218.437 7  23955601.828                    23955613.516
 11  8 18  0 34  0.0000000  0  9G30G10G04G09G12G17G05G02G25
 122833543.257 7  95714508.97344  23374453.070                    23374461.465
 109830384.091 8  85582222.26346  20900005.039                    20900012.977
 114854659.192 8  89497263.12445  21856092.609                    21856100.699
 125169169.113 7  97534473.86743  23818907.898                    23818918.934
 112028969.581 8  87295359.835 7  21318405.250                    21318411.996
 122366168.539 7  95350209.989 6  23285470.984                    23285479.754
 114609731.173 7  89306358.389 7  21809496.094                    21809503.891
 108342291.789 7  84422685.58545  20616830.609                    20616835.621
 125789756.623 7  98018037.950 7  23936997.852                    23937009.152
 11  8 18  0 34 30.0000000  0  9G30G10G04G09G12G17G05G02G25
 122739823.588 7  95641480.70844  23356618.688                    23356626.859
 109836918.232 7  85587313.80746  20901248.109                    20901256.148
 114932839.533 8  89558182.84045  21870969.680                    21870978.043
 125249209.223 6  97596842.72843  23834138.992                    23834149.633
 111973773.840 8  87252350.206 7  21307901.688                    21307908.750
 122420520.872 7  95392562.439 6  23295814.250                    23295822.344
 114523219.260 7  89238946.580 7  21793033.594                    21793041.180
 108345196.051 7  84424948.65545  20617382.977                    20617388.301
 125692189.688 7  97942011.858 7  23918431.453                    23918442.770
 11  8 18  0 35  0.0000000  0  9G30G10G04G09G12G17G05G02G25
 122646412.265 7  95568692.70645  23338842.938                    23338851.406
 109844083.984 7  85592897.51946  20902612.000                    20902620.012
 115011136.937 8  89619193.79045  21885869.297                    21885877.566
 125329378.836 6  97659312.50343  23849394.594                    23849405.449
 111919031.999 8  87209694.253 7  21297484.625                    21297491.641
 122475034.908 7  95435040.858 6  23306187.734                    23306196.297
 114437042.146 7  89171795.642 7  21776634.195                    21776641.992
 108348378.344 7  84427428.37045  20617988.203                    20617993.418
 125594824.326 7  97866142.825 7  23899903.852                    23899914.387
 11  8 18  0 35 30.0000000  0  9G30G10G04G09G12G17G05G02G25
 122553311.753 7  95496146.89645  23321126.594                    23321134.887
 109851881.054 7  85598973.16746  20904095.484                    20904103.563
 115089549.232 7  89680294.24845  21900790.328                    21900798.723
 125409673.950 6  97721880.06943  23864674.641                    23864684.832
 111864745.688 8  87167393.257 7  21287154.344                    21287161.125
 122529711.117 7  95477645.647 6  23316592.367                    23316601.281
 114351202.746 7  89104907.855 7  21760299.672                    21760307.543
 108351837.127 7  84430123.53045  20618646.688                    20618651.625
 125497662.770 7  97790432.609 6  23881413.781                    23881424.703
 11  8 18  0 36  0.0000000  0  9G30G10G04G09G12G17G05G02G25
 122460524.816 7  95423845.44445  23303469.734                    23303478.324
 109860309.314 7  85605540.65146  20905699.844                    20905707.355
 115168074.372 8  89741482.65445  21915733.289                    21915741.391
 125490091.373 6  97784542.96143  23879977.641                    23879987.055
 111810917.251 8  87125449.048 7  21276911.047                    21276917.930
 122584550.160 7  95520377.300 6  23327027.914                    23327037.555
 114265703.200 7  89038284.888 7  21744029.742                    21744037.660
 108355571.283 7  84433033.27445  20619357.242                    20619362.230
 125400707.635 7  97714883.222 6  23862964.242                    23862974.746
 11  8 18  0 36 30.0000000  0  9G30G10G04G09G12G17G05G02G25
 122368054.394 7  95351790.61045  23285873.047                    23285881.133
 109869368.603 7  85612599.85046  20907423.273                    20907430.730
 115246710.657 8  89802757.66145  21930697.094                    21930705.320
 125570627.756 6  97847298.57243  23895302.344                    23895313.395
 111757549.071 8  87083863.466 7  21266755.516                    21266762.207
 122639552.056 7  95563235.857 6  23337494.750                    23337503.723
 114180546.508 7  88971929.084 7  21727825.352                    21727833.199
 108359579.504 7  84436156.56045  20620119.805                    20620125.223
 125303961.742 7  97639496.854 6  23844554.141                    23844564.402
 11  8 18  0 37  0.0000000  0  9G30G10G04G09G12G17G05G02G25
 122275903.213 7  95279984.56145  23268337.219                    23268345.926
 109879058.857 7  85620150.70845  20909267.188                    20909275.059
 115325456.249 7  89864117.83845  21945681.938                    21945690.215
 125651279.747 7  97910144.21144  23910650.617                    23910661.953
 111704642.974 8  87042637.952 8  21256687.844                    21256694.637
 122694717.605 7  95606221.970 6  23347992.836                    23348001.285
 114095735.794 7  88905842.879 7  21711685.688                    21711693.781
 108363860.533 7  84439492.43645  20620934.227                    20620939.676
 125207427.534 7  97564275.426 6  23826184.414                    23826194.215
 11  8 18  0 37 30.0000000  0  9G30G10G04G09G12G17G05G02G25
 122184073.937 7  95208429.34245  23250862.398                    23250871.316
 109889379.414 7  85628192.70946  20911231.039                    20911238.844
 115404308.837 7  89925561.38745  21960687.023                    21960695.250
 125732043.879 6  97973077.23943  23926019.141                    23926030.922
 111652200.814 8  87001773.946 8  21246708.508                    21246715.316
 122750047.024 7  95649335.747 6  23358521.844                    23358530.586
 114011273.297 7  88840028.001 7  21695613.227                    21695621.445
 108368412.939 7  84443039.76645  20621800.602                    20621805.719
 125111107.535 7  97489220.903 6  23807855.273                    23807865.563
 11  8 18  0 38  0.0000000  0  9G30G10G04G09G12G17G05G02G25
 122092569.552 7  95137127.29944  23233449.750                    23233458.371
 109900330.536 7  85636726.06446  20913314.781                    20913323.027
 115483267.017 7  89987087.23645  21975712.711                    21975720.219
 125812916.849 6  98036095.06743  23941408.430                    23941420.273
 111600224.986 8  86961273.301 8  21236817.703                    21236824.582
 122805541.081 7  95692577.817 6  23369081.758                    23369090.055
 113927161.952 7  88774486.742 7  21679607.156                    21679615.086
 108373236.010 7  84446798.01845  20622718.977                    20622723.504
 125015004.616 7  97414335.548 6  23789567.609                    23789577.902
 11  8 18  0 38 30.0000000  0  9G30G10G04G09G12G17G05G02G25
 122001392.551 7  95066080.35244  23216099.703                    23216107.953
 109911911.567 7  85645750.25046  20915518.977                    20915526.848
 115562328.493 7  90048693.57445  21990757.359                    21990765.102
 125893895.205 6  98099195.03243  23956819.023                    23956829.566
 111548717.378 8  86921137.506 8  21227016.156                    21227023.141
 122861199.896 7  95735948.293 6  23379672.945                    23379681.133
 113843404.199 7  88709221.007 7  21663668.500                    21663675.863
 108378327.840 7  84450765.69345  20623687.258                    20623692.449
 124919121.103 7  97339621.119 6  23771321.164                    23771331.902
 11  8 18  0 39  0.0000000  0  9G30G10G04G09G12G17G05G02G25
 121910546.139 7  94995291.00044  23198811.773                    23198820.344
 109924122.781 8  85655265.49346  20917842.891                    20917850.660
 115641491.914 7  90110379.33445  22005821.250                    22005829.488
 125974975.857 7  98162374.68644  23972248.953                    23972258.656
 111497680.754 8  86881368.717 8  21217304.305                    21217311.184
 122917024.578 7  95779448.015 6  23390296.148                    23390303.844
 113760003.671 7  88644233.631 7  21647797.602                    21647805.789
 108383688.223 7  84454942.62945  20624707.836                    20624712.516
 124823460.115 7  97265080.082 6  23753117.664                    23753128.180
 11  8 18  0 39 30.0000000  0  9G30G10G04G09G12G17G05G02G25
 121820033.360 7  94924761.61344  23181587.797                    23181595.777
 109936963.617 8  85665271.34146  20920286.477                    20920293.840
 115720755.396 7  90172143.07745  22020904.891                    22020913.355
 126056155.557 6  98225631.52043  23987697.047                    23987706.172
 111447116.919 8  86841968.322 8  21207682.086                    21207689.250
 122973015.537 7  95823077.320 6  23400950.594                    23400959.039
 113676962.523 8  88579526.294 7  21631995.891                    21632003.430
 108389315.987 7  84459327.91345  20625778.219                    20625783.473
 124728024.418 7  97190714.635 7  23734956.203                    23734967.355
 11  8 18  0 40  0.0000000  0  9G30G10G04G09G12G17G05G02G25
 121729856.616 7  94854494.09344  23164427.453                    23164436.172
 109950433.644 8  85675767.48146  20922849.391                    20922857.227
 115800117.025 7  90233983.29045  22036006.539                    22036015.113
 126137430.937 7  98288962.93243  24003163.078                    24003172.879
 111397028.041 8  86802938.032 8  21198150.898                    21198157.340
 123029172.952 7  95866836.319 6  23411636.656                    23411645.230
 113594283.559 7  88515101.203 7  21616262.688                    21616270.336
 108395209.235 8  84463920.07445  20626900.078                    20626905.281
 124632816.451 7  97116526.638 7  23716838.781                    23716850.000
 11  8 18  0 40 30.0000000  0  9G30G10G04G09G12G17G05G02G25
 121640018.900 7  94784490.75345  23147331.984                    23147340.566
 109964532.632 8  85686753.71846  20925532.578                    20925540.012
 115879575.228 7  90295898.74345  22051127.492                    22051135.609
 126218798.613 6  98352366.20243  24018646.266                    24018656.859
 111347416.170 8  86764279.429 8  21188709.734                    21188716.645
 123085497.831 6  95910725.800 6  23422354.813                    23422364.055
 113511969.347 7  88450960.322 7  21600598.414                    21600606.398
 108401367.275 7  84468718.55745  20628071.859                    20628077.016
 124537839.016 7  97042518.298 7  23698764.703                    23698776.461
 11  8 18  0 41  0.0000000  0  9G30G10G04G09G12G17G05G02G25
 121550523.189 7  94714753.88345  23130301.586                    23130310.234
 109979260.111 8  85698229.68946  20928335.141                    20928342.523
 115959128.240 7  90357888.08645  22066265.953                    22066274.156
 126300255.346 6  98415838.90644  24034147.117                    24034158.148
 111298283.674 8  86725994.367 8  21179360.273                    21179367.414
 123141990.172 6  95954745.731 6  23433105.258                    23433114.078
 113430023.099 7  88387106.162 7  21585005.031                    21585012.625
 108407788.965 7  84473722.48845  20629293.734                    20629299.043
 124443094.885 7  96968691.742 7  23680735.992                    23680746.914
 11  8 18  0 41 30.0000000  0  9G30G10G04G09G12G17G05G02G25
 121461371.878 7  94645285.38445  23113337.352                    23113345.430
 109994615.635 8  85710195.03646  20931257.117                    20931264.723
 116038773.961 7  90419949.66245  22081421.852                    22081429.637
 126381797.725 7  98479378.31344  24049664.922                    24049675.305
 111249631.831 8  86688083.833 8  21170102.086                    21170109.066
 123198650.345 7  95998896.464 6  23443887.508                    23443896.551
 113348447.437 8  88323540.756 7  21569481.414                    21569489.023
 108414472.692 7  84478930.60945  20630565.680                    20630570.551
 124348586.386 7  96895048.802 7  23662751.555                    23662762.090
 11  8 18  0 42  0.0000000  0  9G30G10G04G09G12G17G05G02G25
 121372567.966 7  94576087.56945  23096438.594                    23096446.582
 110010598.773 8  85722649.44246  20934298.789                    20934305.977
 116118510.681 7  90482082.16445  22096595.172                    22096603.613
 126463422.389 6  98542981.85444  24065197.102                    24065207.512
 111201462.857 8  86650549.563 8  21160935.930                    21160942.617
 123255479.121 6  96043178.560 6  23454701.289                    23454711.027
 113267244.355 8  88260265.673 7  21554028.563                    21554037.105
 108421417.559 8  84484342.21546  20631887.414                    20631892.109
 124254316.409 7  96821591.737 7  23644812.805                    23644823.848
 11  8 18  0 42 30.0000000  0  9G30G10G04G09G12G17G05G02G25
 121284114.226 7  94507162.62345  23079605.516                    23079613.918
 110027208.963 8  85735592.45546  20937459.398                    20937467.016
 116198336.618 7  90544284.16045  22111786.203                    22111794.246
 126545126.356 6  98606647.19644  24080745.633                    24080755.539
 111153778.988 8  86613393.303 8  21151861.984                    21151868.832
 123312476.853 6  96087592.307 6  23465546.563                    23465557.371
 113186417.068 7  88197283.419 7  21538647.867                    21538655.543
 108428622.315 8  84489956.33545  20633258.109                    20633263.168
 124160287.593 7  96748322.595 7  23626919.992                    23626930.145
 11  8 18  0 43  0.0000000  0  9G30G10G04G09G12G17G05G02G25
 121196013.406 7  94438512.66745  23062840.773                    23062848.992
 110044445.594 8  85749023.59046  20940739.297                    20940747.125
 116278250.120 7  90606554.39845  22126992.570                    22127001.266
 126626906.028 6  98670371.52144  24096307.344                    24096317.762
 111106582.175 8  86576616.574 8  21142880.594                    21142887.473
 123369644.054 6  96132138.120 6  23476426.195                    23476434.934
 113105968.127 8  88134595.980 7  21523338.945                    21523346.297
 108436085.752 7  84495772.01946  20634678.070                    20634682.973
 124066502.635 8  96675243.476 7  23609072.969                    23609083.711
 11  8 18  0 43 30.0000000  0  9G30G10G04G09G12G17G05G02G25
 121108268.289 7  94370139.88745  23046143.234                    23046151.258
 110062308.129 8  85762942.45046  20944138.477                    20944146.457
 116358249.447 7  90668891.50045  22142216.023                    22142224.887
 126708758.238 6  98734152.38243  24111883.422                    24111893.852
 111059874.736 8  86540221.169 8  21133992.461                    21133999.234
 123426981.281 6  96176816.393 6  23487336.734                    23487345.379
 113025900.168 8  88072205.415 7  21508102.836                    21508110.117
 108443806.780 7  84501788.41945  20636147.727                    20636152.969
 123972964.176 8  96602356.434 7  23591273.305                    23591283.707
 11  8 18  0 44  0.0000000  0  9G30G10G04G09G12G17G05G02G25
 121020881.400 7  94302046.24545  23029513.641                    23029522.234
 110080795.878 8  85777348.49946  20947656.773                    20947663.863
 116438332.616 7  90731293.92345  22157456.117                    22157464.129
 126790679.386 6  98797986.94244  24127472.383                    24127483.164
 111013657.819 8  86504207.997 8  21125197.648                    21125204.395
 123484488.805 6  96221627.402 6  23498280.477                    23498288.637
 112946215.653 8  88010113.651 7  21492939.383                    21492946.680
 108451783.555 8  84508004.10746  20637665.758                    20637670.762
 123879674.566 8  96529663.295 7  23573520.695                    23573531.332
 11  8 18  0 44 30.0000000  0  9G30G10G04G09G12G17G05G02G25
 120933856.076 7  94234234.35445  23012953.578                    23012961.836
 110099908.600 8  85792241.54046  20951293.563                    20951300.852
 116518498.386 7  90793760.72045  22172711.039                    22172719.402
 126872666.573 6  98861872.93243  24143074.086                    24143084.559
 110967934.149 8  86468579.171 8  21116496.867                    21116503.703
 123542167.082 7  96266571.451 6  23509256.672                    23509264.641
 112866917.900 8  87948323.261 7  21477849.234                    21477857.156
 108460015.859 7  84514418.90645  20639232.430                    20639237.055
 123786637.146 7  96457166.670 7  23555816.180                    23555826.859
 11  8 18  0 45  0.0000000  0  9G30G10G04G09G12G17G05G02G25
 120847194.938 7  94166706.24245  22996462.125                    22996470.742
 110119645.380 8  85807620.85646  20955049.367                    20955056.746
 116598744.899 7  90856290.44645  22187980.883                    22187989.668
 126954716.500 6  98925807.86643  24158687.023                    24158698.367
 110922705.286 8  86433335.911 8  21107889.891                    21107896.824
 123600016.599 7  96311648.962 6  23520265.555                    23520273.625
 112788009.104 8  87886835.947 7  21462833.258                    21462841.129
 108468502.352 7  84521031.77645  20640846.836                    20640852.191
 123693854.311 7  96384868.423 7  23538160.008                    23538170.824
 11  8 18  0 45 30.0000000  0  9G30G10G04G09G12G17G05G02G25
 120760900.194 7  94099463.63245  22980041.227                    22980049.621
 110140005.251 8  85823485.70746  20958923.727                    20958931.582
 116679069.878 7  90918881.29645  22203266.359                    22203274.570
 127036825.575 6  98989788.79943  24174312.156                    24174322.875
 110877972.869 8  86398479.488 8  21099377.563                    21099384.625
 123658037.666 7  96356860.127 6  23531306.742                    23531314.680
 112709491.379 8  87825653.356 7  21447891.617                    21447899.555
 108477240.658 7  84527840.85445  20642510.422                    20642515.246
 123601328.327 7  96312770.327 7  23520552.672                    23520563.715
 11  8 18  0 46  0.0000000  0  9G30G10G04G09G12G17G05G02G25
 120674975.085 7  94032509.06745  22963690.039                    22963697.910
 110160987.892 8  85839835.82646  20962916.656                    20962923.805
 116759472.184 7  90981532.42045  22218566.125                    22218574.734
 127118990.960 6  99053813.65143  24189948.578                    24189958.832
 110833739.177 8  86364011.700 8  21090960.313                    21090966.738
 123716230.830 7  96402205.415 6  23542380.391                    23542388.930
 112631367.915 8  87764777.979 7  21433024.898                    21433033.512
 108486230.621 7  84534846.02645  20644220.773                    20644225.543
 123509062.270 7  96240874.765 7  23502995.000                    23503005.410
 11  8 18  0 46 30.0000000  0  9G30G10G04G09G12G17G05G02G25
 120589422.351 7  93965844.64645  22947409.883                    22947418.227
 110182592.833 8  85856670.85846  20967027.945                    20967035.297
 116839950.026 7  91044242.39145  22233881.016                    22233889.316
 127201209.256 6  99117879.73743  24205594.633                    24205604.406
 110790006.052 8  86329933.956 8  21082638.242                    21082644.887
 123774596.563 7  96447685.168 6  23553486.922                    23553495.418
 112553641.099 8  87704211.669 7  21418234.047                    21418242.438
 108495470.997 7  84542046.32946  20645979.414                    20645984.008
 123417058.816 7  96169183.827 6  23485487.086                    23485497.410
 11  8 18  0 47  0.0000000  0  9G30G10G04G09G12G17G05G02G25
 120504244.498 7  93899472.35745  22931201.141                    22931209.219
 110204819.048 8  85873989.98946  20971257.117                    20971264.770
 116920501.848 7  91107010.02345  22249209.750                    22249218.270
 127283476.920 7  99181984.29143  24221249.219                    24221259.457
 110746775.313 8  86296247.688 8  21074411.570                    21074418.441
 123833135.229 7  96493299.658 6  23564627.195                    23564635.387
 112476313.573 8  87643956.492 7  21403519.227                    21403527.422
 108504960.258 7  84549440.56945  20647784.945                    20647789.953
 123325320.536 7  96097699.513 7  23468030.172                    23468040.598
 11  8 18  0 47 30.0000000  0  9G30G10G04G09G12G17G05G02G25
 120419444.451 7  93833394.45945  22915063.984                    22915071.891
 110227665.719 8  85891792.60146  20975605.117                    20975612.410
 117001125.740 7  91169833.78545  22264552.328                    22264560.254
 127365790.939 6  99246124.95643  24236913.125                    24236923.609
 110704048.792 8  86262954.322 8  21066281.219                    21066287.840
 123891847.312 7  96539049.301 6  23575799.164                    23575808.406
 112399387.911 8  87584014.461 7  21388880.609                    21388888.496
 108514697.437 7  84557027.99845  20649637.883                    20649642.637
 123233850.144 7  96026423.950 7  23450624.063                    23450634.223
 11  8 18  0 48  0.0000000  0  9G30G10G04G09G12G17G05G02G25
 120335024.971 7  93767613.10145  22898999.648                    22899007.625
 110251131.885 8  85910077.94146  20980069.992                    20980077.883
 117081820.333 7  91232712.64045  22279907.633                    22279915.555
 127448148.145 6  99310299.25843  24252586.313                    24252595.770
 110661828.661 8  86230055.531 8  21058246.797                    21058253.699
 123950733.031 7  96584934.267 6  23587004.398                    23587013.711
 112322866.781 8  87524387.662 7  21374319.055                    21374327.000
 108524681.332 7  84564807.67445  20651537.500                    20651542.336
 123142650.378 7  95955359.275 7  23433268.891                    23433279.418
 11  8 18  0 48 30.0000000  0  9G30G10G04G09G12G17G05G02G25
 120250988.861 7  93702130.48045  22883007.961                    22883016.145
 110275217.566 8  85928846.03045  20984653.563                    20984661.531
 117162583.882 7  91295645.24345  22295276.320                    22295284.152
 127530545.235 6  99374504.66243  24268265.477                    24268274.805
 110620116.697 8  86197552.727 8  21050309.188                    21050315.625
 124009793.118 7  96630955.074 6  23598243.438                    23598252.969
 112246752.766 8  87465078.098 7  21359834.828                    21359842.570
 108534910.840 7  84572778.72145  20653484.055                    20653489.254
 123051724.113 8  95884507.714 7  23415966.984                    23415977.012
 11  8 18  0 49  0.0000000  0  9G30G10G04G09G12G17G05G02G25
 120167338.317 7  93636948.30545  22867089.695                    22867097.750
 110299920.795 8  85948095.30546  20989354.828                    20989362.160
 117243414.497 7  91358630.09845  22310657.828                    22310665.527
 127612978.788 6  99438738.51543  24283952.258                    24283962.219
 110578914.036 8  86165446.776 8  21042468.648                    21042475.770
 124069027.653 7  96677111.827 6  23609515.641                    23609524.648
 112171047.883 8  87406087.328 7  21345428.914                    21345436.125
 108545384.056 7  84580939.67445  20655477.406                    20655482.844
 122961073.468 8  95813870.914 7  23398716.055                    23398726.387
 11  8 18  0 49 30.0000000  0  9G30G10G04G09G12G17G05G02G25
 120084076.385 7  93572068.93645  22851245.328                    22851253.395
 110325240.875 8  85967825.24246  20994172.859                    20994180.430
 117324310.771 7  91421666.12845  22326051.836                    22326060.379
 127695445.861 6  99502998.46743  24299644.484                    24299655.621
 110538223.132 8  86133739.599 8  21034725.266                    21034732.387
 124128437.087 7  96723404.848 6  23620820.484                    23620829.742
 112095755.051 8  87347417.644 7  21331101.063                    21331108.703
 108556100.149 7  84589289.87545  20657516.242                    20657521.246
 122870701.380 8  95743451.166 7  23381518.945                    23381529.559
 11  8 18  0 50  0.0000000  0  9G30G10G04G09G12G17G05G02G25
 120001205.520 7  93507494.29745  22835476.008                    22835484.098
 110351176.956 8  85988035.18446  20999108.023                    20999115.977
 117405270.641 7  91484751.70945  22341458.531                    22341466.379
 127777942.972 6  99567281.83743  24315342.641                    24315353.918
 110498044.927 8  86102431.924 8  21027079.750                    21027086.555
 124188021.922 6  96769834.556 6  23632159.359                    23632168.289
 112020876.385 8  87289070.668 7  21316852.609                    21316860.059
 108567057.561 7  84597828.12945  20659601.125                    20659606.727
 122780610.345 7  95673250.412 7  23364374.766                    23364385.613
 11  8 18  0 50 30.0000000  0  9G30G10G04G09G12G17G05G02G25
 119918729.126 7  93443227.04145  22819780.867                    22819788.715
 110377728.852 8  86008724.98846  21004160.805                    21004168.547
 117486293.452 7  91547886.35045  22356876.500                    22356884.391
 127860467.453 6  99631586.52043  24331046.703                    24331057.688
 110458382.068 8  86071525.820 8  21019531.961                    21019538.934
 124247782.503 6  96816401.208 6  23643531.453                    23643539.918
 111946414.925 8  87231048.779 7  21302682.828                    21302690.234
 108578256.166 7  84606554.31745  20661731.953                    20661737.566
 122690803.663 7  95603271.236 7  23347285.352                    23347295.859
 11  8 18  0 51  0.0000000  0  9G30G10G04G09G12G17G05G02G25
 119836649.490 7  93379268.95445  22804161.805                    22804169.855
 110404894.791 8  86029893.26346  21009330.492                    21009337.965
 117567377.164 7  91611068.43845  22372306.016                    22372313.949
 127943015.839 6  99695909.86743  24346755.891                    24346766.301
 110419235.825 8  86041022.268 8  21012083.070                    21012089.777
 124307718.904 7  96863104.857 6  23654937.039                    23654946.117
 111872373.120 8  87173353.911 7  21288593.148                    21288600.488
 108589694.242 7  84615467.10745  20663909.188                    20663914.117
 122601283.679 7  95533515.450 7  23330250.031                    23330260.773
 11  8 18  0 51 30.0000000  0  9G30G10G04G09G12G17G05G02G25
 119754969.169 7  93315622.00445  22788618.336                    22788626.195
 110432674.088 8  86051539.48046  21014616.984                    21014624.684
 117648520.100 7  91674296.66445  22387747.258                    22387755.977
 128025584.823 6  99760249.26543  24362467.891                    24362478.566
 110380608.040 8  86010922.716 8  21004732.320                    21004738.813
 124367831.873 7  96909946.114 6  23666376.336                    23666385.613
 111798753.138 8  87115987.727 7  21274583.789                    21274591.391
 108601370.371 7  84624565.38245  20666131.156                    20666136.254
 122512052.907 7  95463985.024 7  23313270.281                    23313280.754
 11  8 18  0 52  0.0000000  0  9G30G10G04G09G12G17G05G02G25
 119673691.076 7  93252288.48245  22773151.742                    22773159.578
 110461065.928 7  86073662.99346  21020019.641                    21020027.625
 117729720.788 7  91737569.89545  22403199.367                    22403207.309
 128108171.575 6  99824602.54943  24378184.227                    24378193.492
 110342500.825 8  85981228.795 8  20997480.797                    20997487.434
 124428121.888 6  96956925.298 6  23677849.117                    23677858.703
 111725557.825 8  87058952.461 7  21260655.141                    21260662.551
 108613283.695 7  84633848.49545  20668397.641                    20668403.070
 122423114.298 7  95394682.259 7  23296345.914                    23296356.207
 11  8 18  0 52 30.0000000  0  9G30G10G04G09G12G17G05G02G25
 119592817.483 7  93189270.14445  22757761.742                    22757769.836
 110490068.692 7  86096262.56046  21025538.656                    21025546.191
 117810977.355 7  91800886.68145  22418661.828                    22418670.059
 128190772.370 6  99888966.76643  24393901.641                    24393913.164
 110304914.763 8  85951940.968 8  20990328.539                    20990334.848
 124488589.001 6  97004042.485 6  23689355.406                    23689365.465
 111652789.018 8  87002249.534 7  21246807.430                    21246814.984
 108625432.366 7  84643314.99445  20670709.883                    20670715.145
 122334470.112 7  95325608.918 7  23279476.875                    23279487.340
 11  8 18  0 53  0.0000000  0  9G30G10G04G09G12G17G05G02G25
 119512351.438 7  93126569.37945  22742449.664                    22742457.980
 110519681.694 7  86119337.64146  21031173.695                    21031181.762
 117892288.624 7  91864246.10445  22434134.680                    22434142.930
 128273384.400 6  99953339.66643  24409622.930                    24409634.164
 110267852.596 8  85923061.377 8  20983275.664                    20983282.074
 124549233.889 6  97051298.242 6  23700895.969                    23700905.371
 111580449.598 8  86945881.195 7  21233041.484                    21233049.297
 108637815.851 7  84652964.45645  20673066.266                    20673071.336
 122246123.390 7  95256767.379 7  23262665.156                    23262675.449
 11  8 18  0 53 30.0000000  0  9G30G10G04G09G12G17G05G02G25
 119432295.403 7  93064188.11445  22727215.539                    22727223.441
 110549903.829 7  86142887.35846  21036924.742                    21036932.684
 117973652.932 7  91927646.83845  22449617.438                    22449626.527
 128356004.605 6 100017718.99443  24425344.484                    24425356.316
 110231315.722 8  85894591.095 8  20976322.625                    20976329.121
 124610056.641 6  97098692.601 6  23712470.383                    23712479.188
 111508542.000 8  86889849.336 7  21219358.078                    21219365.480
 108650432.736 7  84662795.80445  20675467.461                    20675472.273
 122158076.731 7  95188159.636 7  23245910.359                    23245920.695
 11  8 18  0 54  0.0000000  0  9G30G10G04G09G12G17G05G02G25
 119352652.100 7  93002128.45745  22712059.617                    22712067.555
 110580733.641 7  86166910.59646  21042791.617                    21042799.090
 118055068.774 7  91991087.73845  22465110.406                    22465118.914
 128438629.565 6 100082101.95143  24441067.719                    24441080.094
 110195305.416 8  85866531.130 8  20969469.883                    20969476.809
 124671057.709 6  97146225.885 6  23724077.688                    23724087.293
 111437068.623 8  86834155.843 7  21205756.750                    21205764.523
 108663281.876 7  84672808.11845  20677912.180                    20677917.371
 122070332.796 7  95119787.787 7  23229213.555                    23229223.410
 11  8 18  0 54 30.0000000  0  9G30G10G04G09G12G17G05G02G25
 119273424.024 7  92940392.34545  22696983.023                    22696991.164
 110612169.872 7  86191406.36845  21048773.875                    21048781.109
 118136534.438 7  92054567.45745  22480612.750                    22480621.496
 128521256.194 6 100146486.22443  24456791.594                    24456803.445
 110159823.301 8  85838882.739 8  20962717.867                    20962724.727
 124732237.078 6  97193898.122 6  23735719.344                    23735728.746
 111366031.495 8  86778802.273 7  21192239.227                    21192246.914
 108676361.523 7  84683000.04645  20680401.414                    20680405.969
 121982894.047 7  95051653.757 7  23212574.297                    23212584.512
 11  8 18  0 55  0.0000000  0  9G30G10G04G09G12G17G05G02G25
 119194613.910 7  92878981.92645  22681985.750                    22681994.078
 110644212.063 7  86216374.33346  21054870.969                    21054878.574
 118218048.735 7  92118085.08144  22496125.250                    22496133.207
 128603881.417 6 100210869.40243  24472515.055                    24472525.957
 110124871.187 8  85811647.334 8  20956067.281                    20956073.730
 124793595.551 6  97241709.914 6  23747395.914                    23747405.504
 111295432.973 8  86723790.490 7  21178804.477                    21178812.195
 108689670.983 7  84693371.04945  20682934.047                    20682939.063
 121895763.324 7  94983759.745 7  23195994.141                    23196004.105
 11  8 18  0 55 30.0000000  0  9G30G10G04G09G12G17G05G02G25
 119116224.409 7  92817899.24145  22667069.023                    22667076.574
 110676858.636 7  86241813.23145  21061082.984                    21061090.750
 118299609.951 7  92181639.23445  22511645.500                    22511653.859
 128686502.107 6 100275249.03043  24488236.688                    24488247.965
 110090450.686 8  85784826.177 8  20949517.141                    20949523.461
 124855133.245 6  97289661.372 6  23759106.367                    23759115.633
 111225275.972 8  86669122.735 7  21165454.656                    21165462.141
 108703209.031 7  84703920.17545  20685510.078                    20685515.051
 121808943.313 7  94916107.842 7  23179472.781                    23179482.441
 11  8 18  0 56  0.0000000  0  9G30G10G04G09G12G17G05G02G25
 119038258.098 7  92757146.31245  22652232.523                    22652240.211
 110710108.299 8  86267722.07146  21067410.141                    21067418.070
 118381216.676 7  92245228.87945  22527174.406                    22527182.941
 128769115.015 6 100339622.51043  24503958.320                    24503968.973
 110056563.105 8  85758420.269 8  20943068.320                    20943075.305
 124916850.224 6  97337752.506 6  23770851.227                    23770860.664
 111155562.476 8  86614800.564 7  21152188.219                    21152195.824
 108716974.280 7  84714646.34845  20688129.609                    20688134.941
 121722436.663 7  94848700.113 7  23163010.789                    23163021.180
 11  8 18  0 56 30.0000000  0  9G30G10G04G09G12G17G05G02G25
 118960717.570 7  92696725.16645  22637476.688                    22637484.793
 110743959.684 8  86294099.79045  21073851.648                    21073860.129
 118462867.566 7  92308852.92844  22542712.633                    22542720.430
 128851717.115 6 100403987.64643  24519677.180                    24519687.402
 110023210.133 8  85732430.951 8  20936721.852                    20936728.203
 124978747.111 6  97385983.840 6  23782629.984                    23782639.250
 111086294.645 8  86560825.664 7  21139006.680                    21139014.441
 108730966.025 7  84725549.01445  20690792.141                    20690797.375
 121636245.951 8  94781538.589 7  23146609.063                    23146619.449
 11  8 18  0 57  0.0000000  0  9G30G10G04G09G12G17G05G02G25
 118883605.035 7  92636637.50845  22622802.750                    22622810.270
 110778411.154 8  86320945.09946  21080408.047                    21080415.785
 118544560.721 7  92372509.92145  22558257.898                    22558266.441
 128934305.198 6 100468341.82443  24535393.422                    24535403.852
 109990392.867 8  85706859.059 8  20930476.367                    20930483.512
 125040824.080 6  97434355.511 6  23794442.742                    23794451.840
 111017474.848 8  86507199.875 7  21125910.750                    21125918.973
 108745182.005 7  84736626.39845  20693497.133                    20693502.266
 121550373.583 8  94714625.112 7  23130268.328                    23130278.582
 11  8 18  0 57 30.0000000  0  9G30G10G04G09G12G17G05G02G25
 118806923.304 7  92576885.55545  22608210.594                    22608218.559
 110813461.618 8  86348257.16146  21087077.992                    21087085.617
 118626294.783 7  92436198.81145  22573811.563                    22573819.910
 129016876.151 7 100532682.66744  24551105.930                    24551117.031
 109958112.776 8  85681705.746 8  20924333.781                    20924340.555
 125103081.244 6  97482867.583 6  23806288.125                    23806299.203
 110949105.465 8  86453925.053 7  21112900.219                    21112908.117
 108759621.504 7  84747877.94245  20696245.125                    20696249.988
 121464822.277 8  94647961.829 7  23113988.500                    23113998.633
 11  8 18  0 58  0.0000000  0  9G30G10G04G09G12G17G05G02G25
 118730675.234 7  92517471.50945  22593701.000                    22593709.141
 110849110.284 8  86376035.34846  21093861.844                    21093869.961
 118708068.543 7  92499918.60544  22589372.414                    22589380.902
 129099427.178 7 100597007.95044  24566815.531                    24566826.219
 109926372.135 8  85656972.788 8  20918293.820                    20918300.621
 125165519.428 6  97531520.699 6  23818170.914                    23818180.922
 110881189.031 8  86401003.188 7  21099976.461                    21099983.742
 108774283.841 7  84759303.14645  20699034.727                    20699039.844
 121379595.128 8  94581551.135 7  23097769.922                    23097780.340
 11  8 18  0 58 30.0000000  0  9G30G10G04G09G12G17G05G02G25
 118654863.030 7  92458397.11545  22579274.320                    22579282.391
 110885355.623 8  86404278.47246  21100759.445                    21100766.980
 118789880.606 7  92563668.27745  22604941.242                    22604949.148
 129181954.876 7 100661315.11344  24582519.758                    24582530.418
 109895171.714 8  85632660.774 8  20912356.375                    20912363.281
 125228138.734 6  97580314.950 6  23830087.008                    23830096.516
 110813727.500 8  86348435.800 7  21087138.867                    21087146.043
 108789167.421 7  84770900.73445  20701867.547                    20701872.836
 121294694.369 8  94515394.770 7  23081613.633                    23081624.680
 11  8 18  0 59  0.0000000  0  9G30G10G04G09G12G17G05G02G25
 118579489.597 7  92399664.61145  22564931.734                    22564939.555
 110922196.175 8  86432985.39546  21107769.609                    21107777.230
 118871729.532 7  92627446.66344  22620516.469                    22620524.785
 129264456.472 7 100725601.92144  24598219.727                    24598231.293
 109864513.331 8  85608771.133 8  20906522.469                    20906529.258
 125290939.203 7  97629250.352 6  23842038.250                    23842047.852
 110746723.391 8  86296224.853 7  21074388.977                    21074396.043
 108804271.295 7  84782669.99045  20704741.211                    20704746.922
 121210122.995 8  94449495.065 7  23065520.680                    23065530.305
 11  8 18  0 59 30.0000000  0  9G30G10G04G09G12G17G05G02G25
 118504557.060 7  92341275.66645  22550672.320                    22550680.375
 110959630.176 8  86462154.75646  21114893.195                    21114900.238
 118953613.708 7  92691252.52044  22636098.156                    22636107.016
 129346928.711 7 100789865.84244  24613914.273                    24613925.273
 109834397.920 8  85585304.585 8  20900791.523                    20900798.281
 125353921.179 6  97678327.182 6  23854022.633                    23854032.074
 110680178.438 8  86244371.698 7  21061725.719                    21061732.531
 108819594.069 7  84794609.80945  20707657.445                    20707662.652
 121125883.221 8  94383853.743 7  23049489.945                    23049500.344
 11  8 18  1  0  0.0000000  0  9G30G10G04G09G12G17G05G02G25
 118430068.021 7  92283232.29445  22536497.727                    22536504.996
 110997656.079 8  86491785.33346  21122129.172                    21122136.730
 119035531.724 7  92755084.72744  22651686.664                    22651695.332
 129429368.489 7 100854104.50344  24629602.234                    24629612.707
 109804827.152 8  85562262.430 8  20895164.344                    20895171.477
 125417085.088 6  97727545.793 6  23866042.969                    23866052.648
 110614095.193 8  86192878.316 7  21049150.508                    21049157.289
 108835134.220 7  84806719.01745  20710614.391                    20710619.797
 121041977.752 8  94318472.922 7  23033523.438                    23033533.227
 11  8 18  1  0 30.0000000  0  9G30G10G04G09G12G17G05G02G25
 118356025.094 7  92225536.55145  22522407.695                    22522415.391
 111036272.886 8  86521876.35846  21129477.977                    21129485.164
 119117482.210 7  92818942.24344  22667281.430                    22667289.488
 129511772.867 6 100918315.59143  24645282.484                    24645293.754
 109775802.348 8  85539645.701 8  20889641.727                    20889647.957
 125480431.095 6  97776906.295 6  23878096.656                    23878106.285
 110548475.724 8  86141746.315 7  21036663.305                    21036670.281
 108850890.794 7  84818996.86645  20713613.461                    20713618.273
 120958409.295 8  94253354.705 7  23017620.750                    23017630.766
 11  8 18  1  1  0.0000000  0  9G30G10G04G09G12G17G05G02G25
 118282430.828 7  92168190.41045  22508402.828                    22508410.539
 111075478.919 8  86552426.52246  21136938.883                    21136945.797
 119199463.998 7  92882824.14144  22682882.461                    22682890.121
 129594138.870 6 100982496.77943  24660956.586                    24660967.609
 109747324.802 8  85517455.404 8  20884222.211                    20884228.789
 125543959.362 6  97826408.812 6  23890186.070                    23890195.559
 110483322.503 8  86090977.601 7  21024265.305                    21024272.559
 108866862.917 8  84831442.67945  20716652.336                    20716657.191
 120875180.552 8  94188501.195 7  23001783.125                    23001792.727
 11  8 18  1  1 30.0000000  0  9G30G10G04G09G12G17G05G02G25
 118209287.726 7  92111195.82345  22494484.438                    22494492.105
 111115272.870 8  86583434.79446  21144510.703                    21144518.594
 119281475.812 7  92946729.42844  22698488.406                    22698496.293
 129676463.362 6 101046645.59543  24676622.227                    24676633.496
 109719396.341 8  85495692.980 7  20878907.555                    20878914.535
 125607670.257 6  97876053.647 6  23902310.188                    23902319.066
 110418637.561 8  86040573.775 7  21011955.180                    21011963.305
 108883049.141 8  84844055.32645  20719732.617                    20719737.422
 120792294.113 8  94123914.410 7  22986010.172                    22986020.227
 11  8 18  1  2  0.0000000  0  9G30G10G04G09G12G17G05G02G25
 118136597.992 7  92054554.50045  22480651.898                    22480659.441
 111155653.092 8  86614899.90446  21152195.008                    21152202.375
 119363515.695 7  93010656.58644  22714100.125                    22714108.090
 129758743.250 6 101110759.63643  24692279.656                    24692290.238
 109692017.600 8  85474358.896 8  20873697.547                    20873704.645
 125671564.132 7  97925841.071 6  23914468.477                    23914477.727
 110354422.929 8  85990536.419 7  20999735.531                    20999743.820
 108899447.960 8  84856833.63445  20722852.852                    20722858.086
 120709752.414 8  94059596.251 7  22970302.719                    22970312.586
 11  8 18  1  2 30.0000000  0  9G30G10G04G09G12G17G05G02G25
 118064364.276 7  91998268.50945  22466906.359                    22466913.660
 111196617.845 8  86646820.49945  21159990.203                    21159998.066
 119445582.783 7  93074604.96644  22729716.961                    22729724.355
 129840975.555 6 101174836.57943  24707927.398                    24707937.863
 109665189.586 7  85453453.966 8  20868592.258                    20868599.262
 125735641.172 7  97975771.213 6  23926661.891                    23926671.586
 110290680.966 8  85940867.368 8  20987606.047                    20987613.930
 108916058.803 8  84869777.14545  20726014.313                    20726018.934
 120627558.180 8  93995548.837 7  22954661.789                    22954671.879
 11  8 18  1  3  0.0000000  0  9G30G10G04G09G12G17G05G02G25
 117992589.076 7  91942339.80945  22453247.680                    22453255.727
 111238165.700 8  86679195.46345  21167896.375                    21167903.988
 119527675.672 7  93138573.45544  22745338.391                    22745346.512
 129923157.588 6 101238874.38942  24723565.930                    24723577.895
 109638914.375 8  85432979.789 8  20863592.391                    20863599.102
 125799901.380 7  98025844.100 6  23938890.617                    23938899.785
 110227413.477 8  85891568.049 7  20975566.961                    20975574.520
 108932880.324 8  84882884.82645  20729215.320                    20729219.934
 120545714.055 8  93931774.229 7  22939087.781                    22939097.387
 11  8 18  1  3 30.0000000  0  9G30G10G04G09G12G17G05G02G25
 117921274.904 7  91886770.34645  22439677.211                    22439684.992
 111280295.004 8  86712023.50045  21175913.328                    21175921.152
 119609793.141 7  93202561.09244  22760964.500                    22760973.621
 130005286.254 6 101302870.56442  24739194.438                    24739206.324
 109613192.941 8  85412937.130 7  20858697.648                    20858704.477
 125864345.193 7  98076060.057 6  23951153.375                    23951163.301
 110164622.808 8  85842640.280 7  20963618.102                    20963626.027
 108949911.294 8  84896155.71445  20732456.188                    20732460.922
 120464222.717 8  93868274.518 7  22923579.914                    22923590.285
 11  8 18  1  4  0.0000000  0  9G30G10G04G09G12G17G05G02G25
 117850424.004 7  91831561.86945  22426194.758                    22426202.383
 111323004.056 8  86745303.29845  21184040.695                    21184048.141
 119691933.568 7  93266566.59244  22776595.523                    22776604.969
 130087358.220 6 101366822.62742  24754812.578                    24754823.891
 109588026.223 8  85393326.711 7  20853908.805                    20853915.227
 125928972.833 7  98126419.245 6  23963452.016                    23963461.609
 110102310.987 8  85794085.653 7  20951760.758                    20951768.016
 108967150.452 8  84909588.83545  20735736.727                    20735741.137
 120383086.602 8  93805051.588 7  22908140.133                    22908150.133
 11  8 18  1  4 30.0000000  0  9G30G10G04G09G12G17G05G02G25
 117780038.836 7  91776716.29345  22412801.109                    22412808.266
 111366291.298 8  86779033.62645  21192277.875                    21192285.574
 119774095.878 7  93330589.14644  22792230.773                    22792239.504
 130169370.944 6 101430728.49742  24770419.859                    24770429.898
 109563415.431 8  85374149.487 7  20849225.789                    20849231.879
 125993784.258 7  98176921.638 6  23975785.844                    23975794.652
 110040480.348 8  85745905.972 7  20939994.781                    20940001.941
 108984596.641 8  84923183.27645  20739056.148                    20739061.277
 120302308.271 8  93742107.453 7  22892768.844                    22892778.703
 11  8 18  1  5  0.0000000  0  9G30G10G04G09G12G17G05G02G25
 117710121.706 7  91722235.42545  22399496.398                    22399503.313
 111410155.195 8  86813213.29645  21200625.125                    21200632.418
 119856278.483 7  93394627.50644  22807869.781                    22807878.027
 130251321.235 6 101494585.71842  24786014.211                    24786025.867
 109539361.643 8  85355406.295 7  20844647.977                    20844654.891
 126058779.661 7  98227567.407 6  23988153.047                    23988162.961
 109979132.206 8  85698102.268 7  20928320.430                    20928327.508
 109002248.507 8  84936937.97945  20742415.797                    20742420.230
 120221890.272 8  93679444.083 7  22877465.695                    22877475.590
 11  8 18  1  5 30.0000000  0  9G30G10G04G09G12G17G05G02G25
 117640675.148 7  91668121.23345  22386280.516                    22386288.066
 111454593.846 8  86847840.83146  21209081.516                    21209089.043
 119938480.510 7  93458681.02944  22823512.352                    22823520.609
 130333206.295 5 101558392.09042  24801595.773                    24801608.617
 109515866.746 8  85337098.584 7  20840177.539                    20840183.789
 126123959.488 6  98278356.897 6  24000556.070                    24000566.211
 109918268.913 8  85650676.372 7  20916738.461                    20916745.867
 109020105.273 8  84950852.34945  20745813.563                    20745817.852
 120141835.334 8  93617063.632 7  22862231.711                    22862241.746
 11  8 18  1  6  0.0000000  0  9G30G10G04G09G12G17G05G02G25
 117571701.500 7  91614375.54945  22373155.258                    22373163.840
 111499605.605 8  86882914.93946  21217647.078                    21217654.254
 120020700.349 7  93522748.42544  22839157.781                    22839166.344
 130415022.944 5 101622145.07443  24817165.375                    24817178.613
 109492931.152 8  85319226.711 7  20835812.781                    20835819.480
 126189323.842 6  98329290.141 6  24012994.883                    24013004.727
 109857892.749 8  85603630.039 7  20905249.227                    20905256.715
 109038165.583 8  84964925.32845  20749250.508                    20749255.031
 120062145.940 8  93554967.999 7  22847067.344                    22847077.414
 11  8 18  1  6 30.0000000  0  9G30G10G04G09G12G17G05G02G25
 117503203.049 7  91561000.15045  22360120.875                    22360128.691
 111545188.468 8  86918434.06546  21226321.305                    21226328.387
 120102936.721 7  93586828.67944  22854806.781                    22854815.512
 130496768.240 6 101685842.51442  24832722.086                    24832734.340
 109470555.859 8  85301791.429 7  20831554.875                    20831561.465
 126254872.711 6  98380367.162 6  24025468.234                    24025477.465
 109798005.487 8  85556964.664 7  20893852.836                    20893860.570
 109056428.015 8  84979155.79245  20752725.375                    20752730.492
 119982824.521 8  93493159.109 7  22831973.281                    22831982.840
 11  8 18  1  7  0.0000000  0  9G30G10G04G09G12G17G05G02G25
 117435182.135 7  91507996.86345  22347176.844                    22347184.543
 111591341.039 8  86954397.12546  21235103.359                    21235111.000
 120185188.498 7  93650920.96344  22870459.328                    22870467.473
 130578439.385 6 101749482.18243  24848263.313                    24848275.996
 109448742.094 8  85284793.698 7  20827403.977                    20827410.594
 126320606.490 6  98431588.268 6  24037976.688                    24037986.086
 109738609.077 8  85510681.779 7  20882550.516                    20882558.145
 109074891.656 8  84993543.05246  20756238.813                    20756244.105
 119903873.707 8  93431638.995 7  22816949.023                    22816959.273
 11  8 18  1  7 30.0000000  0  9G30G10G04G09G12G17G05G02G25
 117367641.016 7  91455367.44645  22334324.055                    22334332.160
 111638061.206 8  86990802.45846  21243994.352                    21244001.770
 120267454.370 7  93715024.21944  22886114.008                    22886122.801
 130660033.387 6 101813061.69143  24863790.875                    24863802.270
 109427491.061 8  85268234.470 7  20823359.477                    20823366.238
 126386525.306 6  98482953.551 6  24050520.836                    24050530.648
 109679705.402 8  85464782.831 7  20871341.477                    20871348.695
 109093555.172 8  85008086.04446  20759790.875                    20759795.574
 119825295.995 8  93370409.611 7  22801995.789                    22802006.152
 11  8 18  1  8  0.0000000  0  8G30G10G04G12G17G05G02G25
 117300582.392 7  91403114.00645  22321562.867                    22321571.223
 111685347.653 8  87027649.05146  21252992.656                    21252999.910
 120349733.384 7  93779137.72244  22901771.563                    22901779.859
 109406803.916 8  85252114.618 7  20819422.828                    20819429.742
 126452629.622 6  98534463.354 6  24063100.719                    24063109.633
 109621296.899 8  85419269.756 7  20860226.461                    20860234.207
 109112417.861 8  85022784.25446  20763380.242                    20763385.047
 119747094.326 8  93309473.250 7  22787115.289                    22787125.070
 11  8 18  1  8 30.0000000  0  8G30G10G04G12G17G05G02G25
 117234008.402 7  91351238.19845  22308894.711                    22308902.605
 111733198.322 8  87064935.29646  21262098.414                    21262105.395
 120432024.112 7  93843260.36244  22917431.281                    22917439.723
 109386681.620 8  85236434.916 7  20815594.273                    20815600.598
 126518919.125 6  98586117.488 6  24075714.914                    24075724.742
 109563385.117 8  85374143.723 7  20849206.539                    20849213.945
 109131478.353 8  85037636.59346  20767007.563                    20767012.238
 119669270.961 8  93248831.675 7  22772305.555                    22772315.484
 11  8 18  1  9  0.0000000  0  8G30G10G04G12G17G05G02G25
 117167921.080 7  91299741.61945  22296318.148                    22296326.176
 111781611.272 8  87102659.68546  21271310.984                    21271318.016
 120514325.215 7  93907391.05544  22933092.016                    22933101.016
 109367124.764 8  85221195.810 7  20811872.852                    20811878.703
 126585394.164 6  98637916.176 6  24088364.750                    24088374.504
 109505971.785 8  85329406.104 7  20838280.953                    20838288.328
 109150735.362 8  85052642.05646  20770671.688                    20770676.930
 119591828.252 8  93188486.719 7  22757569.008                    22757578.898
 11  8 18  1  9 30.0000000  0  8G30G10G04G12G17G05G02G25
 117102322.659 7  91248626.00945  22283835.625                    22283843.113
 111830584.307 8  87140820.51646  21280630.375                    21280637.254
 120596635.398 7  93971528.82944  22948754.406                    22948763.473
 109348134.433 8  85206398.162 7  20808258.750                    20808265.328
 126652054.477 6  98689859.245 6  24101049.883                    24101059.555
 109449058.923 8  85285058.457 7  20827450.586                    20827457.582
 109170187.544 8  85067799.60146  20774373.289                    20774378.953
 119514768.700 8  93128440.330 7  22742904.805                    22742914.910
 11  8 18  1 10  0.0000000  0  8G30G10G04G12G17G05G02G25
 117037215.893 7  91197893.52345  22271446.016                    22271453.629
 111880116.303 8  87179416.88245  21290056.016                    21290062.973
 120678953.955 6  94035673.10944  22964419.484                    22964427.961
 109329711.944 8  85192042.972 7  20804753.148                    20804759.512
 126718900.475 6  98741947.065 6  24113770.141                    24113779.594
 109392648.465 8  85241102.293 7  20816715.930                    20816723.164
 109189834.397 8  85083108.83846  20778111.688                    20778117.016
 119438095.298 7  93068694.844 7  22728314.258                    22728324.328
 11  8 18  1 10 30.0000000  0  8G30G10G04G12G17G05G02G25
 116972602.198 7  91147545.23445  22259150.203                    22259158.711
 111930204.380 8  87218446.56545  21299587.109                    21299594.660
 120761278.998 6  94099822.44044  22980085.250                    22980093.723
 109311857.380 8  85178130.327 7  20801355.430                    20801362.238
 126785932.115 7  98794179.473 6  24126526.508                    24126536.188
 109336741.888 8  85197538.772 7  20806077.070                    20806084.426
 109209673.674 8  85098568.01446  20781886.867                    20781892.434
 119361809.781 7  93009251.622 7  22713797.250                    22713807.410
 11  8 18  1 11  0.0000000  0  8G30G10G04G12G17G05G02G25
 116908484.454 7  91097583.40645  22246949.266                    22246956.965
 111980847.247 8  87257908.55745  21309223.734                    21309231.426
 120843609.756 7  94163976.25544  22995752.477                    22995760.418
 109294572.340 8  85164661.477 7  20798066.172                    20798073.012
 126853149.575 7  98846556.699 6  24139316.914                    24139326.395
 109281341.587 8  85154369.736 7  20795534.711                    20795542.402
 109229705.147 8  85114176.95546  20785699.359                    20785704.328
 119285915.199 7  92950113.032 7  22699355.633                    22699365.129
 11  8 18  1 11 30.0000000  0  8G30G10G04G12G17G05G02G25
 116844864.580 7  91048009.52345  22234842.828                    22234850.223
 112032042.696 8  87297801.12145  21318965.844                    21318973.766
 120925945.066 7  94228133.56444  23011421.195                    23011428.586
 109277857.510 8  85151636.929 7  20794885.336                    20794892.180
 126920553.035 7  98899078.865 6  24152143.727                    24152153.082
 109226448.873 8  85111596.215 7  20785089.195                    20785096.047
 109249927.318 8  85129934.49146  20789547.578                    20789552.691
 119210413.805 8  92891280.815 7  22684987.578                    22684997.711
 11  8 18  1 12  0.0000000  0  8G30G10G04G12G17G05G02G25
 116781744.748 7  90998825.29645  22222831.516                    22222839.246
 112083788.776 8  87338122.74145  21328813.156                    21328820.730
 121008283.418 7  94292293.29844  23027089.836                    23027097.383
 109261713.620 8  85139057.283 7  20791813.281                    20791819.590
 126988142.541 7  98951745.985 6  24165005.328                    24165015.043
 109172065.647 8  85069219.706 8  20774740.648                    20774748.078
 109270338.968 8  85145839.68046  20793431.398                    20793436.527
 119135308.026 8  92832756.881 7  22670695.805                    22670705.996
 11  8 18  1 12 30.0000000  0  8G30G10G04G12G17G05G02G25
 116719127.133 7  90950032.40445  22210915.180                    22210923.359
 112136083.547 8  87378871.93845  21338764.141                    21338771.809
 121090624.057 7  94356454.83744  23042758.477                    23042766.188
 109246141.529 8  85126923.180 7  20788849.805                    20788856.473
 127055918.216 6  99004558.195 6  24177902.273                    24177911.648
 109118193.596 8  85027241.511 8  20764488.875                    20764496.387
 109290939.084 8  85161891.72046  20797351.656                    20797356.840
 119060600.371 7  92774543.171 7  22656479.578                    22656489.297
 11  8 18  1 13  0.0000000  0  8G30G10G04G12G17G05G02G25
 116657014.260 7  90901632.82245  22199096.258                    22199103.555
 112188925.391 7  87420047.41145  21348819.781                    21348827.066
 121172966.297 7  94420617.59744  23058427.492                    23058436.469
 109231142.170 8  85115235.360 7  20785995.711                    20786002.262
 127123880.506 6  99057515.791 6  24190835.391                    24190844.441
 109064834.739 8  84985663.210 8  20754335.023                    20754342.379
 109311727.331 8  85178090.35546  20801307.320                    20801312.238
 118986293.719 8  92716641.938 7  22642339.320                    22642349.195
 11  8 18  1 13 30.0000000  0  8G30G10G04G12G17G05G02G25
 116595407.743 7  90853627.78945  22187372.406                    22187380.410
 112242311.311 7  87461646.82945  21358979.055                    21358986.496
 121255308.151 7  94484780.08144  23074096.359                    23074105.313
 109216715.818 8  85103994.044 7  20783250.602                    20783257.160
 127192028.697 7  99110618.239 6  24203803.797                    24203813.004
 109011990.552 8  84944485.945 8  20744279.297                    20744286.484
 109332701.276 8  85194433.68846  20805298.586                    20805303.723
 118912389.852 8  92659054.561 7  22628276.094                    22628285.805
 11  8 18  1 14  0.0000000  0  8G30G10G04G12G17G05G02G25
 116534309.948 7  90806019.16645  22175745.859                    22175753.723
 112296239.841 7  87503669.07045  21369241.117                    21369248.750
 121337648.794 7  94548941.60144  23089765.180                    23089774.379
 109202863.608 8  85093200.115 7  20780614.813                    20780621.477
 127260363.361 7  99163866.017 6  24216807.406                    24216816.645
 108959662.996 8  84903711.251 8  20734321.633                    20734328.770
 109353860.463 8  85210921.37746  20809324.875                    20809329.871
 118838891.556 7  92601783.222 7  22614289.156                    22614299.227
 11  8 18  1 14 30.0000000  0  8G30G10G04G12G17G05G02G25
 116473723.224 7  90758808.77345  22164216.359                    22164224.492
 112350709.210 7  87546112.73345  21379606.180                    21379613.613
 121419987.303 7  94613101.47644  23105434.258                    23105442.820
 109189586.593 8  85082854.388 7  20778088.336                    20778094.590
 127328884.538 6  99217259.092 6  24229846.445                    24229856.250
 108907853.713 8  84863340.405 7  20724462.563                    20724469.973
 109375203.794 8  85227552.55246  20813386.625                    20813391.797
 118765801.395 8  92544829.900 7  22600380.914                    22600391.090
 11  8 18  1 15  0.0000000  0  8G30G10G04G12G17G05G02G25
 116413649.401 7  90711998.03045  22152785.023                    22152792.434
 112405717.076 7  87588975.99745  21390074.141                    21390081.563
 121502322.563 7  94677258.80944  23121101.883                    23121110.711
 109176884.977 8  85072957.028 7  20775671.102                    20775677.621
 127397592.179 6  99270797.460 6  24242920.180                    24242930.492
 108856564.173 8  84823374.551 8  20714702.203                    20714709.777
 109396730.117 8  85244326.31746  20817482.758                    20817487.836
 118693121.676 7  92488196.398 7  22586550.492                    22586560.582
 11  8 18  1 15 30.0000000  0  8G30G10G04G12G17G05G02G25
 116354090.610 7  90665588.62545  22141450.961                    22141458.930
 112461261.127 8  87632257.08145  21400643.398                    21400650.957
 121584653.379 7  94741412.66744  23136769.102                    23136777.488
 109164759.757 8  85063508.796 7  20773363.688                    20773370.375
 127466486.276 6  99324481.158 6  24256030.891                    24256041.246
 108805796.142 8  84783815.065 7  20705041.477                    20705049.004
 109418438.334 8  85261241.81346  20821613.633                    20821618.684
 118620854.762 7  92431884.567 7  22572797.805                    22572808.160
 11  8 18  1 16  0.0000000  0  8G30G10G04G12G17G05G02G25
 116295048.773 7  90619582.01045  22130215.938                    22130223.688
 112517339.165 8  87675954.23945  21411314.742                    21411322.313
 121666978.685 7  94805562.23444  23152435.320                    23152442.957
 109153210.956 8  85054509.726 7  20771166.164                    20771172.715
 127535567.163 6  99378310.423 6  24269176.234                    24269186.391
 108755551.012 8  84744663.048 7  20695479.984                    20695487.488
 109440327.269 8  85278298.12746  20825778.875                    20825784.004
 118549003.016 7  92375896.245 7  22559125.445                    22559134.988
 11  8 18  1 16 30.0000000  0  8G30G10G04G12G17G05G02G25
 116236525.790 7  90573979.70545  22119079.547                    22119087.168
 112573949.013 7  87720065.81845  21422087.445                    21422095.047
 121749297.396 7  94869706.68245  23168100.188                    23168108.574
 109142239.213 8  85045960.327 7  20769078.070                    20769084.676
 127604834.356 6  99432284.861 5  24282357.523                    24282367.418
 108705830.497 8  84705919.821 7  20686018.773                    20686025.516
 109462395.418 8  85295494.10147  20829978.422                    20829983.836
 118477568.613 7  92320233.128 7  22545532.000                    22545541.363
 11  8 18  1 17  0.0000000  0  8G30G10G04G12G17G05G02G25
 116178524.072 7  90528783.56145  22108042.141                    22108049.984
 112631088.903 7  87764590.41745  21432960.875                    21432968.094
 121831608.475 7  94933845.18145  23183763.000                    23183771.863
 109131845.681 8  85037861.462 7  20767100.359                    20767106.973
 127674288.375 6  99486404.884 5  24295574.133                    24295584.195
 108656636.151 8  84667586.606 7  20676656.992                    20676664.090
 109484642.350 8  85312829.37747  20834211.969                    20834217.063
 118406554.341 7  92264897.376 7  22532018.609                    22532027.973
 11  8 18  1 17 30.0000000  0  9G30G10G04G29G12G17G05G02G25
 116121045.426 7  90483995.01745  22097104.375                    22097111.945
 112688756.579 8  87809526.27745  21443934.633                    21443941.961
 121913910.980 7  94997976.97344  23199425.180                    23199433.836
 129557483.95716 100953907.32215  24653969.766                    24653978.230
 109122030.725 8  85030213.450 7  20765232.664                    20765239.090
 127743928.982 6  99540670.294 5  24308826.297                    24308835.992
 108607969.373 8  84629664.493 7  20667396.539                    20667403.223
 109507066.733 8  85330302.92447  20838479.109                    20838484.313
 118335962.457 7  92209890.753 7  22518584.867                    22518594.484
 11  8 18  1 18  0.0000000  0  9G30G10G04G29G12G17G05G02G25
 116064092.632 7  90439616.22245  22086266.539                    22086274.250
 112746950.385 8  87854872.10945  21455008.742                    21455016.047
 121996204.508 6  95062101.79644  23215084.313                    23215092.852
 129478021.639 6 100891988.760 6  24638849.219                    24638857.301
 109112795.643 8  85023017.283 7  20763475.273                    20763481.586
 127813756.837 6  99595081.568 5  24322114.789                    24322123.887
 108559832.803 8  84592155.529 7  20658236.344                    20658243.348
 109529668.301 8  85347914.54247  20842779.938                    20842785.391
 118265795.930 7  92155215.580 7  22505232.508                    22505242.230
 11  8 18  1 18 30.0000000  0  9G30G10G04G29G12G17G05G02G25
 116007667.110 7  90395648.28745  22075529.008                    22075536.598
 112805668.254 8  87900626.29545  21466182.336                    21466189.695
 122078487.956 6  95126218.77944  23230741.945                    23230751.398
 129398482.301 6 100830010.103 6  24623713.383                    24623721.016
 109104140.598 8  85016273.093 7  20761828.094                    20761834.730
 127883771.478 6  99649638.386 5  24335437.625                    24335446.289
 108512227.339 8  84555060.417 8  20649177.289                    20649184.133
 109552445.504 8  85365663.02047  20847114.430                    20847119.898
 118196056.862 7  92100873.490 7  22491961.758                    22491971.426
 11  8 18  1 19  0.0000000  0  9G30G10G04G29G12G17G05G02G25
 115951770.686 7  90352092.62645  22064892.445                    22064900.191
 112864907.150 8  87946786.47345  21477455.547                    21477462.242
 122160759.513 6  95190326.48443  23246398.031                    23246407.027
 129318866.006 7 100767971.547 5  24608563.102                    24608571.523
 109096065.695 8  85009980.962 7  20760291.680                    20760298.273
 127953972.583 6  99704340.546 5  24348796.555                    24348804.891
 108465154.175 8  84518380.059 8  20640219.250                    20640226.363
 109575396.999 8  85383547.31247  20851481.961                    20851487.336
 118126747.199 7  92046865.991 7  22478772.391                    22478781.922
 11  8 18  1 19 30.0000000  0  9G30G10G04G29G12G17G05G02G25
 115896405.035 7  90308950.54744  22054356.789                    22054363.953
 112924664.546 8  87993350.67845  21488826.531                    21488833.820
 122243018.249 6  95254424.18443  23262050.969                    23262059.988
 129239172.979 6 100705873.153 5  24593398.234                    24593406.352
 109088571.521 8  85004141.342 7  20758865.484                    20758872.156
 128024360.151 6  99759187.994 5  24362191.461                    24362199.195
 108418614.496 8  84482115.414 8  20631363.344                    20631370.527
 109598521.229 8  85401566.20347  20855882.328                    20855887.578
 118057869.122 7  91993194.782 7  22465665.523                    22465674.898
 11  8 18  1 20  0.0000000  0  9G30G10G04G29G12G17G05G02G25
 115841572.175 7  90266223.63745  22043922.172                    22043929.566
 112984938.353 8  88040317.29145  21500296.477                    21500303.941
 122325263.283 6  95318511.20443  23277701.547                    23277710.844
 129159404.154 6 100643715.709 5  24578218.344                    24578226.414
 109081658.122 8  84998754.278 7  20757549.836                    20757556.449
 128094934.319 7  99814180.800 5  24375621.313                    24375629.531
 108372610.099 8  84446267.860 8  20622608.844                    20622615.938
 109621817.773 8  85419719.36447  20860315.461                    20860320.918
 117989425.088 7  91939861.783 7  22452640.602                    22452650.539
 11  8 18  1 20 30.0000000  0  9G30G10G04G29G12G17G05G02G25
 115787273.727 7  90223913.15445  22033589.609                    22033596.652
 113045726.018 8  88087684.31045  21511863.961                    21511870.750
 122407493.444 6  95382586.63543  23293350.430                    23293358.785
 129079559.815 6 100581499.390 5  24563024.164                    24563032.320
 109075325.548 8  84993819.798 7  20756344.945                    20756351.535
 128165694.632 7  99869318.772 5  24389086.305                    24389094.629
 108327142.041 8  84410838.223 8  20613956.125                    20613963.586
 109645284.754 8  85438005.33647  20864780.992                    20864786.328
 117921417.069 7  91886868.532 7  22439699.133                    22439709.234
 11  8 18  1 21  0.0000000  0  9G30G10G04G29G12G17G05G02G25
 115733512.070 7  90182020.96245  22023359.016                    22023366.961
 113107025.650 8  88135450.27945  21523528.945                    21523535.688
 122489708.001 7  95446649.90844  23308995.891                    23309003.742
 128999640.778 6 100519224.858 5  24547815.742                    24547823.730
 109069574.941 8  84989338.801 7  20755250.820                    20755257.211
 128236641.588 7  99924602.059 6  24402586.797                    24402596.043
 108282212.111 8  84375827.909 8  20605406.242                    20605413.836
 109668921.931 8  85456423.93047  20869279.141                    20869284.422
 117853847.840 7  91834217.191 7  22426841.492                    22426851.332
 11  8 18  1 21 30.0000000  0  9G30G10G04G29G12G17G05G02G25
 115680288.713 7  90140548.21545  22013230.711                    22013238.637
 113168834.873 8  88183613.32445  21535290.352                    21535297.719
 122571905.966 7  95510700.28544  23324637.297                    23324645.594
 128919647.485 6 100456892.474 4  24532593.852                    24532601.965
 109064406.456 8  84985311.414 7  20754267.219                    20754273.789
 128307774.738 7  99980030.462 6  24416123.469                    24416132.691
 108237821.269 8  84341237.671 7  20596959.211                    20596966.738
 109692727.813 8  85474973.97347  20873809.297                    20873814.332
 117786719.444 7  91781909.352 7  22414067.297                    22414077.055
 11  8 18  1 22  0.0000000  0  9G30G10G04G29G12G17G05G02G25
 115627605.502 7  90099496.39245  22003205.539                    22003213.219
 113231151.253 7  88232171.54745  21547148.750                    21547156.563
 122654086.434 6  95574737.03444  23340275.969                    23340284.086
 128839580.245 6 100394502.451 4  24517357.188                    24517365.875
 109059820.565 8  84981737.994 7  20753394.156                    20753400.641
 128379094.292 7 100035604.139 6  24429694.805                    24429704.371
 108193971.007 8  84307068.655 7  20588614.836                    20588621.648
 109716701.126 8  85493654.47847  20878371.078                    20878376.180
 117720034.129 7  91729946.760 7  22401377.820                    22401387.180
 11  8 18  1 22 30.0000000  0  9G30G10G04G29G12G17G05G02G25
 115575464.246 7  90058866.85644  21993283.391                    21993290.699
 113293972.437 7  88281123.10845  21559103.398                    21559110.891
 122736248.320 6  95638759.28844  23355909.766                    23355919.066
 128759440.090 6 100332055.621 4  24502106.773                    24502116.453
 109055817.391 7  84978618.633 8  20752632.766                    20752639.180
 128450599.953 7 100091322.820 6  24443302.102                    24443311.738
 108150662.939 8  84273322.136 7  20580373.711                    20580380.543
 109740841.227 8  85512464.94847  20882965.078                    20882970.102
 117653794.253 7  91678331.279 7  22388772.531                    22388782.402
 11  8 18  1 23  0.0000000  0  9G30G10G04G29G12G17G05G02G25
 115523867.063 7  90018661.29644  21983464.758                    21983472.305
 113357296.243 7  88330466.33845  21571153.641                    21571161.109
 122818390.952 6  95702766.54344  23371541.125                    23371550.410
 128679227.708 6 100269552.556 4  24486842.836                    24486851.926
 109052397.201 7  84975953.546 7  20751981.711                    20751988.566
 128522291.726 7 100147186.529 6  24456944.250                    24456954.602
 108107898.337 8  84239999.114 8  20572235.477                    20572242.828
 109765147.281 8  85531404.73547  20887590.313                    20887594.898
 117588002.235 7  91627064.781 7  22376252.289                    22376262.367
 11  8 18  1 23 30.0000000  0  9G30G10G04G29G12G17G05G02G25
 115472815.540 7  89978880.91444  21973749.625                    21973757.605
 113421120.122 7  88380199.23845  21583298.602                    21583306.219
 122900513.424 6  95766758.08544  23387168.484                    23387177.559
 128598943.458 6 100206993.489 5  24471565.508                    24471574.723
 109049560.565 7  84973743.186 8  20751441.969                    20751448.426
 128594169.537 6 100203195.190 6  24470622.398                    24470631.895
 108065678.384 8  84207100.488 7  20564201.445                    20564208.652
 109789618.189 8  85550472.98247  20892246.773                    20892251.984
 117522660.197 7  91576148.918 7  22363818.500                    22363828.184
 11  8 18  1 24  0.0000000  0  9G30G10G04G29G12G17G05G02G25
 115422311.156 7  89939526.88745  21964139.070                    21964146.742
 113485441.807 7  88430320.04745  21595538.891                    21595546.082
 122982614.372 6  95830732.87744  23402792.406                    23402800.309
 128518587.810 7 100144378.734 5  24456273.766                    24456283.176
 109047307.106 8  84971987.241 8  20751013.188                    20751019.664
 128666233.369 6 100259348.804 6  24484335.883                    24484345.227
 108024003.975 8  84174626.960 8  20556271.008                    20556277.938
 109814252.478 8  85569668.54747  20896934.844                    20896939.461
 117457770.082 7  91525585.230 7  22351470.172                    22351480.363
 11  8 18  1 24 30.0000000  0  9G30G10G04G29G12G17G05G02G25
 115372355.997 7  89900600.82945  21954633.461                    21954640.566
 113550259.108 7  88480827.04645  21607872.883                    21607880.273
 123064693.506 6  95894690.69844  23418411.289                    23418419.480
 128438161.673 6 100081709.098 5  24440969.531                    24440978.352
 109045637.645 8  84970686.361 8  20750695.281                    20750701.926
 128738483.078 6 100315647.291 6  24498084.117                    24498093.484
 107982876.937 8  84142579.953 8  20548444.703                    20548452.023
 109839049.620 8  85588991.00247  20901653.273                    20901658.527
 117393334.529 7  91475375.735 7  22339208.664                    22339217.957
 11  8 18  1 25  0.0000000  0  9G30G10G04G29G12G17G05G02G25
 115322952.085 7  89862104.31845  21945232.016                    21945239.410
 113615569.830 7  88531718.53145  21620301.023                    21620308.773
 123146750.011 6  95958630.82243  23434025.906                    23434034.871
 128357665.946 6 100018985.223 5  24425651.969                    24425660.492
 109044552.620 8  84969840.895 7  20750489.094                    20750495.379
 128810918.720 6 100372090.635 6  24511867.609                    24511877.984
 107942298.677 8  84110960.563 8  20540723.063                    20540730.172
 109864008.549 8  85608439.52547  20906402.859                    20906407.672
 117329355.929 7  91425522.310 7  22327033.781                    22327043.137
 11  8 18  1 25 30.0000000  0  8G30G10G04G29G12G05G02G25
 115274100.454 8  89824038.16245  21935935.641                    21935942.996
 113681370.909 7  88582992.10945  21632822.430                    21632830.500
 123228782.437 6  96022552.18643  23449636.063                    23449645.469
 128277100.779 7  99956207.198 6  24410320.547                    24410329.563
 109044051.501 8  84969450.421 7  20750393.492                    20750400.242
 107902269.701 8  84079769.178 8  20533105.375                    20533113.004
 109889127.685 8  85628012.88747  20911182.547                    20911187.508
 117265835.989 7  91376026.294 7  22314946.453                    22314955.871
 11  8 18  1 26  0.0000000  0  8G30G10G04G29G12G05G02G25
 115225803.384 8  89786404.11445  21926745.250                    21926752.098
 113747660.821 7  88634646.57545  21645437.547                    21645445.055
 123310790.862 6  96086454.83744  23465242.313                    23465251.059
 128196467.379 7  99893376.033 6  24394976.969                    24394985.625
 109044135.368 8  84969515.780 7  20750409.570                    20750416.207
 107862791.871 8  84049007.261 8  20525593.117                    20525600.383
 109914407.316 8  85647711.31647  20915993.414                    20915998.270
 117202777.409 7  91326889.800 7  22302947.016                    22302956.656
 11  8 18  1 26 30.0000000  0  8G30G10G04G29G12G05G02G25
 115178062.198 8  89749203.24345  21917660.422                    21917667.340
 113814436.173 7  88686679.31845  21658144.289                    21658151.406
 123392773.548 6  96150337.47944  23480842.727                    23480851.352
 128115766.066 7  99830491.963 6  24379619.961                    24379628.352
 109044803.611 8  84970036.500 7  20750536.742                    20750543.805
 107823865.918 8  84018675.371 8  20518185.922                    20518192.809
 109939845.561 8  85667533.33947  20920834.016                    20920839.047
 117140181.924 7  91278114.134 7  22291035.289                    22291044.832
 11  8 18  1 27  0.0000000  0  8G30G10G04G29G12G05G02G25
 115130878.111 8  89712436.45745  21908681.297                    21908688.398
 113881694.281 7  88739088.24145  21670942.594                    21670949.918
 123474729.576 6  96214199.33543  23496438.156                    23496447.738
 128034997.182 7  99767555.243 6  24364249.563                    24364258.613
 109046055.884 8  84971012.310 7  20750775.148                    20750781.520
 107785492.763 8  83988774.247 8  20510883.836                    20510890.695
 109965441.065 8  85687477.90247  20925704.547                    20925709.938
 117078051.393 7  91229700.783 7  22279212.281                    22279221.941
 11  8 18  1 27 30.0000000  0  8G30G10G04G29G12G05G02G25
 115084252.997 8  89676105.23045  21899809.031                    21899816.188
 113949433.141 7  88791871.76445  21683833.336                    21683840.359
 123556658.473 6  96278040.03543  23512029.102                    23512038.230
 127954161.746 7  99704566.666 6  24348867.859                    24348875.770
 109047892.621 8  84972443.547 7  20751124.414                    20751131.047
 107747673.635 8  83959304.836 7  20503687.250                    20503694.059
 109991193.236 8  85707544.54047  20930605.117                    20930610.305
 117016388.249 7  91181651.619 7  22267477.719                    22267487.348
 11  8 18  1 28  0.0000000  0  8G30G10G04G29G12G05G02G25
 115038188.440 8  89640210.80745  21891043.516                    21891050.355
 114017650.053 7  88845027.79745  21696814.852                    21696821.613
 123638559.313 6  96341858.85743  23527614.039                    23527622.410
 127873260.516 6  99641526.822 6  24333472.367                    24333480.949
 109050313.852 8  84974330.233 7  20751585.516                    20751592.133
 107710409.483 8  83930267.872 8  20496596.000                    20496602.867
 110017101.007 8  85727732.42846  20935535.242                    20935540.297
 116955194.547 7  91133968.260 7  22255832.297                    22255842.789
 11  8 18  1 28 30.0000000  0  8G30G10G04G29G12G05G02G25
 114992685.677 8  89604754.13145  21882384.547                    21882391.336
 114086342.311 7  88898554.21545  21709886.617                    21709893.621
 123720431.042 6  96405655.02844  23543193.977                    23543202.371
 127792293.909 6  99578436.012 6  24318064.656                    24318073.676
 109053319.228 8  84976672.094 7  20752157.391                    20752163.996
 107673701.322 8  83901664.151 8  20489610.758                    20489617.313
 110043162.974 8  85748040.46246  20940494.711                    20940499.453
 116894472.143 7  91086652.158 7  22244277.719                    22244287.672
 11  8 18  1 29  0.0000000  0  8G30G10G04G29G12G05G02G25
 114947746.431 8  89569736.55545  21873832.547                    21873839.980
 114155507.327 8  88952449.04545  21723048.414                    21723055.918
 123802272.889 6  96469427.90843  23558767.859                    23558776.301
 127711262.551 6  99515294.787 6  24302644.570                    24302653.418
 109056908.891 8  84979469.236 7  20752840.047                    20752846.789
 107637550.119 8  83873494.430 7  20482731.078                    20482737.969
 110069378.249 8  85768467.96446  20945483.344                    20945488.059
 116834223.142 7  91039704.928 7  22232812.789                    22232823.066
 11  8 18  1 29 30.0000000  0  8G30G10G04G29G12G05G02G25
 114903372.770 8  89535159.68445  21865388.594                    21865395.852
 114225143.404 8  89006710.92545  21736298.805                    21736306.762
 123884084.741 7  96533177.39644  23574336.680                    23574344.566
 127630167.611 5  99452104.031 6  24287212.836                    24287221.254
 109061083.476 8  84982722.166 7  20753634.703                    20753640.984
 107601957.560 8  83845760.017 7  20475957.805                    20475964.574
 110095746.818 8  85789014.91246  20950500.953                    20950506.293
 116774450.322 7  90993128.741 7  22221437.984                    22221448.590
 11  8 18  1 30  0.0000000  0  8G30G10G04G29G12G05G02G25
 114859566.152 8  89501024.67945  21857052.539                    21857059.961
 114295248.055 7  89061337.92045  21749640.117                    21749647.656
 123965865.621 7  96596902.76844  23589898.133                    23589907.293
 127549010.096 5  99388864.455 6  24271768.414                    24271777.207
 109065842.827 8  84986430.758 7  20754540.523                    20754546.980
 107566924.674 8  83818461.701 8  20469291.273                    20469298.137
 110122267.669 8  85809680.51846  20955547.891                    20955553.113
 116715155.605 7  90946925.111 7  22210155.438                    22210164.242
 11  8 18  1 30 30.0000000  0  8G30G10G04G29G12G05G02G25
 114816327.553 8  89467332.27945  21848824.234                    21848832.039
 114365817.885 7  89116327.41045  21763068.695                    21763076.125
 124047614.513 6  96660603.18043  23605454.344                    23605463.629
 127467790.238 6  99325576.342 6  24256312.867                    24256321.672
 109071186.431 8  84990594.603 7  20755557.203                    20755564.012
 107532451.731 8  83791599.700 8  20462731.102                    20462738.113
 110148939.179 8  85830463.52446  20960623.313                    20960628.379
 116656340.652 7  90901095.318 7  22198962.875                    22198972.688
 11  8 18  1 31  0.0000000  0  8G30G10G04G29G12G05G02G25
 114773658.355 8  89434083.54845  21840704.484                    21840712.227
 114436850.184 7  89171677.25145  21776586.133                    21776593.258
 124129330.314 7  96724277.80343  23621004.289                    23621013.547
 127386508.600 5  99262240.048 6  24240845.367                    24240854.172
 109077113.944 8  84995213.446 7  20756685.406                    20756691.871
 107498539.666 8  83765174.747 8  20456277.766                    20456284.910
 110175760.102 8  85851362.94146  20965727.195                    20965732.012
 116598007.311 7  90855640.804 7  22187862.875                    22187872.063
 11  8 18  1 31 30.0000000  0  8G30G10G04G29G12G05G02G25
 114731559.628 8  89401279.35045  21832693.266                    21832700.707
 114508342.463 7  89227385.55045  21790190.109                    21790197.832
 124211012.229 7  96787926.02843  23636548.539                    23636556.836
 127305165.733 6  99198856.044 6  24225366.281                    24225374.945
 109083625.062 8  85000287.035 7  20757924.313                    20757931.086
 107465189.490 8  83739187.616 8  20449931.438                    20449938.852
 110202729.345 8  85872377.95546  20970859.031                    20970864.070
 116540157.347 7  90810562.939 7  22176854.570                    22176863.805
 11  8 18  1 32  0.0000000  0  8G30G10G04G29G12G05G02G25
 114690033.755 8  89368921.51645  21824791.586                    21824798.980
 114580293.064 7  89283450.97245  21803881.906                    21803889.855
 124292660.191 7  96851547.76644  23652085.938                    23652094.305
 127223763.411 6  99135425.718 6  24209875.922                    24209885.133
 109090720.514 8  85005815.943 7  20759274.609                    20759280.805
 107432402.316 8  83713639.186 8  20443692.617                    20443699.598
 110229847.079 8  85893508.66846  20976019.586                    20976024.547
 116482793.695 7  90765864.012 7  22165938.109                    22165947.547
 11  8 18  1 32 30.0000000  0  8G30G10G04G29G12G05G02G25
 114649081.491 8  89337010.66845  21816998.359                    21817005.734
 114652698.487 7  89339870.80245  21817660.219                    21817667.992
 124374273.068 7  96915142.16143  23667616.344                    23667624.066
 127142301.591 6  99071949.026 5  24194375.086                    24194383.582
 109098399.178 8  85011799.311 7  20760735.648                    20760742.352
 107400178.701 8  83688529.901 8  20437560.477                    20437567.414
 110257111.553 8  85914753.71546  20981207.852                    20981212.809
 116425917.696 7  90721545.072 7  22155115.047                    22155124.715
 11  8 18  1 33  0.0000000  0  8G30G10G04G29G12G05G02G25
 114608704.394 8  89305547.99045  21809314.680                    21809322.348
 114725556.432 7  89396643.23645  21831524.195                    21831532.438
 124455850.224 7  96978708.73143  23683140.023                    23683147.594
 127060781.445 7  99008426.875 5  24178862.164                    24178869.941
 109106661.288 8  85018237.307 7  20762307.961                    20762314.367
 107368519.734 8  83663860.602 8  20431536.195                    20431543.422
 110284522.310 7  85936112.76346  20986423.680                    20986428.813
 116369531.523 7  90677607.815 7  22144384.852                    22144394.543
 11  8 18  1 33 30.0000000  0  8G30G10G04G29G12G05G02G25
 114568903.365 8  89274534.20345  21801740.953                    21801748.477
 114798863.875 7  89453765.93545  21845474.781                    21845482.445
 124537390.805 7  97042246.77243  23698656.758                    23698664.676
 126979203.414 7  98944859.617 5  24163339.102                    24163345.684
 109115506.104 8  85025129.350 7  20763991.227                    20763997.672
 107337425.578 8  83639631.426 8  20425619.242                    20425626.156
 110312077.851 7  85957584.62146  20991667.523                    20991672.320
 116313636.790 8  90634053.485 7  22133748.445                    22133758.148
 11  8 18  1 34  0.0000000  0  8G30G10G04G29G12G05G02G25
 114529680.010 8  89243970.53545  21794277.031                    21794284.914
 114872618.244 7  89511236.86245  21859509.641                    21859517.117
 124618894.100 7  97105755.81043  23714165.602                    23714174.352
 126897568.411 7  98881247.983 5  24147803.188                    24147810.625
 109124933.547 8  85032475.392 7  20765785.070                    20765791.688
 107306897.614 8  83615843.433 8  20419809.969                    20419816.660
 110339777.463 7  85979168.74446  20996938.297                    20996943.664
 116258235.567 8  90590883.701 7  22123206.047                    22123215.625
 11  8 18  1 34 30.0000000  0  8G30G10G04G29G12G05G02G25
 114491035.603 8  89213858.00245  21786923.305                    21786930.523
 114946817.394 7  89569054.39345  21873629.492                    21873636.199
 124700359.452 7  97169235.30543  23729668.219                    23729676.594
 126815877.437 7  98817592.728 5  24132258.227                    24132265.293
 109134943.790 8  85040275.558 7  20767690.164                    20767696.609
 107276936.489 8  83592497.131 8  20414108.461                    20414115.352
 110367620.372 7  86000864.53146  21002236.836                    21002241.719
 116203329.877 8  90548100.055 7  22112757.727                    22112767.266
 11  8 18  1 35  0.0000000  0  8G30G10G04G29G12G05G02G25
 114452971.323 8  89184197.51345  21779680.023                    21779687.258
 115021458.202 7  89627216.06845  21887832.859                    21887839.711
 124781786.216 7  97232684.74043  23745163.781                    23745171.801
 126734131.308 7  98753894.467 5  24116702.266                    24116709.641
 109145535.641 8  85048528.926 7  20769705.563                    20769712.035
 107247542.855 8  83569593.035 8  20408514.984                    20408521.699
 110395605.522 7  86022671.15346  21007562.352                    21007567.230
 116148921.512 8  90505703.932 7  22102404.328                    22102413.426
 11  8 18  1 35 30.0000000  0  8G30G10G04G29G12G05G02G25
 114415488.458 8  89154990.07545  21772547.430                    21772553.961
 115096538.199 7  89685719.96645  21902120.313                    21902127.176
 124863173.869 7  97296103.67343  23760650.977                    23760660.449
 126652330.947 6  98690153.964 6  24101136.781                    24101143.988
 109156709.354 8  85057235.701 7  20771831.617                    20771838.289
 107218717.650 8  83547131.868 8  20403029.523                    20403036.445
 110423732.204 7  86044588.06546  21012914.188                    21012919.445
 116095012.474 8  90463696.889 7  22092146.094                    22092155.176
 11  8 18  1 36  0.0000000  0  8G30G10G04G29G12G05G02G25
 114378588.077 8  89126236.52445  21765525.352                    21765532.348
 115172054.626 7  89744563.94345  21916490.453                    21916497.836
 124944521.424 7  97359491.43343  23776131.594                    23776139.289
 126570476.961 6  98626371.685 6  24085559.961                    24085567.719
 109168464.159 8  85066395.272 7  20774068.961                    20774075.383
 107190461.236 8  83525113.918 8  20397652.227                    20397659.293
 110451999.216 7  86066614.33246  21018293.711                    21018298.133
 116041604.412 8  90422080.214 7  22081982.547                    22081992.355
 11  8 18  1 36 30.0000000  0  8G30G10G04G29G12G05G02G25
 114342271.845 8  89097938.15645  21758614.383                    21758621.691
 115248005.060 7  89803746.08545  21930943.422                    21930950.750
 125025828.681 7  97422847.78543  23791603.203                    23791611.484
 126488570.597 6  98562548.575 6  24069973.695                    24069981.953
 109180800.243 8  85076007.790 7  20776416.156                    20776422.754
 107162774.554 8  83503539.907 8  20392383.945                    20392390.676
 110480406.202 8  86088749.65146  21023699.109                    21023703.980
 115988699.655 8  90380855.733 7  22071914.992                    22071924.672
 11  8 18  1 37  0.0000000  0  8G30G10G04G29G12G05G02G25
 114306540.173 8  89070095.29245  21751814.727                    21751822.055
 115324386.270 7  89863263.90045  21945478.344                    21945485.836
 125107094.530 7  97486171.78843  23807067.539                    23807075.965
 126406612.174 6  98498684.905 6  24054377.617                    24054385.406
 109193716.393 8  85086072.309 7  20778874.148                    20778880.555
 107135657.954 8  83482410.112 8  20387223.633                    20387231.031
 110508951.546 7  86110992.80446  21029131.133                    21029136.293
 115936299.347 8  90340024.329 7  22061943.297                    22061953.262
 11  8 18  1 37 30.0000000  0  8G30G10G04G29G12G05G02G25
 114271394.630 8  89042709.14445  21745126.883                    21745134.328
 115401195.779 7  89923115.46945  21960094.422                    21960102.004
 125188318.558 6  97549463.23243  23822524.047                    23822532.285
 126324602.903 6  98434781.650 6  24038772.000                    24038780.070
 109207212.736 8  85096588.942 7  20781442.227                    20781448.918
 107109112.176 8  83461725.116 8  20382171.719                    20382178.988
 110537634.845 8  86133343.44546  21034589.445                    21034594.371
 115884405.691 8  90299587.728 7  22052068.102                    22052078.398
 11  8 18  1 38  0.0000000  0  8G30G10G04G29G12G05G02G25
 114236836.672 8  89015780.85545  21738550.672                    21738558.031
 115478431.548 7  89983299.19445  21974792.063                    21974799.191
 125269500.321 6  97612721.75043  23837970.961                    23837980.328
 126242544.017 6  98370839.702 6  24023156.289                    24023164.648
 109221288.904 8  85107557.381 7  20784120.891                    20784127.715
 107083138.200 8  83441485.681 8  20377229.188                    20377236.152
 110566455.653 8  86155801.23046  21040073.672                    21040078.523
 115833020.862 8  90259547.593 7  22042290.375                    22042299.836
 11  8 18  1 38 30.0000000  0  8G30G10G04G29G12G05G02G25
 114202866.711 7  88989310.75845  21732086.523                    21732093.867
 115556090.011 7  90043812.30445  21989569.930                    21989577.461
 125350638.875 6  97675946.61843  23853411.703                    23853420.848
 126160435.545 5  98306859.138 6  24007531.172                    24007539.992
 109235943.907 8  85118976.875 8  20786909.352                    20786916.203
 107057736.015 8  83421691.795 8  20372395.250                    20372402.301
 110595412.180 8  86178364.77046  21045584.188                    21045589.043
 115782145.946 8  90219904.814 7  22032609.039                    22032618.684
 11  8 18  1 39  0.0000000  0  8G30G10G04G29G12G05G02G25
 114169486.359 7  88963300.09345  21725734.477                    21725741.387
 115634168.718 7  90104652.87145  22004427.320                    22004435.027
 125431734.058 6  97739137.67843  23868843.484                    23868852.156
 126078279.246 5  98242841.264 6  23991897.625                    23991905.797
 109251177.258 8  85130847.024 7  20789808.469                    20789815.027
 107032906.743 8  83402344.326 8  20367670.625                    20367677.207
 110624504.414 8  86201034.04846  21051120.125                    21051125.020
 115731783.307 8  90180661.198 7  22023025.523                    22023034.949
 11  8 18  1 39 30.0000000  0  8G30G10G04G29G12G05G02G25
 114136696.571 7  88937749.60745  21719494.664                    21719501.813
 115712665.148 7  90165818.93245  22019364.805                    22019372.695
 125512785.115 6  97802294.36643  23884267.742                    23884276.703
 125996075.873 5  98178786.724 6  23976254.078                    23976263.023
 109266988.711 8  85143167.636 8  20792817.250                    20792824.141
 107008650.564 8  83383443.439 8  20363055.008                    20363061.609
 110653731.336 8  86223808.27846  21056681.766                    21056686.578
 115681934.524 8  90141817.997 7  22013539.563                    22013549.051
 11  8 18  1 40  0.0000000  0  8G30G10G04G29G12G05G02G25
 114104497.919 7  88912659.75045  21713367.664                    21713374.648
 115791576.272 7  90227308.11245  22034381.484                    22034388.816
 125593791.095 6  97865415.88244  23899682.039                    23899691.945
 125913826.023 6  98114695.942 6  23960602.867                    23960611.488
 109283377.761 8  85155938.328 8  20795936.234                    20795942.578
 106984967.857 8  83364989.406 8  20358548.164                    20358555.066
 110683091.765 8  86246686.54546  21062269.039                    21062273.500
 115632600.894 8  90103376.219 7  22004151.680                    22004161.051
 11  8 18  1 40 30.0000000  0  8G30G10G04G29G12G05G02G25
 114072891.200 7  88888031.13945  21707353.109                    21707360.387
 115870898.886 7  90289117.93845  22049476.180                    22049483.383
 125674751.320 7  97928501.77544  23915088.719                    23915098.242
 125831530.671 6  98050569.687 6  23944942.516                    23944951.805
 109300342.656 8  85169157.746 8  20799164.453                    20799171.125
 106961858.558 8  83346982.199 8  20354150.719                    20354157.602
 110712584.475 8  86269667.88245  21067881.250                    21067886.094
 115583784.012 8  90065337.103 7  21994861.820                    21994871.676
 11  8 18  1 41  0.0000000  0  8G30G10G04G29G12G05G02G25
 114041878.288 8  88863865.25045  21701451.648                    21701459.031
 115950631.163 7  90351246.98845  22064648.898                    22064655.953
 125755665.996 6  97991552.19744  23930487.023                    23930495.629
 125749191.179 6  97986409.032 6  23929274.086                    23929282.426
 109317883.813 8  85182826.194 8  20802502.109                    20802508.938
 106939324.219 8  83329422.996 8  20349862.266                    20349869.055
 110742209.818 8  86292752.55946  21073518.547                    21073523.309
 115535486.389 8  90027702.604 7  21985670.992                    21985680.691
 11  8 18  1 41 30.0000000  0  8G30G10G04G29G12G05G02G25
 114011458.860 8  88840161.82345  21695662.563                    21695669.781
 116030769.224 7  90413692.24445  22079898.711                    22079905.375
 125836533.392 7  98054565.74744  23945874.758                    23945884.035
 125666807.885 6  97922214.229 6  23913596.883                    23913605.449
 109335999.559 8  85196942.381 8  20805949.711                    20805956.313
 106917363.946 8  83312311.128 8  20345683.727                    20345690.574
 110771965.366 8  86315938.68546  21079181.133                    21079185.816
 115487708.499 8  89990473.094 7  21976579.555                    21976589.426
 11  8 18  1 42  0.0000000  0  8G30G10G04G29G12G05G02G25
 113981634.304 8  88816921.93245  21689987.313                    21689994.664
 116111310.728 7  90476451.85445  22095224.945                    22095231.949
 125917353.255 7  98117542.27644  23961254.578                    23961263.480
 125584382.050 6  97857986.278 6  23897912.008                    23897920.855
 109354690.490 8  85211506.753 8  20809506.703                    20809512.801
 106895978.696 8  83295647.326 8  20341614.125                    20341620.938
 110801851.122 8  86339226.28346  21084868.133                    21084873.102
 115440452.468 8  89953650.225 7  21967587.266                    21967596.574
 11  8 18  1 42 30.0000000  0  8G30G10G04G29G12G05G02G25
 113952405.846 8  88794146.54245  21684425.359                    21684432.742
 116192253.228 7  90539523.93745  22110628.055                    22110634.848
 125998125.633 7  98180481.82544  23976624.820                    23976634.184
 125501914.890 6  97793726.108 6  23882219.328                    23882227.164
 109373955.131 8  85226518.172 8  20813172.391                    20813178.824
 106875169.123 8  83279432.115 8  20337654.211                    20337661.223
 110831866.615 8  86362614.98546  21090579.766                    21090584.582
 115393720.220 8  89917235.488 7  21958694.055                    21958703.445
 11  8 18  1 43  0.0000000  0  8G30G10G04G29G12G05G02G25
 113923774.363 7  88771836.32845  21678977.031                    21678984.180
 116273594.046 7  90602906.39845  22126106.570                    22126113.797
 126078849.810 7  98243383.76944  23991986.273                    23991995.098
 125419407.245 7  97729434.422 6  23866518.883                    23866526.848
 109393792.635 8  85241975.973 8  20816947.406                    20816953.773
 106854935.653 8  83263665.796 8  20333803.797                    20333810.590
 110862010.924 8  86386104.04145  21096316.008                    21096320.977
 115347513.431 8  89881230.223 6  21949901.234                    21949910.367
 11  8 18  1 43 30.0000000  0  8G30G10G04G29G12G05G02G25
 113895740.068 7  88749991.46645  21673642.266                    21673649.512
 116355329.706 7  90666596.52945  22141659.844                    22141667.625
 126159524.942 7  98306247.49943  24007338.344                    24007347.172
 125336859.744 7  97665111.709 6  23850810.930                    23850818.492
 109414201.967 8  85257879.368 8  20820831.094                    20820837.813
 106835277.941 8  83248348.121 8  20330063.133                    20330069.996
 110892282.566 8  86409692.32845  21102076.469                    21102081.543
 115301833.132 8  89845635.194 6  21941208.539                    21941218.039
 11  8 18  1 44  0.0000000  0  8G30G10G04G29G12G05G02G25
 113868304.601 7  88728613.22245  21668421.445                    21668428.992
 116437458.437 7  90730592.93245  22157288.547                    22157296.523
 126240151.021 6  98369073.00143  24022680.695                    24022689.750
 125254274.151 7  97600759.296 6  23835095.195                    23835102.387
 109435183.160 8  85274228.349 8  20824823.359                    20824829.953
 106816196.872 8  83233479.777 8  20326432.406                    20326438.836
 110922681.874 8  86433380.09146  21107861.141                    21107866.008
 115256681.616 8  89810452.215 6  21932616.484                    21932625.637
 11  8 18  1 44 30.0000000  0  8G30G10G04G29G12G05G02G25
 113841468.372 7  88707701.91845  21663314.531                    21663321.980
 116519976.783 7  90794892.95845  22172991.414                    22172998.832
 126320727.403 6  98431859.75343  24038014.688                    24038022.723
 125171651.164 7  97536377.777 6  23819372.625                    23819380.215
 109456735.378 8  85291022.281 7  20828925.234                    20828931.508
 106797692.438 8  83219060.767 8  20322910.656                    20322917.754
 110953207.676 8  86457166.43546  21113670.203                    21113675.074
 115212060.101 8  89775682.224 6  21924125.156                    21924134.668
 11  8 18  1 45  0.0000000  0  8G30G10G04G29G12G05G02G25
 113815231.781 7  88687257.87245  21658321.867                    21658329.102
 116602881.639 7  90859494.15045  22188767.789                    22188774.703
 126401253.328 6  98494607.17543  24053338.273                    24053346.336
 125088991.680 7  97471967.819 6  23803642.883                    23803650.215
 109478856.924 8  85308259.853 7  20833134.102                    20833141.070
 106779765.022 8  83205091.372 8  20319499.141                    20319506.055
 110983858.652 8  86481050.30346  21119502.805                    21119508.324
 115167969.865 8  89741326.226 6  21915735.102                    21915744.469
 11  8 18  1 45 30.0000000  0  8G30G10G04G29G12G05G02G25
 113789595.772 7  88667281.80445  21653443.141                    21653450.520
 116686170.259 7  90924394.38945  22204617.055                    22204624.145
 126481728.356 6  98557315.01242  24068651.930                    24068660.832
 125006296.520 6  97407530.066 6  23787906.078                    23787914.020
 109501547.312 8  85325940.667 7  20837451.891                    20837459.063
 106762414.564 8  83191571.560 8  20316197.305                    20316204.266
 111014634.187 8  86505031.23746  21125359.250                    21125364.145
 115124412.551 8  89707385.489 6  21907446.414                    21907455.969
 11  8 18  1 46  0.0000000  0  8G30G10G04G29G12G05G02G25
 113764561.249 7  88647774.42846  21648679.609                    21648687.047
 116769840.355 7  90989591.87545  22220538.977                    22220546.238
 126562152.334 5  98619983.12642  24083955.922                    24083964.449
 124923567.423 7  97343065.902 6  23772163.344                    23772171.039
 109524805.925 8  85344064.253 7  20841878.133                    20841884.914
 106745641.725 8  83178501.837 8  20313005.656                    20313012.508
 111045534.138 8  86529109.11746  21131239.414                    21131244.477
 115081389.924 8  89673861.394 6  21899259.773                    21899268.984
 11  8 18  1 46 30.0000000  0  8G30G10G04G29G12G05G02G25
 113740128.865 8  88628736.23946  21644029.961                    21644037.508
 116853889.014 7  91055084.35145  22236533.094                    22236540.340
 126642524.735 5  98682610.92742  24099249.516                    24099258.191
 124840805.479 7  97278576.134 6  23756414.266                    23756421.668
 109548631.860 8  85362629.903 7  20846412.313                    20846418.578
 106729446.215 8  83165881.973 8  20309923.891                    20309930.777
 111076557.594 8  86553283.24246  21137142.922                    21137148.176
 115038903.362 8  89640755.008 6  21891174.563                    21891184.293
 11  8 18  1 47  0.0000000  0  8G30G10G04G29G12G05G02G25
 113716298.929 8  88610167.48346  21639495.516                    21639502.711
 116938313.159 7  91120869.40545  22252598.352                    22252605.566
 126722844.743 6  98745197.93242  24114534.570                    24114542.746
 124758010.997 7  97214061.033 6  23740659.406                    23740667.227
 109573023.713 8  85381636.518 7  20851054.055                    20851060.629
 106713828.343 8  83153712.222 8  20306951.953                    20306958.785
 111107703.234 8  86577552.57246  21143069.742                    21143074.656
 114996953.996 8  89608067.220 7  21883191.719                    21883201.004
 11  8 18  1 47 30.0000000  0  8G30G10G04G29G12G05G02G25
 113693072.351 8  88592068.87546  21635075.461                    21635082.859
 117023110.126 7  91186944.97945  22268734.977                    22268742.047
 126803112.460 5  98807744.17842  24129806.781                    24129817.789
 124675185.796 7  97149521.996 7  23724897.805                    23724905.516
 109597980.896 8  85401083.649 7  20855803.195                    20855809.281
 106698788.378 8  83141992.784 8  20304089.750                    20304096.383
 111138971.066 8  86601917.12246  21149019.867                    21149024.844
 114955543.600 8  89575799.409 6  21875311.883                    21875321.543
 11  8 18  1 48  0.0000000  0  8G30G10G04G29G12G05G02G25
 113670449.549 8  88574440.73946  21630770.328                    21630777.992
 117108276.781 7  91253308.61745  22284941.500                    22284948.547
 126883327.065 6  98870248.98043  24145072.672                    24145081.598
 124592330.687 7  97084959.666 7  23709130.148                    23709138.805
 109623502.173 8  85420970.327 7  20860659.492                    20860666.383
 106684325.837 8  83130723.296 8  20301337.375                    20301344.383
 111170359.861 8  86626375.92946  21154992.813                    21154997.770
 114914673.374 8  89543952.509 7  21867534.328                    21867543.363
 11  8 18  1 48 30.0000000  0  8G30G10G04G29G12G05G02G25
 113648430.914 8  88557283.37746  21626580.547                    21626587.984
 117193810.095 7  91319957.98145  22301217.500                    22301224.844
 126963487.947 6  98932712.01343  24160326.906                    24160335.891
 124509446.600 7  97020374.777 7  23693358.352                    23693366.754
 109649586.309 8  85441295.604 7  20865623.344                    20865630.102
 106670440.885 8  83119903.874 8  20298695.484                    20298702.164
 111201868.698 8  86650928.28446  21160989.008                    21160993.523
 114874344.515 8  89512527.454 7  21859860.117                    21859869.145
 11  8 18  1 49  0.0000000  0  8G30G10G04G29G12G05G02G25
 113627016.922 8  88540597.15946  21622505.523                    21622512.477
 117279707.591 7  91386891.11445  22317563.469                    22317570.289
 127043594.763 6  98995132.87343  24175571.195                    24175580.391
 124426534.408 7  96955767.951 7  23677580.797                    23677588.445
 109676232.403 8  85462058.776 7  20870693.906                    20870700.371
 106657133.881 8  83109534.804 8  20296163.141                    20296170.031
 111233496.988 8  86675573.71446  21167007.461                    21167012.320
 114834558.407 8  89481525.309 7  21852288.930                    21852297.961
 11  8 18  1 49 30.0000000  0  8G30G10G04G29G12G05G02G25
 113606208.287 8  88524382.63546  21618546.141                    21618553.461
 117365966.579 7  91454105.92645  22333977.969                    22333985.004
 127123647.041 6  99057511.27143  24190804.508                    24190813.211
 124343595.805 7  96891140.552 7  23661797.594                    23661805.918
 109703439.367 8  85483258.992 7  20875871.180                    20875877.711
 106644404.763 8  83099616.033 8  20293741.039                    20293747.617
 111265244.218 8  86700311.82846  21173048.656                    21173053.840
 114795316.524 8  89450947.238 7  21844821.484                    21844830.176
 11  8 18  1 50  0.0000000  0  8G30G10G04G29G12G05G02G25
 113586005.558 8  88508640.23746  21614701.305                    21614708.871
 117452583.868 7  91521599.91645  22350460.742                    22350468.328
 127203644.575 7  99119846.96244  24206028.820                    24206036.926
 124260631.940 7  96826493.439 7  23646010.383                    23646017.984
 109731206.058 8  85504895.350 7  20881155.055                    20881161.773
 106632253.412 8  83090147.472 8  20291428.461                    20291435.160
 111297109.764 8  86725142.14546  21179112.758                    21179117.445
 114756620.228 8  89420794.284 7  21837457.797                    21837467.117
 11  8 18  1 50 30.0000000  0  8G30G10G04G29G12G05G02G25
 113566408.183 8  88493369.53946  21610972.242                    21610979.563
 117539555.806 7  91589370.25845  22367010.781                    22367018.414
 127283586.079 6  99182139.05544  24221240.141                    24221249.070
 124177642.776 7  96761826.614 7  23630217.500                    23630226.047
 109759530.999 8  85526966.721 7  20886544.984                    20886551.602
 106620678.967 8  83081128.444 8  20289226.039                    20289232.867
 111329091.577 8  86750063.05646  21185198.633                    21185203.738
 114718469.918 8  89391066.789 7  21830197.813                    21830207.129
 11  8 18  1 51  0.0000000  0  8G30G10G04G29G12G05G02G25
 113547417.548 8  88478571.62346  21607358.477                    21607365.938
 117626880.562 7  91657415.52745  22383628.422                    22383635.715
 127363472.175 6  99244387.96044  24236442.430                    24236450.813
 124094630.639 7  96697141.884 7  23614421.750                    23614429.121
 109788413.552 8  85549472.593 7  20892041.063                    20892047.945
 106609682.304 8  83072559.639 8  20287133.539                    20287139.969
 111361190.510 8  86775075.23646  21191306.516                    21191311.598
 114680867.773 8  89361766.420 7  21823042.594                    21823051.871
 11  8 18  1 51 30.0000000  0  8G30G10G04G29G12G05G02G25
 113529033.885 8  88464246.66346  21603860.297                    21603867.293
 117714555.215 7  91725733.44544  22400311.977                    22400319.480
 127443302.050 7  99306593.06044  24251633.844                    24251642.395
 124011596.540 7  96632440.050 7  23598620.578                    23598628.395
 109817852.381 8  85572411.938 7  20897643.117                    20897650.207
 106599262.978 8  83064440.714 8  20285150.461                    20285157.520
 111393405.388 8  86800177.75946  21197436.977                    21197442.039
 114643814.781 8  89332893.960 7  21815991.773                    21816001.090
 11  8 18  1 52  0.0000000  0  8G30G10G04G29G12G05G02G25
 113511257.972 8  88450395.28145  21600477.453                    21600485.281
 117802577.141 7  91794321.96444  22417061.898                    22417069.395
 127523075.958 6  99368754.52343  24266814.023                    24266822.637
 123928541.861 7  96567722.170 7  23582815.734                    23582823.195
 109847846.344 8  85595783.852 7  20903350.672                    20903357.223
 106589421.342 8  83056771.935 8  20283277.664                    20283284.613
 111425736.211 8  86825370.63946  21203589.297                    21203594.395
 114607312.731 8  89304450.794 7  21809045.453                    21809055.098
 11  8 18  1 52 30.0000000  0  9G30G10G04G29G12G26G05G02G25
 113494089.875 8  88437017.50746  21597210.219                    21597218.020
 117890943.075 7  91863178.53544  22433877.148                    22433884.742
 127602793.302 6  99430871.89543  24281983.781                    24281992.191
 123845467.497 7  96502988.936 7  23567006.867                    23567014.824
 109878394.366 8  85619587.510 7  20909163.977                    20909170.777
 130485831.72216 101677390.96353  24830647.727                    24830658.016
 106580157.025 8  83049553.011 8  20281515.086                    20281521.578
 111458182.003 8  86850653.10346  21209763.594                    21209768.344
 114571362.477 8  89276437.604 7  21802204.344                    21802213.621
 11  8 18  1 53  0.0000000  0  9G30G10G04G29G12G26G05G02G25
 113477529.722 8  88424113.45845  21594059.570                    21594066.457
 117979650.119 7  91932300.90944  22450757.688                    22450765.695
 127682453.463 6  99492944.74343  24297142.430                    24297150.309
 123762374.638 7  96438241.283 6  23551194.797                    23551202.617
 109909495.161 8  85643821.903 7  20915082.289                    20915089.113
 130393621.782 6 101605539.14543  24813100.633                    24813111.535
 106571469.769 8  83042783.747 8  20279861.453                    20279868.723
 111490741.264 7  86876023.98446  21215958.891                    21215964.184
 114535965.090 8  89248855.208 7  21795468.406                    21795478.012
 11  8 18  1 53 30.0000000  0  9G30G10G04G29G12G26G05G02G25
 113461578.266 8  88411683.72746  21591023.516                    21591031.418
 118068695.862 7  92001687.20144  22467702.977                    22467709.871
 127762056.544 7  99554973.09043  24312290.195                    24312298.137
 123679265.018 7  96373480.565 7  23535379.172                    23535386.977
 109941147.579 7  85668486.127 7  20921105.234                    20921112.527
 130301278.424 6 101533583.35743  24795528.078                    24795539.047
 106563359.976 8  83036464.452 8  20278318.086                    20278324.992
 111523414.593 8  86901483.73646  21222176.914                    21222181.461
 114501122.159 8  89221704.850 7  21788838.211                    21788847.438
 11  8 18  1 54  0.0000000  0  9G30G10G04G29G12G26G05G02G25
 113446235.223 8  88399728.08445  21588104.141                    21588111.891
 118158076.865 7  92071334.73345  22484711.602                    22484718.988
 127841601.849 6  99616956.40143  24327427.570                    24327435.625
 123596139.434 7  96308707.396 6  23519561.352                    23519568.977
 109973349.813 8  85693578.779 7  20927233.422                    20927240.074
 130208803.963 6 101461525.44443  24777930.945                    24777941.043
 106555826.800 8  83030594.479 8  20276884.578                    20276891.031
 111556200.603 8  86927031.30546  21228415.891                    21228420.703
 114466834.289 8  89194987.002 7  21782313.344                    21782322.430
 11  8 18  1 54 30.0000000  0  9G30G10G04G29G12G26G05G02G25
 113431500.868 8  88388246.75845  21585300.234                    21585307.855
 118247790.419 7  92141241.40545  22501783.398                    22501790.805
 127921088.698 6  99678894.17043  24342553.141                    24342561.227
 123512998.882 7  96243922.547 6  23503739.844                    23503747.672
 110006101.187 8  85719099.333 7  20933466.086                    20933472.543
 130116201.226 6 101389367.64843  24760308.984                    24760319.363
 106548869.855 8  83025173.500 8  20275560.820                    20275567.684
 111589098.651 8  86952666.17346  21234675.445                    21234680.852
 114433102.654 8  89168702.594 7  21775894.141                    21775903.258
 11  8 18  1 55  0.0000000  0  9G30G10G04G29G12G26G05G02G25
 113417375.034 8  88377239.60146  21582612.414                    21582619.590
 118337833.006 7  92211404.46245  22518918.352                    22518925.141
 128000516.858 6  99740786.26342  24357667.656                    24357676.035
 123429844.572 7  96179126.978 6  23487916.734                    23487924.207
 110039399.389 8  85745045.984 7  20939802.211                    20939808.902
 130023473.032 6 101317112.06543  24742663.180                    24742674.273
 106542488.408 8  83020200.972 8  20274346.461                    20274353.246
 111622107.734 8  86978387.55646  21240957.570                    21240962.039
 114399927.957 8  89142852.166 7  21769581.586                    21769591.133
 11  8 18  1 55 30.0000000  0  9G30G10G04G29G12G26G05G02G25
 113403858.291 8  88366707.06445  21580039.984                    21580047.590
 118428202.297 7  92281822.09845  22536115.016                    22536121.910
 128079886.068 6  99802632.42542  24372771.203                    24372779.844
 123346678.018 7  96114321.892 7  23472090.492                    23472097.906
 110073243.473 8  85771417.992 7  20946242.578                    20946249.227
 129930622.387 6 101244761.03342  24724994.016                    24725004.398
 106536682.780 8  83015677.134 8  20273241.875                    20273248.363
 111655227.572 7  87004195.24946  21247259.719                    21247264.813
 114367311.661 8  89117436.868 7  21763374.742                    21763384.590
 11  8 18  1 56  0.0000000  0  9G30G10G04G29G12G26G05G02G25
 113390950.689 8  88356649.18645  21577583.875                    21577591.348
 118518895.607 7  92352492.22145  22553373.563                    22553380.645
 128159196.134 6  99864432.49542  24387862.922                    24387872.020
 123263500.277 7  96049508.089 7  23456262.344                    23456270.164
 110107632.332 8  85798214.500 7  20952786.453                    20952793.398
 129837651.968 6 101172316.65542  24707302.500                    24707311.773
 106531452.473 8  83011601.594 8  20272246.602                    20272253.363
 111688457.608 7  87030088.79346  21253583.695                    21253588.313
 114335254.788 8  89092457.481 7  21757274.500                    21757284.160
 11  8 18  1 56 30.0000000  0  9G30G10G04G29G12G26G05G02G25
 113378652.395 8  88347066.10846  21575243.398                    21575250.945
 118609909.666 7  92423412.27245  22570692.813                    22570699.848
 128238446.839 6  99926186.27642  24402944.422                    24402952.684
 123180312.802 7  95984686.697 7  23440432.352                    23440440.238
 110142564.235 8  85825434.152 7  20959433.859                    20959440.699
 129744564.854 5 101099781.41042  24689587.273                    24689598.391
 106526797.459 8  83007974.330 8  20271360.523                    20271367.270
 111721796.937 8  87056067.51346  21259927.539                    21259932.426
 114303758.415 8  89067914.848 7  21751281.344                    21751290.570
 11  8 18  1 57  0.0000000  0  9G30G10G04G29G12G26G05G02G25
 113366963.219 8  88337957.65945  21573019.281                    21573026.930
 118701241.399 7  92494579.87045  22588072.563                    22588079.672
 128317637.595 6  99987893.42243  24418013.922                    24418021.941
 123097116.486 7  95919858.427 7  23424600.430                    23424608.035
 110178037.452 8  85853075.608 7  20966183.859                    20966191.082
 129651363.853 5 101027157.49642  24671851.805                    24671862.871
 106522716.808 8  83004794.625 8  20270584.063                    20270590.824
 111755245.230 7  87082131.13646  21266292.563                    21266297.910
 114272823.223 8  89043809.505 7  21745394.398                    21745403.551
 11  8 18  1 57 30.0000000  0  9G30G10G04G29G12G26G05G02G25
 113355883.745 8  88329324.30945  21570911.172                    21570918.031
 118792888.616 7  92565993.30845  22605511.828                    22605519.797
 128396768.475 6 100049553.87942  24433072.016                    24433080.359
 123013913.288 7  95855024.800 7  23408767.586                    23408775.168
 110214051.164 8  85881138.229 7  20973037.422                    20973044.301
 129558052.168 5 100954447.21442  24654095.094                    24654105.676
 106519210.486 8  83002062.455 8  20269916.547                    20269922.957
 111788802.324 7  87108279.53946  21272678.500                    21272683.102
 114242450.680 8  89020142.601 7  21739614.547                    21739624.137
 11  8 18  1 58  0.0000000  0  9G30G10G04G29G12G26G05G02G25
 113345413.666 8  88321165.81945  21568918.398                    21568925.348
 118884848.086 7  92637650.03944  22623011.508                    22623018.613
 128475838.978 6 100111167.31843  24448118.242                    24448127.676
 122930704.234 7  95790186.593 7  23392933.609                    23392940.703
 110250603.551 8  85909620.598 7  20979993.086                    20979999.438
 129464632.612 6 100881652.95343  24636317.727                    24636328.285
 106516278.082 8  82999777.489 8  20269358.875                    20269365.422
 111822467.219 8  87134511.93946  21279084.594                    21279089.383
 114212641.521 8  88996914.694 7  21733942.188                    21733952.141
 11  8 18  1 58 30.0000000  0  9G30G10G04G29G12G26G05G02G25
 113335552.761 8  88313482.01545  21567042.078                    21567049.191
 118977116.542 7  92709547.52244  22640569.422                    22640576.379
 128554848.886 6 100172733.54043  24463152.680                    24463162.320
 122847490.549 7  95725344.795 7  23377098.000                    23377105.887
 110287693.092 8  85938521.533 7  20987051.047                    20987057.820
 129371107.747 6 100808776.62243  24618521.078                    24618530.762
 106513918.915 8  82997939.206 8  20268909.883                    20268916.332
 111856239.207 8  87160827.78446  21285511.414                    21285516.230
 114183396.415 8  88974126.326 7  21728376.867                    21728386.238
 11  8 18  1 59  0.0000000  0  9G30G10G04G29G12G26G05G02G25
 113326301.290 8  88306273.08945  21565281.570                    21565288.512
 119069691.542 7  92781683.91344  22658185.969                    22658193.316
 128633797.773 6 100234252.14843  24478176.297                    24478185.273
 122764273.725 7  95660500.551 7  23361262.477                    23361270.473
 110325318.500 8  85967840.038 7  20994210.703                    20994217.594
 129277480.850 6 100735820.70643  24600704.852                    24600714.895
 106512132.831 8  82996547.477 8  20268569.836                    20268576.527
 111890117.722 7  87187226.63846  21291958.031                    21291962.875
 114154716.411 8  88951778.296 7  21722919.172                    21722928.895
 11  8 18  1 59 30.0000000  0  9G30G10G04G29G12G26G05G02G25
 113317658.788 8  88299538.69645  21563636.820                    21563643.816
 119162569.893 7  92854056.65744  22675860.297                    22675867.133
 128712685.325 6 100295723.02443  24493188.375                    24493197.535
 122681054.595 7  95595654.512 7  23345426.461                    23345434.039
 110363477.508 8  85997574.319 7  21001472.172                    21001479.273
 129183754.421 6 100662787.30343  24582869.469                    24582879.199
 106510918.701 8  82995601.439 8  20268339.023                    20268345.832
 111924101.606 8  87213707.58846  21298424.953                    21298429.824
 114126602.163 8  88929871.107 7  21717569.148                    21717578.590
 11  8 18  2  0  0.0000000  0  9G30G10G04G29G12G26G05G02G25
 113309625.322 8  88293278.87045  21562108.359                    21562115.555
 119255748.564 7  92926663.40944  22693591.492                    22693598.930
 128791511.318 6 100357145.86643  24508188.594                    24508197.355
 122597834.633 7  95530807.833 7  23329590.281                    23329598.070
 110402168.823 8  86027723.396 7  21008834.875                    21008841.672
 129089931.825 6 100589678.93443  24565014.742                    24565025.559
 106510276.199 8  82995100.812 8  20268216.516                    20268222.762
 111958190.836 8  87240270.64446  21304912.117                    21304916.816
 114099054.587 8  88908405.499 7  21712326.844                    21712336.520
 11  8 18  2  0 30.0000000  0  9G30G10G04G29G12G26G05G02G25
 113302201.047 8  88287493.73945  21560695.469                    21560702.922
 119349225.052 7  92999502.21244  22711379.398                    22711386.988
 128870275.791 6 100418520.83143  24523177.563                    24523186.117
 122514615.355 7  95465961.674 7  23313753.766                    23313761.859
 110441391.429 8  86058286.458 7  21016299.141                    21016305.500
 128996016.168 6 100516497.99443  24547143.367                    24547153.504
 106510205.061 8  82995045.408 8  20268203.203                    20268209.375
 111992385.406 8  87266915.78046  21311419.227                    21311423.789
 114072074.802 8  88887382.333 7  21707193.078                    21707202.160
 11  8 18  2  1  0.0000000  0  9G30G10G04G29G12G26G05G02G25
 113295385.637 8  88282183.04245  21559398.617                    21559405.512
 119442996.386 7  93072570.77744  22729223.719                    22729230.426
 128948978.438 6 100479847.52943  24538154.320                    24538162.434
 122431398.314 7  95401117.273 7  23297918.000                    23297925.684
 110481143.017 8  86089261.723 7  21023863.320                    21023870.047
 128902010.263 6 100443246.80743  24529254.602                    24529264.098
 106510704.624 8  82995434.702 8  20268297.875                    20268304.738
 112026684.127 8  87293642.07646  21317945.766                    21317950.496
 114045663.488 8  88866802.123 7  21702167.055                    21702176.426
 11  8 18  2  1 30.0000000  0  9G30G10G04G29G12G26G05G02G25
 113289178.923 8  88277346.64645  21558217.586                    21558224.910
 119537059.453 7  93145866.67044  22747123.039                    22747130.719
 129027618.888 6 100541125.85342  24553118.195                    24553126.484
 122348184.777 7  95336275.585 7  23282083.180                    23282090.816
 110521422.279 8  86120648.152 7  21031528.219                    21031534.855
 128807917.134 6 100369927.60143  24511349.375                    24511359.648
 106511774.246 8  82996268.193 8  20268501.555                    20268508.410
 112061086.590 8  87320449.20946  21324492.648                    21324497.277
 114019821.317 8  88846665.398 7  21697249.359                    21697258.777
 11  8 18  2  2  0.0000000  0  9G30G10G04G29G12G26G05G02G25
 113283580.821 8  88272984.50045  21557151.922                    21557159.086
 119631411.607 7  93219387.81744  22765077.953                    22765085.094
 129106197.139 6 100602355.67643  24568072.586                    24568079.633
 122264976.285 7  95271437.833 7  23266249.547                    23266256.766
 110562227.598 8  86152444.504 7  21039292.945                    21039300.004
 128713739.927 6 100296542.86643  24493427.523                    24493437.918
 106513413.647 8  82997545.674 8  20268813.555                    20268820.039
 112095592.472 8  87347336.94246  21331058.352                    21331063.699
 113994549.202 8  88826972.879 7  21692440.547                    21692449.719
 11  8 18  2  2 30.0000000  0  9G30G10G04G29G12G26G05G02G25
 113278590.926 8  88269096.28245  21556202.547                    21556209.852
 119726049.756 7  93293131.81744  22783086.586                    22783094.285
 129184712.716 6 100663536.65843  24583011.719                    24583021.168
 122181773.970 7  95206604.896 7  23250416.453                    23250423.938
 110603557.379 8  86184649.531 7  21047157.742                    21047164.648
 128619481.603 6 100223094.95043  24475490.469                    24475500.664
 106515621.795 8  82999266.333 8  20269233.641                    20269240.074
 112130200.993 8  87374304.63946  21337644.133                    21337649.379
 113969847.742 8  88807725.026 8  21687739.734                    21687749.438
 11  8 18  2  3  0.0000000  0  9G30G10G04G29G12G26G05G02G25
 113274208.978 8  88265681.78545  21555368.594                    21555376.609
 119820971.034 7  93367096.43344  22801149.977                    22801157.250
 129263165.660 6 100724668.78442  24597941.523                    24597950.066
 122098579.398 7  95141777.981 7  23234584.539                    23234592.477
 110645409.717 8  86217261.744 7  21055122.039                    21055128.762
 128525144.959 6 100149585.99343  24457539.914                    24457549.625
 106518398.069 8  83001429.682 8  20269762.047                    20269768.328
 112164911.647 8  87401351.93346  21344249.609                    21344254.574
 113945717.624 8  88788922.362 8  21683148.141                    21683157.449
 11  8 18  2  3 30.0000000  0  9G30G10G04G29G12G26G05G02G25
 113270434.567 8  88262740.68245  21554650.180                    21554657.445
 119916172.572 7  93441279.46444  22819266.094                    22819273.289
 129341555.412 6 100785751.72143  24612858.094                    24612866.867
 122015393.754 7  95076958.034 7  23218755.273                    23218762.578
 110687782.568 8  86250279.542 7  21063185.672                    21063192.441
 128430733.236 6 100076018.58343  24439573.367                    24439583.078
 106521741.609 8  83004035.056 8  20270398.313                    20270404.523
 112199723.641 7  87428478.17946  21350874.188                    21350878.547
 113922159.350 8  88770565.298 7  21678664.852                    21678674.539
 11  8 18  2  4  0.0000000  0  9G30G10G04G29G12G26G05G02G25
 113267267.715 7  88260273.01445  21554047.711                    21554054.875
 120011651.685 7  93515678.76245  22837434.922                    22837442.797
 129419882.091 6 100846785.50043  24627763.461                    24627772.574
 121932218.828 7  95012146.429 7  23202927.180                    23202935.012
 110730674.606 8  86283701.912 7  21071347.539                    21071354.375
 128336249.523 6 100002395.05243  24421593.805                    24421602.715
 106525652.198 8  83007082.292 8  20271142.500                    20271148.895
 112234637.340 7  87455683.66946  21357517.711                    21357522.754
 113899173.957 8  88752654.634 7  21674290.922                    21674300.371
 11  8 18  2  4 30.0000000  0  9G30G10G04G29G12G26G05G02G25
 113264707.886 7  88258278.33945  21553560.461                    21553567.605
 120107405.139 7  93590291.86244  22855656.375                    22855663.926
 129498145.594 6 100907770.05743  24642656.445                    24642665.676
 121849055.631 7  94947343.962 7  23187101.734                    23187109.504
 110774083.954 8  86317527.363 7  21079608.258                    21079614.914
 128241696.870 6  99928717.82243  24403600.227                    24403609.672
 106530128.601 8  83010570.412 8  20271994.234                    20272000.645
 112269651.739 8  87482967.62446  21364180.922                    21364185.824
 113876761.838 8  88735190.659 7  21670026.141                    21670035.422
 11  8 18  2  5  0.0000000  0  9G30G10G04G29G12G26G05G02G25
 113262754.631 8  88256756.32245  21553188.914                    21553196.191
 120203430.326 7  93665116.67744  22873929.016                    22873936.594
 129576345.503 6 100968705.05843  24657537.578                    24657545.879
 121765905.990 7  94882552.048 7  23171278.930                    23171287.168
 110818008.710 8  86351754.439 7  21087967.086                    21087973.742
 128147078.293 6  99854989.24542  24385594.344                    24385604.379
 106535170.136 8  83014498.901 8  20272953.609                    20272959.883
 112304766.316 7  87510329.64946  21370862.836                    21370867.781
 113854923.569 8  88718173.835 7  21665870.438                    21665879.586
 11  8 18  2  5 30.0000000  0  9G30G10G04G29G12G26G05G02G25
 113261407.842 8  88255706.87946  21552932.633                    21552939.824
 120299724.265 7  93740150.92844  22892253.750                    22892260.336
 129654482.060 6 101029590.64843  24672406.281                    24672414.703
 121682771.489 7  94817771.942 7  23155459.125                    23155467.313
 110862447.486 8  86386382.050 7  21096423.164                    21096429.965
 128052397.139 6  99781211.86142  24367577.086                    24367586.691
 106540776.402 8  83018867.437 8  20274020.203                    20274027.184
 112339980.869 8  87537769.56746  21377563.820                    21377568.695
 113833659.985 8  88701604.825 7  21661824.297                    21661833.605
 11  8 18  2  6  0.0000000  0  8G30G10G29G12G26G05G02G25
 113260667.394 8  88255129.90446  21552791.828                    21552798.906
 120396284.813 7  93815392.92244  22910628.297                    22910636.105
 121599653.684 7  94753004.853 7  23139642.266                    23139649.809
 110907398.687 8  86421408.962 7  21104977.328                    21104983.645
 127957656.799 6  99707388.39742  24349548.281                    24349557.852
 106546946.548 8  83023675.358 8  20275194.602                    20275201.160
 112375295.200 8  87565287.23946  21384284.281                    21384288.699
 113812971.871 8  88685484.224 7  21657887.305                    21657896.902
 11  8 18  2  6 30.0000000  0  8G30G10G29G12G26G05G02G25
 113260532.093 8  88255024.48346  21552766.078                    21552772.953
 120493108.194 7  93890839.70844  22929052.984                    22929060.000
 121516553.604 7  94688251.569 7  23123828.688                    23123836.352
 110952859.515 8  86456832.980 7  21113628.367                    21113634.684
 127862859.652 6  99633520.61642  24331508.984                    24331518.648
 106553679.204 8  83028921.597 8  20276475.852                    20276482.418
 112410708.300 7  87592881.87746  21391022.836                    21391027.828
 113792859.146 8  88669811.977 7  21654059.859                    21654069.449
 11  8 18  2  7  0.0000000  0  8G30G10G29G12G26G05G02G25
 113261001.618 8  88255390.34645  21552855.281                    21552862.406
 120590191.532 7  93966489.04244  22947528.133                    22947533.887
 121433472.640 7  94623513.179 7  23108018.992                    23108026.691
 110998828.450 8  86492652.914 7  21122376.031                    21122382.180
 127768009.250 6  99559611.32243  24313459.492                    24313469.449
 106560973.850 7  83034605.755 8  20277863.898                    20277870.133
 112446219.615 7  87620553.03345  21397780.844                    21397785.637
 113773322.372 8  88654588.514 7  21650342.242                    21650351.727
 11  8 18  2  7 30.0000000  0  8G30G10G29G12G26G05G02G25
 113262075.546 8  88256227.18546  21553059.430                    21553066.719
 120687531.903 6  94042338.69743  22966050.500                    22966057.094
 121350412.534 7  94558791.058 7  23092213.313                    23092220.645
 111045303.512 8  86528867.239 7  21131219.820                    21131226.484
 127673108.545 6  99485662.86142  24295400.195                    24295409.574
 106568829.713 8  83040727.221 8  20279358.914                    20279365.387
 112481828.824 8  87648300.48545  21404556.672                    21404561.684
 113754362.155 8  88639814.329 7  21646734.172                    21646743.559
 11  8 18  2  8  0.0000000  0  8G30G10G29G12G26G05G02G25
 113263753.194 8  88257534.45446  21553378.992                    21553386.168
 120785126.433 7  94118386.40744  22984622.555                    22984629.363
 121267374.524 7  94494086.139 7  23076411.602                    23076418.965
 111092282.807 8  86565474.472 7  21140159.641                    21140166.516
 127578160.480 7  99411677.48043  24277333.258                    24277341.289
 106577245.523 8  83047285.015 8  20280960.539                    20280966.711
 112517535.329 8  87676123.74745  21411351.383                    21411356.109
 113735978.837 8  88625489.655 7  21643236.109                    21643245.313
 11  8 18  2  8 30.0000000  0  8G30G10G29G12G26G05G02G25
 113266034.032 8  88259311.74146  21553812.938                    21553820.387
 120882972.335 7  94194629.94144  23003241.539                    23003249.160
 121184360.345 7  94429399.807 6  23060614.430                    23060621.918
 111139764.321 8  86602473.056 7  21149194.891                    21149201.688
 127483168.211 7  99337657.70143  24259256.266                    24259264.863
 106586220.485 8  83054278.494 8  20282667.813                    20282675.055
 112553338.760 7  87704022.53345  21418164.219                    21418168.863
 113718172.753 8  88611614.785 7  21639847.484                    21639856.926
 11  8 18  2  9  0.0000000  0  8G30G10G29G12G26G05G02G25
 113268917.121 7  88261558.31946  21554361.578                    21554369.246
 120981066.590 7  94271067.00844  23021908.258                    23021915.227
 121101371.279 7  94364733.045 7  23044822.320                    23044829.480
 111187745.998 8  86639861.368 7  21158325.211                    21158331.953
 127388134.736 7  99263605.81043  24241172.461                    24241180.711
 106595753.194 8  83061706.597 8  20284482.117                    20284488.719
 112589238.544 7  87731996.39945  21424996.117                    21425000.875
 113700944.109 8  88598189.866 7  21636569.180                    21636578.602
 11  8 18  2  9 30.0000000  0  8G30G10G29G12G26G05G02G25
 113272402.182 8  88264273.96146  21555024.797                    21555032.203
 121079406.683 7  94347695.67444  23040622.367                    23040629.648
 121018409.127 7  94300087.247 7  23029035.008                    23029042.387
 111236226.221 8  86677638.178 7  21167551.016                    21167557.652
 127293063.613 7  99189524.55143  24223080.633                    24223090.355
 106605843.416 8  83069569.116 8  20286402.211                    20286408.586
 112625234.205 7  87760044.98445  21431845.813                    21431850.195
 113684293.579 8  88585215.420 7  21633400.359                    21633410.055
 11  8 18  2 10  0.0000000  0  8G30G10G29G12G26G05G02G25
 113276488.482 7  88267458.10945  21555802.414                    21555809.305
 121177989.657 7  94424513.59944  23059381.930                    23059388.652
 120935475.261 7  94235463.498 7  23013253.336                    23013260.707
 111285202.612 8  86715801.614 7  21176870.508                    21176877.453
 127197957.994 7  99115416.42943  24204982.195                    24204990.969
 106616489.929 8  83077865.112 8  20288428.125                    20288434.766
 112661325.629 7  87788168.18645  21438713.531                    21438718.250
 113668221.504 8  88572691.730 7  21630342.344                    21630351.219
 11  8 18  2 10 30.0000000  0  8G30G10G29G12G26G05G02G25
 113281175.389 8  88271110.25745  21556693.953                    21556701.109
 121276812.493 7  94501518.41144  23078187.477                    23078195.008
 120852571.361 7  94170863.105 7  22997477.047                    22997484.371
 111334673.164 8  86754350.103 7  21186284.375                    21186291.457
 127102820.938 7  99041283.80743  24186877.961                    24186887.648
 106627691.476 8  83086593.605 8  20290559.781                    20290566.281
 112697512.446 7  87816365.72445  21445599.961                    21445604.121
 113652728.100 8  88560618.943 7  21627393.836                    21627402.879
 11  8 18  2 11  0.0000000  0  8G30G10G29G12G26G05G02G25
 113286462.238 8  88275229.89345  21557699.977                    21557707.652
 121375872.489 7  94578708.01244  23097037.406                    23097045.383
 120769699.185 7  94106287.423 7  22981707.117                    22981714.852
 111384636.373 8  86793282.477 7  21195792.227                    21195799.500
 127007655.898 7  98967129.33843  24168769.273                    24168777.547
 106639447.281 8  83095753.986 8  20292796.547                    20292803.059
 112733794.401 7  87844637.38745  21452503.602                    21452508.539
 113637813.837 8  88548997.452 7  21624555.844                    21624565.113
 11  8 18  2 11 30.0000000  0  8G30G10G29G12G26G05G02G25
 113292348.193 8  88279816.36045  21558820.102                    21558827.340
 121475166.725 7  94656080.14244  23115932.906                    23115940.258
 120686859.963 7  94041737.431 7  22965942.883                    22965950.945
 111435089.731 8  86832596.795 7  21205393.633                    21205400.559
 126912465.963 7  98892955.53443  24150654.531                    24150664.051
 106651756.155 8  83105345.338 8  20295138.984                    20295145.492
 112770170.953 8  87872982.76545  21459426.070                    21459430.918
 113623478.824 8  88537827.321 7  21621827.969                    21621837.137
 11  8 18  2 12  0.0000000  0  8G30G10G29G12G26G05G02G25
 113298832.568 7  88284869.12945  21560053.805                    21560061.457
 121574692.492 7  94733632.68944  23134871.297                    23134879.340
 120604055.589 7  93977214.570 7  22950185.875                    22950193.734
 111486031.164 8  86872291.413 7  21215087.297                    21215093.875
 126817254.091 6  98818764.59543  24132536.383                    24132544.656
 106664617.108 8  83115366.880 8  20297586.398                    20297593.008
 112806641.596 8  87901401.47046  21466366.156                    21466371.000
 113609723.422 8  88527108.837 7  21619210.367                    21619219.719
 11  8 18  2 12 30.0000000  0  8G30G10G29G12G26G05G02G25
 113305914.429 8  88290387.45945  21561401.984                    21561409.238
 121674446.575 6  94811363.11244  23153854.492                    23153861.617
 120521287.468 7  93912719.973 7  22934436.000                    22934443.180
 111537458.640 8  86912364.780 7  21224873.586                    21224880.551
 126722023.745 6  98744559.25043  24114414.766                    24114423.637
 106678028.801 8  83125817.574 8  20300138.797                    20300145.027
 112843205.984 8  87929893.21346  21473324.281                    21473328.984
 113596547.629 8  88516841.995 7  21616702.836                    21616712.238
 11  8 18  2 13  0.0000000  0  8G30G10G29G12G26G05G02G25
 113313592.857 7  88296370.65645  21562863.039                    21562870.277
 121774426.180 7  94889269.30844  23172880.180                    23172887.445
 120438556.957 7  93848254.685 7  22918692.648                    22918700.242
 111589369.865 8  86952815.093 7  21234751.820                    21234758.762
 126626778.120 6  98670342.03043  24096290.289                    24096299.129
 106691990.115 8  83136696.539 8  20302795.367                    20302802.074
 112879863.579 8  87958457.58446  21480299.922                    21480304.867
 113583951.659 8  88507026.961 7  21614306.188                    21614315.246
 11  8 18  2 13 30.0000000  0  8G30G10G29G12G26G05G02G25
 113321867.242 7  88302818.23245  21564437.305                    21564444.668
 121874628.557 7  94967349.07144  23191947.453                    23191954.957
 120355865.970 7  93783820.209 7  22902956.563                    22902964.453
 111641762.695 8  86993640.672 7  21244722.047                    21244728.789
 126531520.475 6  98596115.46443  24078162.570                    24078171.785
 106706500.030 8  83148002.985 8  20305556.719                    20305563.152
 112916614.163 7  87987094.40746  21487293.445                    21487298.480
 113571935.728 8  88497663.915 7  21612019.664                    21612028.574
 11  8 18  2 14  0.0000000  0  8G30G10G29G12G26G05G02G25
 113330736.878 7  88309729.62145  21566124.992                    21566132.879
 121975051.094 7  95045600.36344  23211058.203                    23211064.508
 120273216.454 7  93719418.034 7  22887228.938                    22887236.746
 111694635.531 8  87034840.269 7  21254783.500                    21254789.992
 126436254.240 6  98521882.17243  24060033.789                    24060042.984
 106721557.736 8  83159736.281 8  20308421.805                    20308428.531
 112953457.734 8  88015803.69246  21494304.781                    21494309.012
 113560500.298 8  88488753.202 7  21609843.164                    21609852.285
 11  8 18  2 14 30.0000000  0  8G30G10G29G12G26G05G02G25
 113340200.836 7  88317104.13545  21567926.164                    21567933.480
 122075690.978 6  95124021.06444  23230208.328                    23230216.047
 120190609.946 7  93655049.392 7  22871509.539                    22871517.016
 111747986.268 8  87076412.260 7  21264935.789                    21264942.570
 126340982.700 6  98447644.76843  24041904.094                    24041913.215
 106737162.108 8  83171895.552 8  20311391.250                    20311397.680
 112990393.916 8  88044585.13945  21501333.633                    21501337.852
 113549645.388 8  88480294.838 7  21607777.797                    21607786.605
 11  8 18  2 15  0.0000000  0  8G30G10G29G12G26G05G02G25
 113350257.879 7  88324940.77545  21569840.047                    21569847.516
 122176545.337 6  95202608.82644  23249400.453                    23249408.055
 120108047.892 7  93590715.391 6  22855798.602                    22855806.113
 111801812.206 8  87118354.539 7  21275178.484                    21275185.438
 126245709.002 6  98373405.63643  24023773.906                    24023783.809
 106753311.503 8  83184479.518 8  20314463.891                    20314470.859
 113027421.985 8  88073438.19246  21508379.539                    21508384.063
 113539370.759 8  88472288.633 7  21605822.695                    21605831.875
 11  8 18  2 15 30.0000000  0  8G30G10G29G12G26G05G02G25
 113360907.279 7  88333238.99445  21571866.656                    21571873.773
 122277611.284 7  95281361.51044  23268633.180                    23268640.895
 120025531.840 7  93526417.213 7  22840096.203                    22840103.551
 111856111.392 8  87160665.575 7  21285511.141                    21285517.973
 126150436.597 6  98299167.54443  24005644.156                    24005653.801
 106770004.572 8  83197487.116 8  20317640.648                    20317647.441
 113064542.028 8  88102362.92646  21515443.406                    21515447.633
 113529676.753 8  88464734.865 7  21603978.000                    21603986.996
 11  8 18  2 16  0.0000000  0  8G30G10G29G12G26G05G02G25
 113372147.580 8  88341997.65545  21574005.633                    21574013.180
 122378885.485 7  95360276.47244  23287904.742                    23287911.797
 119943063.366 7  93462156.123 7  22824403.344                    22824410.281
 111910881.130 8  87203343.272 7  21295933.758                    21295940.172
 126055168.364 6  98224932.60843  23987514.625                    23987524.828
 106787239.643 8  83210917.060 8  20320920.594                    20320927.215
 113101753.181 8  88131358.64446  21522524.375                    21522528.719
 113520562.843 8  88457633.112 7  21602243.672                    21602252.844
 11  8 18  2 16 30.0000000  0  8G30G10G29G12G26G05G02G25
 113383978.293 8  88351216.37645  21576257.039                    21576264.523
 122480365.662 7  95439351.94644  23307216.266                    23307223.238
 119860644.586 8  93397933.758 7  22808718.898                    22808726.516
 111966119.873 8  87246386.443 7  21306444.906                    21306451.824
 125959907.959 6  98150703.82943  23969387.867                    23969397.188
 106805016.415 8  83224769.113 8  20324303.359                    20324309.793
 113139055.475 8  88160425.38346  21529622.766                    21529627.590
 113512029.645 8  88450983.871 7  21600619.898                    21600629.098
 11  8 18  2 17  0.0000000  0  8G30G10G29G12G26G05G02G25
 113396398.311 8  88360894.30245  21578620.492                    21578628.059
 122582049.108 7  95518585.84644  23326565.398                    23326573.422
 119778277.015 7  93333751.294 7  22793045.133                    22793052.672
 112021825.156 8  87289793.154 7  21317045.422                    21317052.195
 125864658.682 6  98076483.69643  23951262.367                    23951271.051
 106823333.504 8  83239042.184 8  20327788.789                    20327795.496
 113176448.465 8  88189562.78946  21536738.477                    21536742.938
 113504076.974 8  88444786.982 7  21599106.391                    21599115.082
 11  8 18  2 17 30.0000000  0  8G30G10G29G12G26G05G02G25
 113409406.246 8  88371030.34045  21581095.250                    21581102.484
 122683932.545 7  95597975.55244  23345952.594                    23345960.934
 119695962.089 8  93269609.854 7  22777381.023                    22777388.387
 112077994.506 8  87333561.479 7  21327734.469                    21327741.004
 125769423.658 6  98002274.64143  23933140.148                    23933148.418
 106842189.002 8  83253734.791 8  20331376.914                    20331383.461
 113213931.860 8  88218770.63546  21543871.203                    21543875.383
 113496704.556 8  88439042.238 7  21597703.492                    21597712.410
 11  8 18  2 18  0.0000000  0  8G30G10G29G12G26G05G02G25
 113423000.956 8  88381623.60045  21583682.805                    21583689.984
 122786013.240 7  95677518.95844  23365378.875                    23365386.141
 119613701.589 8  93205510.815 7  22761727.586                    22761734.488
 112134625.296 7  87377689.376 7  21338510.703                    21338517.426
 125674206.216 6  97928079.30843  23915020.453                    23915028.816
 106861581.680 8  83268845.994 8  20335067.516                    20335073.625
 113251505.179 8  88248048.56546  21551020.883                    21551025.895
 113489912.244 8  88433749.528 7  21596410.938                    21596419.887
 11  8 18  2 18 30.0000000  0  8G30G10G29G12G26G05G02G25
 113437181.297 8  88392673.21545  21586381.219                    21586388.473
 122888288.178 7  95757213.71544  23384840.844                    23384848.234
 119531497.282 8  93141455.572 7  22746084.219                    22746091.707
 112191715.356 7  87422175.146 7  21349374.188                    21349381.480
 125579009.448 7  97853900.07843  23896905.398                    23896912.734
 106881509.678 8  83284374.318 8  20338859.172                    20338865.828
 113289168.145 8  88277396.34346  21558188.078                    21558192.523
 113483699.818 8  88428908.674 7  21595228.938                    21595238.230
 11  8 18  2 19  0.0000000  0  8G30G10G29G12G26G05G02G25
 113451946.511 8  88404178.57645  21589190.563                    21589198.008
 122990755.065 7  95837058.00843  23404340.133                    23404346.797
 119449350.972 8  93077445.512 7  22730452.172                    22730459.637
 112249262.712 7  87467017.242 7  21360325.383                    21360332.031
 125483837.225 7  97779739.93943  23878795.477                    23878803.016
 106901972.512 8  83300319.400 8  20342753.188                    20342760.121
 113326920.992 8  88306814.15946  21565372.336                    21565377.082
 113478067.662 8  88424519.976 7  21594157.172                    21594166.137
 11  8 18  2 19 30.0000000  0  8G30G10G29G12G26G05G02G25
 113467295.435 8  88416138.77345  21592111.453                    21592118.773
 123093411.396 7  95917049.92844  23423874.539                    23423881.207
 119367264.552 8  93013482.123 7  22714831.383                    22714838.664
 112307265.425 8  87512214.163 7  21371363.141                    21371369.762
 125388692.933 6  97705601.61343  23860689.211                    23860697.691
 106922969.051 8  83316680.355 8  20346749.078                    20346755.465
 113364763.341 8  88336301.71046  21572573.578                    21572577.988
 113473015.557 8  88420583.267 7  21593195.578                    21593205.246
 11  8 18  2 20  0.0000000  0  8G30G10G29G12G26G05G02G25
 113483226.641 8  88428552.70845  21595143.070                    21595150.215
 123196254.063 6  95997187.03543  23443444.633                    23443451.930
 119285239.435 8  92949566.508 7  22699223.055                    22699230.262
 112365720.364 7  87557763.465 7  21382486.367                    21382493.102
 125293579.828 6  97631487.58243  23842589.375                    23842597.477
 106944497.269 8  83333455.606 8  20350845.703                    20350852.211
 113402694.699 8  88365858.61146  21579791.594                    21579796.105
 113468543.097 8  88417098.232 7  21592344.508                    21592354.066
 11  8 18  2 20 30.0000000  0  8G30G10G29G12G26G05G02G25
 113499738.913 8  88441419.41445  21598285.547                    21598292.578
 123299279.899 6  96077466.88843  23463049.422                    23463056.516
 119203277.256 8  92885699.934 6  22683625.945                    22683633.273
 112424625.544 7  87603663.600 7  21393695.586                    21393702.238
 125198501.260 6  97557400.44543  23824496.234                    23824504.973
 106966555.429 8  83350643.799 8  20355043.086                    20355049.762
 113440714.730 8  88395484.61446  21587026.852                    21587031.250
 113464650.071 8  88414064.695 7  21591603.656                    21591613.063
 11  8 18  2 21  0.0000000  0  8G30G10G29G12G26G05G02G25
 113516830.997 8  88454737.92745  21601538.109                    21601544.980
 123402486.529 6  96157887.61844  23482689.156                    23482696.391
 119121380.125 8  92821884.052 6  22668040.945                    22668048.770
 112483978.122 8  87649912.351 7  21404990.141                    21404996.805
 125103460.592 6  97483342.82543  23806410.930                    23806419.945
 106989142.567 8  83368244.182 8  20359341.164                    20359347.668
 113478823.273 8  88425179.57746  21594278.422                    21594282.520
 113461336.283 8  88411482.517 7  21590973.336                    21590982.938
 11  8 18  2 21 30.0000000  0  8G30G10G29G12G26G05G02G25
 113534501.587 8  88468507.22745  21604900.750                    21604907.699
 123505871.075 7  96238447.00244  23502363.234                    23502370.828
 119039549.766 8  92758120.182 6  22652469.477                    22652477.352
 112543775.992 7  87696508.086 7  21416369.391                    21416376.133
 125008461.181 6  97409317.41244  23788332.633                    23788342.160
 107012257.023 8  83386255.462 8  20363739.625                    20363746.301
 113517019.964 8  88454943.24046  21601546.922                    21601551.160
 113458601.419 8  88409351.462 7  21590452.695                    21590462.246
 11  8 18  2 22  0.0000000  0  8G30G10G29G12G26G05G02G25
 113552749.390 8  88482726.29645  21608373.180                    21608380.121
 123609430.974 7  96319143.03844  23522069.469                    23522077.805
 118957787.937 8  92694409.730 6  22636910.766                    22636917.918
 112604016.864 8  87743449.012 7  21427833.047                    21427839.918
 124913506.433 6  97335326.78444  23770263.547                    23770272.883
 107035897.303 8  83404676.484 8  20368238.461                    20368244.895
 113555304.736 8  88484775.53446  21608832.250                    21608836.945
 113456445.251 8  88407671.330 7  21590042.172                    21590051.871
 11  8 18  2 22 30.0000000  0  8G30G10G29G12G26G05G02G25
 113571573.022 8  88497394.07245  21611954.867                    21611961.703
 123713163.099 7  96399973.26444  23541808.742                    23541817.590
 118876095.844 8  92630753.594 6  22621365.313                    22621372.199
 112664698.235 8  87790733.185 7  21439380.016                    21439387.469
 124818599.990 6  97261373.78444  23752203.570                    23752212.656
 107060061.721 8  83423505.916 8  20372836.750                    20372843.355
 113593677.465 8  88514676.36546  21616134.242                    21616138.918
 113454867.341 8  88406441.792 7  21589742.055                    21589751.895
 11  8 18  2 23  0.0000000  0  8G30G10G29G12G26G05G02G25
 113590971.203 8  88512509.55245  21615646.289                    21615653.648
 123817064.763 7  96480935.57944  23561581.234                    23561588.703
 118794476.298 8  92567153.993 6  22605833.422                    22605840.867
 112725817.667 8  87838358.718 7  21451010.781                    21451017.563
 124723744.838 7  97187460.77144  23734152.859                    23734161.816
 107084748.937 8  83442742.721 8  20377534.367                    20377541.328
 113632137.663 8  88544645.35845  21623453.063                    21623458.051
 113453867.526 8  88405662.721 7  21589551.805                    21589561.375
 11  8 18  2 23 30.0000000  0  9G30G10G15G29G12G26G05G02G25
 113610942.276 8  88528071.43445  21619446.789                    21619454.023
 123921133.386 7  96562028.00544  23581385.391                    23581392.117
 129409629.13215 100838754.16515  24625841.625                    24625851.441
 118712930.511 8  92503611.876 6  22590316.266                    22590323.676
 112787372.369 8  87886323.423 7  21462724.398                    21462731.148
 124628944.461 7  97113590.42344  23716112.836                    23716121.777
 107109957.080 8  83462385.446 8  20382331.352                    20382337.695
 113670685.173 8  88574682.38045  21630788.203                    21630793.234
 113453445.042 8  88405333.530 7  21589471.336                    21589481.145
 11  8 18  2 24  0.0000000  0  9G30G10G15G29G12G26G05G02G25
 113631485.586 8  88544079.21945  21623356.227                    21623363.215
 124025366.819 7  96643248.82344  23601220.336                    23601226.883
 129316484.714 6 100766174.340 6  24608116.680                    24608126.766
 118631460.792 8  92440129.031 6  22574813.102                    22574819.844
 112849360.417 8  87934625.798 7  21474520.484                    21474526.984
 124534202.817 6  97039765.87443  23698083.672                    23698093.473
 107135685.593 8  83482433.658 8  20387227.289                    20387233.836
 113709320.278 8  88604787.66346  21638140.141                    21638145.438
 113453600.269 8  88405454.500 7  21589500.766                    21589510.254
 11  8 18  2 24 30.0000000  0  9G30G10G15G29G12G26G05G02G25
 113652599.537 8  88560531.65645  21627373.727                    21627381.180
 124129761.924 7  96724595.57044  23621086.313                    23621092.891
 129223211.087 6 100693493.738 6  24590368.383                    24590377.590
 118550068.993 8  92376706.898 6  22559324.078                    22559331.719
 112911779.749 7  87983264.224 7  21486398.297                    21486405.273
 124439523.509 6  96965989.89944  23680067.016                    23680076.172
 107161932.777 8  83502886.026 8  20392222.078                    20392228.223
 113748042.636 8  88634960.92146  21645509.172                    21645514.195
 113454332.691 8  88406025.239 7  21589640.250                    21589649.523
 11  8 18  2 25  0.0000000  0  9G30G10G15G29G12G26G05G02G25
 113674281.927 8  88577427.04845  21631499.930                    21631507.105
 124234315.465 7  96806065.78443  23640981.859                    23640988.328
 129129809.599 6 100620713.493 6  24572594.422                    24572603.727
 118468756.217 8  92313346.329 6  22543851.039                    22543858.000
 112974626.710 8  88032235.874 7  21498357.594                    21498364.289
 124344909.117 7  96892264.48744  23662063.148                    23662071.813
 107188695.813 8  83523740.364 8  20397314.859                    20397321.473
 113786851.701 8  88665201.74845  21652894.180                    21652898.609
 113455641.127 8  88407044.826 7  21589889.156                    21589899.031
 11  8 18  2 25 30.0000000  0  9G30G10G15G29G12G26G05G02G25
 113696531.669 8  88594764.52545  21635733.477                    21635741.258
 124339024.869 7  96887657.46144  23660907.102                    23660914.402
 129036283.063 6 100547835.849 6  24554796.367                    24554805.914
 118387524.680 8  92250049.068 6  22528392.719                    22528399.879
 113037899.115 7  88081539.037 7  21510397.914                    21510404.566
 124250363.565 6  96818592.72244  23644071.883                    23644079.266
 107215973.700 8  83544995.878 8  20402505.516                    20402512.211
 113825747.324 8  88695510.02245  21660295.898                    21660300.570
 113457525.486 8  88408513.184 7  21590247.578                    21590257.105
 11  8 18  2 26  0.0000000  0  9G30G10G15G29G12G26G05G02G25
 113719347.379 8  88612543.02245  21640075.266                    21640082.750
 124443887.712 7  96969368.72144  23680861.789                    23680870.191
 128942634.191 6 100474862.814 6  24536975.875                    24536984.895
 118306376.262 8  92186816.571 6  22512950.805                    22512958.105
 113101594.775 7  88131172.001 7  21522518.195                    21522525.406
 124155890.319 6  96744977.29444  23626093.344                    23626102.133
 107243765.034 8  83566651.483 8  20407794.078                    20407800.211
 113864729.500 8  88725885.73445  21667713.617                    21667718.227
 113459985.268 8  88410429.927 7  21590715.789                    21590725.324
 11  8 18  2 26 30.0000000  0  9G30G10G15G29G12G26G05G02G25
 113742727.355 8  88630761.20645  21644524.148                    21644531.668
 124548901.243 7  97051197.40543  23700845.273                    23700853.102
 128848865.539 6 100401796.505 6  24519131.969                    24519141.316
 118225312.778 8  92123650.263 6  22497524.836                    22497532.266
 113165710.899 8  88181132.610 7  21534719.391                    21534726.301
 124061492.828 7  96671420.88144  23608130.563                    23608138.969
 107272067.972 8  83588705.745 8  20413180.102                    20413186.258
 113903797.794 8  88756328.54645  21675148.211                    21675152.172
 113463019.850 8  88412794.553 7  21591293.375                    21591302.719
 11  8 18  2 27  0.0000000  0  9G30G10G15G29G12G26G05G02G25
 113766669.976 7  88649417.80045  21649080.586                    21649087.883
 124654062.718 7  97133141.41543  23720857.109                    23720864.762
 128754979.629 7 100328638.798 6  24501266.148                    24501275.258
 118144336.064 7  92060551.577 6  22482115.203                    22482122.563
 113230245.246 8  88231419.111 7  21547000.188                    21547006.906
 123967174.465 7  96597926.13944  23590181.734                    23590190.297
 107300880.798 8  83611157.319 8  20418662.875                    20418669.559
 113942952.252 8  88786838.52645  21682598.992                    21682603.738
 113466628.709 8  88415606.666 7  21591980.188                    21591989.449
 11  8 18  2 27 30.0000000  0  9G30G10G15G29G12G26G05G02G25
 113791173.930 7  88668511.81345  21653743.469                    21653750.371
 124759369.463 7  97215198.62643  23740896.148                    23740904.219
 128660978.924 6 100255391.645 6  24483378.008                    24483387.473
 118063448.114 7  91997522.059 6  22466723.000                    22466730.801
 113295195.044 8  88282029.336 7  21559359.531                    21559366.797
 123872938.996 7  96524495.96944  23572250.023                    23572258.297
 107330201.916 8  83634004.963 8  20424242.320                    20424249.020
 113982192.571 8  88817415.40245  21690066.039                    21690070.434
 113470811.423 8  88418865.927 7  21592776.344                    21592785.703
 11  8 18  2 28  0.0000000  0  9G30G10G15G29G12G26G05G02G25
 113816237.162 8  88688041.61645  21658512.766                    21658520.531
 124864818.783 7  97297366.94843  23760963.359                    23760970.457
 128566865.613 7 100182056.766 6  24465468.398                    24465478.313
 117982650.614 8  91934563.018 6  22451348.164                    22451355.039
 113360557.103 8  88332960.811 7  21571797.766                    21571804.695
 123778789.486 7  96451132.78543  23554333.688                    23554341.762
 107360029.218 8  83657247.036 8  20429918.406                    20429924.730
 114021518.764 8  88848059.18945  21697549.555                    21697554.297
 113475567.007 8  88422571.588 7  21593681.211                    21593690.711
 11  8 18  2 28 30.0000000  0  9G30G10G15G29G12G26G05G02G25
 113841858.270 7  88708006.14345  21663388.742                    21663395.910
 124970408.191 7  97379644.39743  23781056.164                    23781063.336
 128472642.474 7 100108636.274 6  24447538.453                    24447548.383
 117901945.361 7  91871675.859 6  22435990.531                    22435996.906
 113426329.718 8  88384212.184 7  21584314.078                    21584320.824
 123684729.589 7  96377839.44744  23536434.516                    23536441.918
 107390361.006 8  83680882.216 8  20435690.430                    20435696.816
 114060930.662 8  88878769.76245  21705049.086                    21705053.918
 113480895.034 8  88426723.315 7  21594694.867                    21594703.688
 11  8 18  2 29  0.0000000  0  9G30G10G15G29G12G26G05G02G25
 113868035.487 7  88728403.97845  21668369.992                    21668377.363
 125076134.773 7  97462028.72043  23801175.008                    23801182.305
 128378311.944 7 100035132.123 6  24429588.031                    24429597.188
 117821334.643 7  91808862.373 6  22420650.125                    22420657.680
 113492509.469 8  88435780.827 7  21596907.672                    21596914.270
 123590762.712 7  96304618.57444  23518553.180                    23518561.031
 107421195.707 8  83704909.263 8  20441558.102                    20441564.574
 114100428.133 7  88909547.02145  21712565.688                    21712570.613
 113486794.657 8  88431320.438 7  21595817.742                    21595826.883
 11  8 18  2 29 30.0000000  0  9G30G10G15G29G12G26G05G02G25
 113894767.409 7  88749234.05945  21673456.672                    21673464.113
 125181995.892 6  97544517.89943  23821319.477                    23821326.023
 128283876.752 6  99961546.402 6  24411617.898                    24411626.520
 117740820.408 7  91746124.065 6  22405329.266                    22405335.930
 113559094.040 8  88487664.913 7  21609578.500                    21609584.801
 123496892.657 7  96231473.14244  23500690.305                    23500698.145
 107452531.891 8  83729327.084 8  20447520.758                    20447527.578
 114140011.094 7  88940390.90245  21720098.016                    21720102.699
 113493265.462 8  88436362.626 7  21597048.875                    21597058.191
 11  8 18  2 30  0.0000000  0  9G30G10G15G29G12G26G05G02G25
 113922052.208 7  88770494.94645  21678648.695                    21678656.117
 125287988.972 6  97627109.79343  23841489.211                    23841496.227
 128189339.604 6  99887881.275 6  24393627.430                    24393636.973
 117660404.472 7  91683462.341 6  22390026.117                    22390033.371
 113626081.031 8  88539862.578 7  21622325.250                    21622332.242
 123403122.951 7  96158405.89043  23482846.445                    23482854.270
 107484367.679 8  83754134.211 8  20453579.523                    20453585.813
 114179679.366 7  88971301.25746  21727646.453                    21727651.496
 113500306.791 8  88441849.393 7  21598388.734                    21598398.031
 11  8 18  2 30 30.0000000  0  9G30G10G15G29G12G26G05G02G25
 113949888.077 8  88792185.22845  21683945.844                    21683952.809
 125394111.289 6  97709802.43343  23861683.359                    23861690.672
 128094702.847 6  99814138.503 6  24375618.352                    24375627.258
 117580088.590 7  91620878.589 6  22374742.734                    22374749.813
 113693467.628 8  88592371.615 7  21635148.563                    21635155.324
 123309456.852 7  96085419.38543  23465022.336                    23465030.695
 107516700.788 8  83779328.849 8  20459732.070                    20459738.332
 114219432.712 7  89002277.90445  21735211.617                    21735216.188
 113507917.695 8  88447779.975 7  21599837.266                    21599846.457
 11  8 18  2 31  0.0000000  0  9G30G10G15G29G12G26G05G02G25
 113978273.423 8  88814303.68845  21689347.625                    21689354.203
 125500360.317 6  97792593.80243  23881902.234                    23881909.191
 127999969.235 6  99740320.240 6  24357591.445                    24357599.754
 117499874.945 7  91558374.484 6  22359478.383                    22359485.781
 113761251.368 7  88645190.111 7  21648047.211                    21648054.473
 123215898.240 6  96012516.61443  23447218.805                    23447226.867
 107549529.965 8  83804910.037 8  20465979.445                    20465985.668
 114259271.215 8  89033320.90645  21742792.367                    21742797.418
 113516097.507 8  88454153.868 7  21601393.664                    21601402.848
 11  8 18  2 31 30.0000000  0  9G30G10G15G29G12G26G05G02G25
 114007206.468 8  88836848.91945  21694853.398                    21694859.891
 125606733.355 7  97875481.86243  23902144.672                    23902151.563
 127905141.269 6  99666428.472 6  24339545.883                    24339554.473
 117419765.412 7  91495951.502 6  22344234.000                    22344241.090
 113829429.439 8  88698315.872 7  21661021.055                    21661027.813
 123122450.616 6  95939700.36544  23429435.742                    23429444.336
 107582853.260 8  83830876.249 8  20472320.242                    20472326.844
 114299194.928 8  89064430.30946  21750389.758                    21750394.930
 113524845.555 8  88460970.532 7  21603058.398                    21603067.141
 11  8 18  2 32  0.0000000  0  9G30G10G15G29G12G26G05G02G25
 114036685.478 8  88859819.57345  21700462.922                    21700469.633
 125713227.842 7  97958464.57144  23922409.867                    23922416.957
 127810221.685 6  99592465.296 6  24321483.266                    24321491.836
 117339762.156 7  91433611.344 6  22329009.711                    22329016.887
 113897999.213 8  88751746.874 7  21674069.688                    21674076.543
 123029117.484 6  95866973.30443  23411675.109                    23411683.227
 107616669.041 8  83857226.215 8  20478755.094                    20478761.766
 114339203.888 8  89095606.13546  21758003.352                    21758007.984
 113534160.984 8  88468229.314 7  21604830.797                    21604840.160
 11  8 18  2 32 30.0000000  0  9G30G10G15G29G12G26G05G02G25
 114066708.609 8  88883214.22745  21706176.367                    21706182.527
 125819841.311 7  98041539.97044  23942697.758                    23942705.844
 127715213.124 6  99518432.801 6  24303403.547                    24303412.418
 117259867.110 8  91371355.492 6  22313806.156                    22313813.574
 113966958.601 7  88805481.455 7  21687192.188                    21687199.063
 122935902.538 6  95794338.36344  23393936.961                    23393945.293
 107650975.394 8  83883958.440 8  20485283.758                    20485289.906
 114379297.711 8  89126848.08846  21765632.672                    21765637.574
 113544043.031 8  88475929.615 7  21606711.586                    21606720.672
 11  8 18  2 33  0.0000000  0  9G30G10G15G29G12G26G05G02G25
 114097273.589 8  88907031.10045  21711992.438                    21711999.434
 125926570.936 7  98124705.90744  23963007.563                    23963015.680
 127620117.993 6  99444332.828 6  24285306.898                    24285316.906
 117180081.957 7  91309185.290 6  22298623.797                    22298630.789
 114036303.585 8  88859516.507 7  21700387.828                    21700395.074
 122842808.710 6  95721797.79843  23376221.359                    23376229.984
 107685769.937 8  83911071.088 8  20491904.547                    20491911.273
 114419476.050 8  89158155.88546  21773278.313                    21773283.367
 113554490.406 8  88484070.428 7  21608699.633                    21608708.578
 11  8 18  2 33 30.0000000  0  9G30G10G15G29G12G26G05G02G25
 114128378.662 8  88931268.82045  21717911.516                    21717918.434
 126033414.159 7  98207960.34944  23983339.711                    23983346.590
 127524938.686 6  99370167.250 6  24267195.422                    24267204.824
 117100408.524 7  91247102.142 6  22283462.375                    22283469.008
 114106031.705 8  88913850.099 7  21713656.594                    21713664.473
 122749839.887 6  95649354.60843  23358530.617                    23358538.098
 107721050.668 8  83938562.566 8  20498618.289                    20498624.852
 114459738.961 8  89189529.58945  21780940.219                    21780945.164
 113565502.275 8  88492651.115 7  21610795.141                    21610804.172
 11  8 18  2 34  0.0000000  0  9G30G10G15G29G12G26G05G02G25
 114160022.359 8  88955926.24445  21723933.203                    21723939.980
 126140368.524 7  98291301.40344  24003692.375                    24003699.168
 127429678.517 7  99295938.653 6  24249067.469                    24249077.352
 117020849.044 7  91185107.769 6  22268323.086                    22268329.754
 114176140.733 8  88968480.495 7  21726998.078                    21727004.996
 122656999.999 7  95577011.87444  23340863.586                    23340870.770
 107756816.521 8  83966432.065 8  20505424.617                    20505431.180
 114500086.572 8  89220969.29045  21788618.391                    21788623.086
 113577078.122 8  88501671.268 7  21612997.773                    21613007.188
 11  8 18  2 34 30.0000000  0  9G30G10G15G29G12G26G05G02G25
 114192202.495 8  88981001.67645  21730056.727                    21730063.703
 126247431.493 7  98374727.11243  24024065.141                    24024071.547
 127334339.573 6  99221648.678 6  24230925.234                    24230934.051
 116941405.511 7  91123203.748 6  22253205.117                    22253211.777
 114246627.840 7  89023405.509 7  21740411.453                    21740418.316
 122564292.535 7  95504772.35744  23323221.836                    23323230.051
 107793065.131 8  83994677.744 8  20512322.273                    20512328.773
 114540518.845 7  89252474.97245  21796311.906                    21796317.281
 113589216.775 8  88511129.968 7  21615307.891                    21615317.105
 11  8 18  2 35  0.0000000  0  9G30G10G15G29G12G26G05G02G25
 114224916.831 7  89006493.37245  21736281.992                    21736289.250
 126354600.112 6  98458235.05442  24044458.961                    24044464.668
 127238924.763 7  99147299.630 6  24212768.125                    24212777.691
 116862079.763 7  91061391.510 6  22238109.813                    22238117.012
 114317490.017 8  89078622.786 7  21753895.945                    21753902.836
 122471720.479 6  95432638.37144  23305605.891                    23305614.078
 107829794.251 8  84023297.835 8  20519311.961                    20519318.316
 114581035.527 7  89284046.41345  21804022.016                    21804027.230
 113601916.973 8  88521026.248 7  21617724.602                    21617733.660
 11  8 18  2 35 30.0000000  0  9G30G10G15G29G12G26G05G02G25
 114258163.701 8  89032400.02845  21742608.570                    21742616.344
 126461871.807 6  98541823.44642  24064871.930                    24064877.996
 127143436.632 7  99072893.436 6  24194597.547                    24194606.160
 116782874.099 7  90999672.863 6  22223037.695                    22223044.602
 114388724.693 7  89134130.314 7  21767451.398                    21767458.047
 122379287.966 7  95360613.08144  23288016.570                    23288024.656
 107867002.165 8  84052291.016 8  20526391.945                    20526398.195
 114621636.578 7  89315683.59945  21811748.188                    21811753.105
 113615177.973 8  88531359.507 7  21620247.773                    21620257.141
 11  8 18  2 36  0.0000000  0  9G30G10G15G29G12G26G05G02G25
 114291941.465 8  89058720.36445  21749036.320                    21749043.973
 126569244.261 6  98625490.34542  24085303.625                    24085310.445
 127047878.225 7  98998432.468 6  24176413.539                    24176421.406
 116703790.748 7  90938049.496 6  22207988.391                    22207995.387
 114460329.148 8  89189925.974 7  21781077.570                    21781084.211
 122286998.510 7  95288699.26244  23270454.227                    23270462.422
 107904687.364 8  84081656.107 8  20533563.266                    20533569.926
 114662322.328 8  89347386.77646  21819490.461                    21819495.465
 113628999.026 8  88542129.169 7  21622877.656                    21622887.543
 11  8 18  2 36 30.0000000  0  9G30G10G15G29G12G26G05G02G25
 114326247.724 8  89085452.52645  21755564.852                    21755572.445
 126676714.991 6  98709233.79542  24105754.984                    24105761.406
 126952252.022 7  98923918.692 6  24158216.469                    24158224.348
 116624831.459 7  90876522.799 6  22192962.352                    22192969.926
 114532300.795 7  89246007.768 7  21794773.313                    21794779.629
 122194855.824 7  95216899.79844  23252920.211                    23252928.746
 107942847.586 7  84111391.347 8  20540825.109                    20540831.820
 114703092.457 7  89379155.71446  21827248.719                    21827253.609
 113643378.856 8  88553334.232 7  21625614.297                    21625623.629
 11  8 18  2 37  0.0000000  0  9G30G10G15G29G12G26G05G02G25
 114361080.359 8  89112594.83845  21762193.031                    21762200.824
 126784281.491 6  98793051.80043  24126224.563                    24126231.371
 126856560.326 7  98849353.880 6  24140006.758                    24140014.047
 116545998.055 7  90815094.190 6  22177961.234                    22177968.109
 114604636.595 7  89302373.312 7  21808538.469                    21808544.738
 122102863.333 7  95145217.39844  23235414.492                    23235422.777
 107981480.576 7  84141494.973 8  20548176.961                    20548183.211
 114743946.586 7  89410990.09246  21835023.211                    21835028.008
 113658316.195 8  88564973.730 7  21628456.938                    21628466.273
 11  8 18  2 37 30.0000000  0  9G30G10G15G29G12G26G05G02G25
 114396437.485 8  89140145.84745  21768921.141                    21768928.539
 126891941.120 6  98876942.40843  24146710.633                    24146718.816
 126760806.223 7  98774740.426 6  24121785.180                    24121792.496
 116467292.678 7  90753765.357 6  22162984.328                    22162991.398
 114677333.468 7  89359020.204 7  21822372.031                    21822378.434
 122011024.475 7  95073654.69344  23217938.305                    23217945.867
 108020584.482 8  84171965.553 8  20555617.875                    20555623.941
 114784885.333 8  89442890.41445  21842813.813                    21842818.055
 113673810.058 8  88577046.873 7  21631405.195                    21631414.406
 11  8 18  2 38  0.0000000  0  9G30G10G15G29G12G26G05G02G25
 114432317.363 7  89168104.19845  21775748.813                    21775756.188
 126999691.582 6  98960903.78843  24167215.625                    24167223.000
 126664992.405 7  98700080.447 6  24103551.742                    24103560.637
 116388717.820 7  90692538.224 6  22148031.758                    22148038.898
 114750389.175 8  89415946.713 7  21836274.406                    21836280.910
 121919343.434 7  95002214.95644  23200492.094                    23200499.434
 108060157.797 8  84202801.907 8  20563148.766                    20563154.789
 114825908.808 8  89474856.76345  21850620.258                    21850624.738
 113689859.752 8  88589553.143 7  21634459.461                    21634468.652
 11  8 18  2 38 30.0000000  0  9G30G10G15G29G12G26G05G02G25
 114468717.270 7  89196467.75345  21782675.844                    21782683.188
 127107530.097 6  99044933.81243  24187737.227                    24187744.094
 126569121.346 7  98625375.864 6  24085308.828                    24085317.086
 116310275.103 7  90631414.080 6  22133104.461                    22133111.688
 114823800.316 7  89473150.184 7  21850243.773                    21850250.520
 121827823.232 7  94930900.58744  23183076.438                    23183084.008
 108100197.694 7  84234001.831 8  20570767.688                    20570774.125
 114867016.488 7  89506888.72345  21858442.875                    21858446.715
 113706463.451 8  88602491.098 7  21637619.063                    21637627.875
 11  8 18  2 39  0.0000000  0  9G30G10G15G29G12G26G05G02G25
 114505635.528 7  89225235.21845  21789701.125                    21789708.383
 127215454.152 7  99129030.49343  24208273.797                    24208281.063
 126473196.259 7  98550629.208 6  24067053.914                    24067063.125
 116231967.081 7  90570394.877 6  22118203.422                    22118210.070
 114897564.471 7  89530628.728 7  21864280.891                    21864287.637
 121736467.854 7  94859714.63344  23165691.930                    23165699.918
 108140702.771 8  84265564.231 8  20578475.422                    20578482.047
 114908208.501 7  89538986.41245  21866281.070                    21866285.789
 113723620.458 8  88615860.202 7  21640883.961                    21640893.176
 11  8 18  2 39 30.0000000  0  9G30G10G15G29G12G26G05G02G25
 114543069.783 8  89254404.76245  21796824.680                    21796832.191
 127323461.291 7  99213191.94243  24228826.281                    24228834.504
 126377219.341 7  98475842.140 6  24048790.406                    24048799.883
 116153795.357 7  90509481.890 6  22103327.664                    22103334.629
 114971678.417 7  89588379.836 7  21878384.180                    21878390.434
 121645280.616 7  94788659.70044  23148339.133                    23148346.809
 108181670.427 8  84297487.090 8  20586271.375                    20586277.617
 114949484.928 7  89571149.88145  21874135.625                    21874140.008
 113741329.279 8  88629659.291 7  21644253.531                    21644263.242
 11  8 18  2 40  0.0000000  0  9G30G10G15G29G12G26G05G02G25
 114581017.964 7  89283974.77245  21804045.766                    21804053.250
 127431549.106 6  99297416.23244  24249395.156                    24249403.266
 126281193.656 6  98401017.041 6  24030517.352                    24030526.227
 116075761.953 7  90448676.699 6  22088478.516                    22088485.668
 115046139.679 7  89646401.596 7  21892553.539                    21892560.383
 121554265.340 7  94717738.75544  23131019.180                    23131026.867
 108223098.802 8  84329768.948 8  20594155.102                    20594161.469
 114990845.841 7  89603379.17945  21882006.609                    21882011.109
 113759588.905 8  88643887.574 7  21647728.320                    21647737.566
 11  8 18  2 40 30.0000000  0  9G30G10G15G29G12G26G05G02G25
 114619477.973 7  89313943.61445  21811364.414                    21811371.605
 127539715.093 6  99381701.45543  24269977.953                    24269985.863
 126185121.881 7  98326156.060 6  24012234.953                    24012243.715
 115997869.272 7  90387981.170 6  22073655.906                    22073662.887
 115120945.271 7  89704691.665 7  21906788.875                    21906795.371
 121463425.733 7  94646954.68344  23113733.555                    23113741.504
 108264985.972 8  84362408.307 8  20602125.867                    20602132.520
 115032291.184 7  89635674.25745  21889893.164                    21889898.117
 113778397.903 8  88658543.936 7  21651307.633                    21651316.949
 11  8 18  2 41  0.0000000  0  9G30G10G15G29G12G26G05G02G25
 114658447.231 8  89344309.27045  21818779.836                    21818787.238
 127647956.609 6  99466045.49043  24290575.938                    24290583.633
 126089006.509 6  98251261.081 6  23993945.039                    23993953.395
 115920118.958 7  90327396.566 6  22058860.195                    22058867.539
 115196091.988 8  89763247.529 7  21921088.719                    21921095.109
 121372765.070 7  94576310.04644  23096480.992                    23096488.762
 108307329.246 7  84395403.071 8  20610183.484                    20610190.063
 115073820.771 7  89668034.97945  21897796.352                    21897801.117
 113797754.817 8  88673627.244 7  21654991.359                    21655000.152
 11  8 18  2 41 30.0000000  0  9G30G10G15G29G12G26G05G02G25
 114697924.100 7  89375070.46945  21826292.211                    21826299.383
 127756271.372 6  99550446.60343  24311187.789                    24311194.906
 125992850.729 7  98176334.624 6  23975647.555                    23975655.164
 115842513.644 7  90266924.953 6  22044092.000                    22044099.027
 115271577.646 8  89822067.505 7  21935452.891                    21935459.938
 121282287.560 7  94505808.11744  23079263.648                    23079271.676
 108350127.261 8  84428752.192 8  20618327.656                    20618334.152
 115115434.996 7  89700461.64745  21905714.906                    21905719.637
 113817658.831 8  88689136.860 7  21658778.875                    21658787.824
 11  8 18  2 42  0.0000000  0  9G30G10G15G29G12G26G05G02G25
 114737906.336 8  89406225.46245  21833900.227                    21833907.500
 127864657.301 6  99634903.17243  24331813.539                    24331820.566
 125896657.302 6  98101378.823 6  23957340.984                    23957349.430
 115765055.512 7  90206568.004 6  22029352.563                    22029359.199
 115347399.095 8  89881149.134 7  21949881.500                    21949887.996
 121191996.751 7  94435451.71744  23062081.172                    23062090.336
 108393378.223 8  84462454.253 8  20626558.047                    20626564.629
 115157134.226 8  89732954.55145  21913650.234                    21913655.078
 113838108.628 8  88705071.770 7  21662670.164                    21662679.563
 11  8 18  2 42 30.0000000  0  9G30G10G15G29G12G26G05G02G25
 114778391.251 8  89437772.15145  21841604.133                    21841611.281
 127973111.668 6  99719413.04243  24352451.805                    24352459.047
 125800428.733 6  98026395.590 6  23939029.555                    23939037.574
 115687746.158 7  90146327.023 6  22014641.211                    22014647.703
 115423553.199 8  89940489.980 7  21964373.266                    21964379.781
 121101895.728 7  94365243.17844  23044936.273                    23044944.809
 108437079.156 7  84496506.943 8  20634874.172                    20634880.766
 115198917.598 7  89765513.01945  21921601.109                    21921605.691
 113859102.486 8  88721430.627 7  21666665.125                    21666674.254
 11  8 18  2 43  0.0000000  0  9G30G10G15G29G12G26G05G02G25
 114819376.813 7  89469708.95845  21849403.586                    21849410.633
 128081631.918 6  99803974.23942  24373101.578                    24373108.875
 125704167.928 6  97951387.275 6  23920712.141                    23920719.852
 115610588.112 7  90086203.928 6  21999958.453                    21999964.910
 115500037.310 8  90000087.982 7  21978927.648                    21978934.328
 121011988.636 7  94295185.75244  23027827.266                    23027835.832
 108481228.283 7  84530908.868 8  20643275.398                    20643282.082
 115240785.706 7  89798137.50545  21929568.750                    21929572.996
 113880639.245 8  88738212.521 7  21670763.523                    21670772.820
 11  8 18  2 43 30.0000000  0  9G30G10G15G29G12G26G05G02G25
 114860860.920 7  89502034.23445  21857297.734                    21857305.199
 128190215.491 6  99888584.89842  24393764.531                    24393771.105
 125607877.812 6  97876356.070 6  23902388.867                    23902396.730
 115533583.584 7  90026200.464 6  21985304.938                    21985311.695
 115576848.504 8  90059940.856 7  21993544.398                    21993551.117
 120922279.206 7  94225282.36044  23010756.227                    23010764.328
 108525823.556 7  84565658.450 8  20651761.664                    20651767.820
 115282738.650 8  89830828.11645  21937551.758                    21937556.191
 113902717.631 8  88755416.465 7  21674964.688                    21674973.961
 11  8 18  2 44  0.0000000  0  9G30G10G15G29G12G26G05G02G25
 114902840.970 8  89534745.96745  21865286.625                    21865294.137
 128298860.283 6  99973243.16342  24414438.539                    24414445.379
 125511561.113 7  97801304.171 6  23884060.945                    23884068.555
 115456734.359 7  89966318.001 6  21970680.664                    21970687.898
 115653983.753 8  90120046.244 7  22008222.438                    22008229.359
 120832770.891 7  94155535.68144  22993723.188                    22993731.473
 108570862.683 7  84600753.873 8  20660332.195                    20660338.398
 115324776.250 7  89863584.70545  21945550.875                    21945555.590
 113925336.070 8  88773041.210 7  21679269.023                    21679278.359
 11  8 18  2 44 30.0000000  0  9G30G10G15G29G12G26G05G02G25
 114945314.515 8  89567842.23845  21873369.242                    21873376.789
 128407563.382 6 100057946.96542  24435123.664                    24435130.172
 125415220.431 7  97726233.587 6  23865727.836                    23865735.051
 115380042.629 7  89906558.253 6  21956086.781                    21956093.859
 115731439.895 8  90180401.676 7  22022962.352                    22022969.113
 120743467.146 7  94085948.39244  22976729.492                    22976737.906
 108616343.064 8  84636193.141 8  20668986.727                    20668993.371
 115366898.501 8  89896407.25445  21953566.461                    21953571.211
 113948492.922 8  88791085.527 7  21683675.578                    21683685.063
 11  8 18  2 45  0.0000000  0  9G30G10G15G29G12G26G05G02G25
 114988279.544 8  89601321.48245  21881545.477                    21881552.410
 128516322.654 6 100142694.40042  24455820.406                    24455826.500
 125318859.011 7  97651146.846 6  23847390.609                    23847398.797
 115303510.933 7  89846923.209 6  21941523.680                    21941530.629
 115809214.249 8  90241005.073 7  22037761.984                    22037769.070
 120654372.064 7  94016523.70144  22959775.586                    22959782.504
 108662263.137 8  84671975.030 8  20677725.031                    20677731.578
 115409106.006 8  89929296.21645  21961598.156                    21961603.238
 113972187.098 8  88809548.529 7  21688184.602                    21688193.758
 11  8 18  2 45 30.0000000  0 10G30G10G15G29G12G26G05G02G25G21
 115031733.453 8  89635181.66945  21889814.063                    21889821.508
 128625136.052 6 100227484.07043  24476526.938                    24476533.719
 125222479.393 6  97576045.914 6  23829050.063                    23829057.777
 115227141.145 7  89787414.315 6  21926991.234                    21926997.828
 115887304.199 8  90301854.366 7  22052622.305                    22052628.867
 120565489.132 7  93947264.32844  22942861.594                    22942869.105
 108708620.594 8  84708097.738 8  20686546.766                    20686553.063
 115451398.664 8  89962251.54945  21969646.695                    21969651.391
 113996416.864 8  88828428.870 7  21692795.430                    21692804.449
 132328100.83116 103112843.62252  25181203.688                    25181210.820
 11  8 18  2 46  0.0000000  0 10G30G10G15G29G12G26G05G02G25G21
 115075674.496 8  89669421.43046  21898176.320                    21898183.363
 128734001.446 6 100312314.21743  24497243.664                    24497250.875
 125126084.942 6  97500933.417 6  23810706.539                    23810714.848
 115150935.841 7  89728033.598 6  21912489.242                    21912496.664
 115965706.877 8  90362947.358 7  22067541.641                    22067548.180
 120476822.462 7  93878173.45244  22925988.555                    22925996.527
 108755413.831 8  84744560.009 8  20695451.430                    20695457.758
 115493776.929 7  89995273.58545  21977710.859                    21977715.484
 114021181.339 8  88847725.871 7  21697507.586                    21697517.102
 132271646.307 6 103068853.17542  25170460.539                    25170467.707
 11  8 18  2 46 30.0000000  0 10G30G10G15G29G12G26G05G02G25G21
 115120100.144 7  89704038.81545  21906629.813                    21906637.113
 128842916.068 6 100397182.73543  24517969.984                    24517977.828
 125029678.360 6  97425811.454 6  23792361.164                    23792369.262
 115074897.199 7  89668782.744 6  21898019.898                    21898026.465
 116044419.318 8  90424281.712 7  22082520.219                    22082526.508
 120388375.516 7  93809253.83144  22909157.469                    22909165.664
 108802640.386 8  84781359.942 8  20704437.938                    20704444.512
 115536240.714 8  90028362.23845  21985791.383                    21985796.074
 114046478.783 8  88867438.177 7  21702321.906                    21702331.066
 132215202.917 6 103024871.41442  25159719.336                    25159727.121
 11  8 18  2 47  0.0000000  0 10G30G10G15G29G12G26G05G02G25G21
 115165007.304 7  89739031.40945  21915175.500                    21915182.199
 128951877.501 6 100482087.70343  24538703.930                    24538712.859
 124933262.000 6  97350681.907 6  23774013.477                    23774021.758
 114999026.967 7  89609663.108 6  21883581.602                    21883588.820
 116123437.849 7  90485854.587 7  22097556.898                    22097563.719
 120300151.439 7  93740507.84644  22892369.313                    22892377.094
 108850297.194 7  84818495.119 8  20713507.039                    20713513.246
 115578789.790 8  90061517.34345  21993888.664                    21993893.113
 114072307.139 8  88887564.174 7  21707236.797                    21707245.797
 132158769.288 5                  25148978.555
 11  8 18  2 47 30.0000000  0 10G30G10G15G29G12G26G05G02G25G21
 115210393.891 7  89774397.57545  21923812.367                    21923819.484
 129060883.509 6 100567027.42543  24559446.516                    24559456.188
 124836838.993 7  97275547.162 6  23755665.438                    23755672.508
 114923327.381 7  89550676.441 6  21869176.539                    21869183.492
 116202760.239 7  90547664.226 7  22112651.383                    22112658.414
 120212154.186 7  93671938.60644  22875623.992                    22875631.430
 108898382.448 8  84855964.170 8  20722657.305                    20722663.324
 115621424.041 7  90094738.81245  22002001.773                    22002005.816
 114098665.017 8  88908102.783 7  21712252.305                    21712261.613
 132102345.523 5                  25138242.258
 11  8 18  2 48  0.0000000  0 10G30G10G15G29G12G26G05G02G25G21
 115256257.215 8  89810135.24045  21932539.453                    21932546.570
 129169931.671 6 100651999.98842  24580197.570                    24580206.570
 124740411.795 7  97200409.197 6  23737315.664                    23737322.844
 114847800.348 7  89491824.219 6  21854804.242                    21854811.215
 116282382.785 8  90609707.745 7  22127803.172                    22127809.918
 120124387.355 7  93603548.91044  22858922.336                    22858930.250
 108946893.817 8  84893765.254 8  20731888.172                    20731894.734
 115664143.990 8  90128027.08845  22010130.477                    22010135.191
 114125550.679 8  88929052.649 7  21717368.367                    21717377.945
 132045930.655 5                  25127505.922
 11  8 18  2 48 30.0000000  0  9G30G15G29G12G26G05G02G25G21
 115302597.081 8  89846244.23545  21941357.563                    21941364.574
 124643985.709 7  97125272.089 6  23718966.109                    23718973.309
 114772450.680 7  89433110.210 6  21840465.906                    21840473.125
 116362305.063 7  90671984.818 7  22143011.609                    22143018.617
 120036856.643 7  93535343.24244  22842265.109                    22842274.215
 108995831.424 8  84931898.467 8  20741201.008                    20741207.441
 115706951.713 8  90161383.75145  22018276.789                    22018281.395
 114152964.710 8  88950414.235 7  21722585.359                    21722594.625
 131989526.532 5                  25116772.430
 11  8 18  2 49  0.0000000  0  9G30G15G29G12G26G05G02G25G21
 115349408.753 7  89882720.85645  21950265.250                    21950272.832
 124547561.482 7  97050136.392 6  23700616.758                    23700624.195
 114697278.140 7  89374534.229 6  21826161.078                    21826167.109
 116442521.707 7  90734491.277 7  22158276.484                    22158283.059
 119949563.757 7  93467322.85344  22825654.484                    22825662.008
 109045190.729 8  84970360.278 8  20750593.961                    20750600.516
 115749845.174 8  90194807.22045  22026439.281                    22026443.672
 114180903.321 8  88972184.583 7  21727901.961                    21727911.102
 131933130.108 5                  25106041.797
 11  8 18  2 49 30.0000000  0  9G30G15G29G12G26G05G02G25G21
 115396689.181 7  89919562.75445  21959262.680                    21959270.047
 124451141.210 7  96975003.794 6  23682268.961                    23682276.246
 114622284.333 7  89316097.504 6  21811890.133                    21811896.918
 116523029.210 7  90797224.374 7  22173596.555                    22173603.156
 119862511.691 7  93399490.11944  22809089.031                    22809096.195
 109094968.577 8  85009148.226 8  20760065.984                    20760072.680
 115792823.979 8  90228297.18745  22034618.203                    22034622.125
 114209364.170 8  88994361.869 7  21733317.633                    21733326.867
 131876740.403 6 102761137.65752  25095312.578                    25095319.977
 11  8 18  2 50  0.0000000  0  9G30G15G29G12G26G05G02G25G21
 115444436.165 7  89956768.19845  21968348.883                    21968355.836
 124354728.301 7  96899876.916 6  23663922.016                    23663930.055
 114547471.901 7  89257802.122 6  21797654.102                    21797660.609
 116603825.037 7  90860182.134 7  22188971.508                    22188978.344
 119775704.399 7  93331848.12744  22792570.281                    22792577.059
 109145163.511 8  85048261.176 8  20769618.086                    20769624.215
 115835888.421 8  90261853.90445  22042812.953                    22042816.723
 114238345.966 8  89016945.086 7  21738832.711                    21738842.055
 131820357.105 6 102717202.72842  25084583.563                    25084590.148
 11  8 18  2 50 30.0000000  0  9G30G15G29G12G26G05G02G25G21
 115492647.216 7  89994335.25445  21977522.945                    21977529.766
 124258325.627 7  96824758.000 6  23645576.469                    23645585.563
 114472843.295 7  89199649.976 6  21783452.594                    21783459.422
 116684906.073 7  90923362.134 7  22204400.961                    22204407.195
 119689145.741 7  93264399.86344  22776098.938                    22776105.711
 109195773.133 8  85087697.264 8  20779248.484                    20779254.965
 115879038.710 8  90295477.51345  22051023.750                    22051028.098
 114267847.008 8  89039932.907 7  21744446.633                    21744455.887
 131763979.647 6 102673272.42942  25073854.719                    25073861.770
 11  8 18  2 51  0.0000000  0  9G30G15G29G12G26G05G02G25G21
 115541319.820 7  90032261.96245  21986784.727                    21986792.273
 124161936.109 7  96749649.305 6  23627234.789                    23627242.582
 114398400.410 7  89141642.557 6  21769286.734                    21769293.219
 116766269.421 7  90986762.122 7  22219884.023                    22219890.148
 119602839.202 7  93197148.06444  22759674.906                    22759682.000
 109246794.837 8  85127454.441 8  20788957.922                    20788964.285
 115922275.362 8  90329168.40745  22059251.648                    22059256.066
 114297865.599 8  89063324.010 7  21750159.094                    21750168.207
 131707607.525 6 102629346.18642  25063127.016                    25063134.859
 11  8 18  2 51 30.0000000  0  9G30G15G29G12G26G05G02G25G21
 115590451.489 7  90070546.37545  21996134.719                    21996141.754
 124065562.774 7  96674553.250 6  23608895.352                    23608903.047
 114324145.848 7  89083781.862 6  21755156.492                    21755163.137
 116847912.380 7  91050379.983 7  22235419.305                    22235426.258
 119516788.770 7  93130095.82944  22743299.766                    22743306.727
 109298226.677 8  85167531.210 8  20798744.836                    20798751.520
 115965598.563 8  90362926.74245  22067495.422                    22067499.871
 114328400.139 8  89087117.151 7  21755969.586                    21755978.793
 131651240.392 6 102585423.90743  25052400.578                    25052408.637
 11  8 18  2 52  0.0000000  0  9G30G15G29G12G26G05G02G25G21
 115640039.981 7  90109186.75245  22005570.891                    22005578.449
 123969208.945 7  96599472.369 6  23590559.945                    23590568.012
 114250082.135 7  89026069.903 6  21741062.336                    21741068.969
 116929832.242 7  91114213.632 7  22251008.148                    22251015.230
 119430998.486 7  93063246.28344  22726974.758                    22726981.621
 109350066.758 8  85207926.081 8  20808610.016                    20808616.383
 116009008.559 8  90396752.70645  22075756.531                    22075761.102
 114359449.176 8  89111311.197 7  21761877.938                    21761887.273
 131594877.863 6 102541505.07342  25041674.609                    25041682.988
 11  8 18  2 52 30.0000000  0  9G30G15G29G12G26G05G02G25G21
 115690082.164 7  90148180.66345  22015093.789                    22015101.453
 123872877.006 7  96524408.562 6  23572228.602                    23572235.969
 114176211.117 7  88968508.087 6  21727005.281                    21727012.121
 117012025.175 7  91178260.046 7  22266649.148                    22266656.332
 119345471.462 7  92996601.88144  22710699.195                    22710706.734
 109402312.315 8  85248636.914 8  20818551.773                    20818557.949
 116052505.243 8  90430646.21045  22084033.398                    22084038.246
 114391010.388 8  89135904.337 7  21767883.828                    21767893.164
 131538519.076 6 102497589.24942  25030949.320                    25030957.918
 11  8 18  2 53  0.0000000  0  9G30G15G29G12G26G05G02G25G21
 115740576.016 8  90187526.51345  22024702.219                    22024709.898
 123776570.424 7  96449364.518 6  23553902.078                    23553909.316
 114102535.555 7  88911098.579 6  21712985.359                    21712992.066
 117094488.943 7  91242517.506 7  22282341.867                    22282348.906
 119260211.856 7  92930165.85044  22694474.500                    22694482.238
 109454961.355 8  85289662.144 7  20828570.750                    20828576.609
 116096089.149 7  90464607.69545  22092327.000                    22092332.012
 114423082.447 8  89160895.546 7  21773987.102                    21773996.465
 131482163.451 6 102453675.92543  25020226.227                    25020233.625
 11  8 18  2 53 30.0000000  0  9G30G15G29G12G26G05G02G25G21
 115791518.588 7  90227222.00545  22034396.227                    22034403.965
 123680291.773 7  96374342.243 6  23535580.859                    23535588.043
 114029057.293 7  88853842.823 6  21699002.641                    21699009.551
 117177220.208 7  91306983.417 7  22298085.141                    22298091.816
 119175223.011 7  92863940.79844  22678301.758                    22678309.309
 109508011.384 8  85330999.827 7  20838665.406                    20838671.895
 116139760.246 7  90498637.10045  22100637.969                    22100642.438
 114455663.198 8  89186283.144 7  21780186.859                    21780196.180
 131425810.404 6 102409764.59043  25009502.594                    25009508.902
 11  8 18  2 54  0.0000000  0  9G30G15G29G12G26G05G02G25G21
 115842906.838 8  90267264.79045  22044175.570                    22044182.703
 123584043.839 7  96299343.891 6  23517264.953                    23517272.371
 113955778.183 7  88796742.227 6  21685058.109                    21685065.348
 117260215.307 7  91371654.898 7  22313878.586                    22313885.473
 119090508.310 7  92797929.35344  22662181.211                    22662188.129
 109561459.730 8  85372647.893 7  20848836.586                    20848842.563
 116183518.436 8  90532734.37545  22108964.492                    22108969.355
 114488750.488 8  89212065.444 7  21786483.578                    21786492.445
 131369459.372 7 102365854.85643  24998779.445                    24998786.207
 11  8 18  2 54 30.0000000  0  9G30G15G29G12G26G05G02G25G21
 115894738.441 7  90307653.03145  22054038.906                    22054045.523
 123487829.713 7  96224371.913 6  23498956.047                    23498963.988
 113882701.080 7  88739799.077 6  21671151.852                    21671158.715
 117343471.991 7  91436530.201 7  22329721.484                    22329728.406
 119006071.816 7  92732134.73944  22646113.492                    22646121.160
 109615304.010 8  85414604.481 7  20859082.563                    20859089.129
 116227364.233 7  90566899.92145  22117308.219                    22117313.273
 114522342.782 8  89238241.249 7  21792875.695                    21792884.945
 131313109.569 7 102321946.07743  24988055.586                    24988063.305
 11  8 18  2 55  0.0000000  0  9G30G15G29G12G26G05G02G25G21
 115947011.228 8  90348385.05545  22063985.906                    22063993.063
 123391652.848 7  96149428.946 6  23480654.539                    23480662.902
 113809828.532 7  88683015.311 6  21657284.977                    21657291.438
 117426987.506 7  91501607.209 7  22345614.555                    22345621.270
 118921917.487 7  92666559.98244  22630099.438                    22630107.145
 109669542.882 8  85456868.538 8  20869403.992                    20869410.363
 116271298.030 7  90601134.04945  22125668.117                    22125673.086
 114556438.639 8  89264809.436 7  21799363.648                    21799373.113
 131256761.168 6 102278038.37343  24977332.758                    24977340.047
 11  8 18  2 55 30.0000000  0  9G30G15G29G12G26G05G02G25G21
 115999722.270 8  90389458.57345  22074016.555                    22074023.625
 123295516.249 7  96074517.355 6  23462360.820                    23462368.352
 113737162.493 7  88626392.484 6  21643456.680                    21643463.406
 117510758.544 7  91566883.322 7  22361555.141                    22361562.309
 118838048.902 7  92601207.88944  22614139.438                    22614147.559
 109724173.805 8  85499438.097 7  20879800.078                    20879806.250
 116315320.132 7  90635437.00545  22134045.016                    22134050.063
 114591035.907 8  89291768.345 7  21805947.156                    21805956.848
 131200413.246 6 102234131.02143  24966609.023                    24966617.004
 11  8 18  2 56  0.0000000  0  9G30G15G29G12G26G05G02G25G21
 116052868.921 7  90430871.53545  22084130.180                    22084137.211
 123199422.534 7  95999639.203 6  23444073.922                    23444082.277
 113664705.501 7  88569932.548 6  21629668.781                    21629675.293
 117594782.145 7  91632356.235 7  22377544.492                    22377551.586
 118754469.890 7  92536081.40144  22598234.492                    22598242.422
 109779193.995 7  85542310.973 7  20890269.742                    20890276.434
 116359430.708 7  90669808.87745  22142438.898                    22142443.949
 114626132.661 8  89319116.449 7  21812626.047                    21812635.441
 131144065.276 6 102190223.74143  24955886.711                    24955894.203
 11  8 18  2 56 30.0000000  0  9G30G15G29G12G26G05G02G25G21
 116106448.601 8  90472621.91245  22094325.805                    22094333.324
 123103375.012 7  95924797.047 6  23425796.781                    23425804.324
 113592459.977 7  88513637.396 6  21615920.727                    21615927.238
 117679055.424 7  91698023.689 7  22393581.250                    22393588.305
 118671184.092 7  92471183.43144  22582385.320                    22582393.680
 109834601.708 8  85585485.820 7  20900813.359                    20900820.129
 116403629.837 7  90704249.76745  22150849.656                    22150854.965
 114661727.109 8  89346852.381 7  21819399.609                    21819408.684
 131087716.903 6 102146316.05343  24945164.594                    24945171.910
 11  8 18  2 57  0.0000000  0  9G30G15G29G12G26G05G02G25G21
 116160458.012 7  90514707.13745  22104603.125                    22104610.469
 123007376.166 7  95849992.816 6  23407528.945                    23407536.410
 113520427.570 7  88457508.316 6  21602213.391                    21602220.367
 117763574.430 8  91763882.634 7  22409664.531                    22409671.816
 118588194.595 7  92406516.32044  22566593.250                    22566601.641
 109890393.575 8  85628960.008 7  20911430.273                    20911436.707
 116447917.553 7  90738759.65845  22159277.531                    22159282.551
 114697816.648 8  89374974.084 7  21826267.547                    21826276.594
 131031366.980 6 102102407.18443  24934440.875                    24934448.797
 11  8 18  2 57 30.0000000  0  9G30G15G29G12G26G05G02G25G21
 116214894.603 7  90557125.23645  22114962.344                    22114969.664
 122911429.315 7  95775229.134 6  23389270.313                    23389277.961
 113448610.958 7  88401547.372 6  21588546.742                    21588553.418
 117848336.880 7  91829931.277 7  22425794.297                    22425801.320
 118505505.651 7  92342083.41345  22550858.656                    22550866.680
 109946567.915 8  85672732.227 7  20922120.125                    20922126.383
 116492294.423 7  90773339.04245  22167722.344                    22167726.902
 114734399.584 8  89403480.264 7  21833228.844                    21833238.082
 130975015.260 6 102058496.87143  24923717.211                    24923725.090
 11  8 18  2 58  0.0000000  0  9G30G15G29G12G26G05G02G25G21
 116269755.722 7  90599874.13345  22125402.000                    22125409.766
 122815537.043 7  95700507.961 6  23371022.539                    23371029.715
 113377012.282 7  88345756.242 6  21574922.063                    21574929.242
 117933339.545 7  91896167.102 7  22441969.766                    22441977.059
 118423120.641 7  92277887.32144  22535181.211                    22535189.406
 110003122.180 8  85716800.486 7  20932881.703                    20932888.324
 116536760.550 7  90807987.95545  22176184.242                    22176188.340
 114771473.896 8  89432369.309 7  21840283.680                    21840292.914
 130918661.177 6 102014584.71643  24912993.313                    24913001.129
 11  8 18  2 58 30.0000000  0  9G30G15G29G12G26G05G02G25G21
 116325038.613 7  90642951.69145  22135921.648                    22135929.348
 122719702.672 7  95625831.906 6  23352785.688                    23352793.172
 113305633.867 7  88290136.731 6  21561339.367                    21561345.906
 118018579.414 7  91962587.757 7  22458190.555                    22458197.453
 118341043.352 7  92213931.01944  22519562.484                    22519570.453
 110060053.806 7  85761162.798 7  20943715.867                    20943722.047
 116581316.123 8  90842706.56645  22184663.133                    22184667.434
 114809037.645 8  89461639.743 7  21847431.938                    21847440.918
 130862304.168 6 101970670.33843  24902269.148                    24902276.496
 11  8 18  2 59  0.0000000  0  9G30G15G29G12G26G05G02G25G21
 116380740.185 7  90686355.48745  22146521.547                    22146528.891
 122623929.138 7  95551203.262 6  23334560.523                    23334568.023
 113234477.866 7  88234690.518 6  21547798.664                    21547805.758
 118104053.296 7  92029190.753 7  22474455.531                    22474462.660
 118259277.026 7  92150217.06445  22504002.828                    22504010.934
 110117360.227 8  85805817.150 7  20954620.852                    20954626.809
 116625961.225 8  90877494.95245  22193158.797                    22193163.176
 114847088.477 8  89491289.728 7  21854673.273                    21854682.145
 130805943.607 6 101926753.18243  24891543.523                    24891551.363
 11  8 18  2 59 30.0000000  0  9G30G15G29G12G26G05G02G25G21
 116436857.712 7  90730083.41245  22157200.469                    22157207.488
 122528219.153 7  95476624.110 6  23316348.023                    23316355.141
 113163546.714 7  88179419.513 6  21534300.383                    21534307.125
 118189758.061 7  92095973.664 6  22490764.695                    22490771.414
 118177825.594 7  92086748.45545  22488503.039                    22488510.637
 110175039.188 8  85850761.795 7  20965596.828                    20965603.211
 116670696.027 8  90912353.22445  22201671.336                    22201676.082
 114885624.303 8  89521317.615 7  21862006.164                    21862015.449
 130749578.968 6 101882832.79443  24880818.289                    24880825.762
 11  8 18  3  0  0.0000000  0  9G30G15G29G12G26G05G02G25G21
 116493388.849 7  90774133.62845  22167958.156                    22167964.852
 122432576.377 7  95402097.336 6  23298148.063                    23298155.457
 113092843.264 7  88124325.929 6  21520846.445                    21520852.949
 118275690.942 7  92162934.331 6  22507117.539                    22507123.832
 118096692.937 7  92023528.25245  22473063.734                    22473071.035
 110233088.808 8  85895995.267 7  20976643.398                    20976649.617
 116715521.057 8  90947281.80845  22210201.281                    22210206.602
 114924643.514 8  89551722.168 7  21869431.031                    21869440.223
 130693209.907 6 101838909.01843  24870090.563                    24870099.000
 11  8 18  3  0 30.0000000  0  9G30G15G29G12G26G05G02G25G21
 116550330.501 7  90818503.72745  22178793.383                    22178800.867
 122337003.307 7  95327624.876 6  23279961.117                    23279968.695
 113022369.424 7  88069411.263 6  21507435.758                    21507442.613
 118361849.045 7  92230070.511 7  22523512.781                    22523519.340
 118015882.924 7  91960559.43944  22457686.258                    22457693.840
 110291506.495 8  85941515.536 7  20987759.859                    20987765.902
 116760436.783 8  90982281.06245  22218748.531                    22218753.457
 114964143.787 8  89582501.569 7  21876947.898                    21876956.770
 130636835.738 6 101794981.23643  24859362.922                    24859371.309
 11  8 18  3  1  0.0000000  0  9G30G15G29G12G26G05G02G25G21
 116607679.662 7  90863191.36245  22189706.820                    22189713.957
 122241503.109 7  95253209.198 7  23261787.570                    23261795.406
 112952127.540 7  88014677.335 6  21494069.586                    21494076.480
 118448228.777 7  92297379.362 6  22539950.336                    22539957.063
 117935398.451 7  91897844.31745  22442370.727                    22442378.266
 110350288.962 8  85987320.055 7  20998945.594                    20998951.637
 116805443.065 8  91017350.90645  22227312.516                    22227317.855
 115004122.633 8  89613653.899 7  21884555.555                    21884564.547
 130580455.417 6 101751048.65843  24848634.406                    24848642.180
 11  8 18  3  1 30.0000000  0  9G30G15G29G12G26G05G02G25G21
 116665433.523 7  90908194.35644  22200697.039                    22200703.762
 122146078.748 7  95178852.617 6  23243628.555                    23243636.691
 112882119.709 7  87960125.765 6  21480747.375                    21480754.195
 118534827.262 7  92364858.687 7  22556429.055                    22556436.055
 117855243.424 7  91835385.91144  22427117.234                    22427125.523
 110409434.368 8  86033407.387 7  21010200.773                    21010206.859
 116850539.988 8  91052491.34345  22235894.172                    22235899.215
 115044578.086 8  89645177.615 7  21892253.828                    21892263.012
 130524068.969 6 101707111.31043  24837903.828                    24837911.586
 11  8 18  3  2  0.0000000  0  9G30G15G29G12G26G05G02G25G21
 116723589.204 7  90953510.44945  22211763.891                    22211770.797
 122050733.272 7  95104557.519 6  23225484.836                    23225492.770
 112812348.175 7  87905758.358 6  21467470.336                    21467477.305
 118621641.208 7  92432505.908 7  22572949.406                    22572956.539
 117775421.501 7  91773187.03945  22411927.969                    22411935.219
 110468940.580 8  86079775.856 7  21021524.430                    21021530.254
 116895728.201 7  91087702.94645  22244493.078                    22244498.438
 115085507.929 8  89677070.981 7  21900042.813                    21900051.637
 130467675.639 6 101663168.60643  24827172.797                    24827179.473
 11  8 18  3  2 30.0000000  0  9G30G15G29G12G26G05G02G25G21
 116782143.825 7  90999137.40345  22222906.438                    22222913.262
 121955469.968 7  95030326.427 6  23207356.500                    23207363.496
 112742815.612 7  87851577.149 6  21454238.625                    21454245.449
 118708667.810 7  92500318.835 7  22589510.078                    22589517.023
 117695936.314 7  91711250.55245  22396802.453                    22396809.039
 110528804.775 8  86126423.283 7  21032916.086                    21032922.613
 116941007.915 8  91122985.84045  22253109.867                    22253114.504
 115126909.972 8  89709332.302 7  21907920.914                    21907930.016
 130411274.937 6 101619220.18443  24816439.586                    24816446.832
 11  8 18  3  3  0.0000000  0  9G30G15G29G12G26G05G02G25G21
 116841094.789 7  91045073.19945  22234124.125                    22234131.258
 121860291.638 7  94956161.567 6  23189245.102                    23189252.023
 112673524.129 7  87797583.801 6  21441053.016                    21441059.727
 118795904.125 7  92568295.186 7  22606111.070                    22606117.656
 117616791.647 7  91649579.41444  22381741.781                    22381748.625
 110589024.952 8  86173348.101 7  21044375.742                    21044382.016
 116986379.643 8  91158340.40345  22261743.891                    22261748.488
 115168782.177 8  89741959.987 7  21915889.219                    21915898.781
 130354866.568 6 101575265.76342  24805705.063                    24805712.551
 11  8 18  3  3 30.0000000  0  9G30G15G29G12G26G05G02G25G21
 116900439.086 7  91091315.49345  22245417.352                    22245424.277
 121765201.341 7  94882065.316 6  23171150.516                    23171156.977
 112604476.228 7  87743780.247 6  21427913.844                    21427920.242
 118883346.792 7  92636432.315 7  22622750.594                    22622757.277
 117537991.114 7  91588176.44145  22366746.188                    22366753.625
 110649598.645 8  86220548.372 7  21055902.563                    21055908.918
 117031843.512 8  91193766.78045  22270395.586                    22270399.379
 115211122.318 8  89774952.296 7  21923945.875                    21923955.516
 130298449.859 6 101531304.82743  24794969.430                    24794977.621
 11  8 18  3  4  0.0000000  0  9G30G15G29G12G26G05G02G25G21
 116960173.641 7  91137861.89145  22256784.016                    22256791.699
 121670202.193 7  94808040.065 6  23153072.359                    23153079.309
 112535674.201 7  87690168.298 6  21414820.922                    21414827.469
 118970992.998 7  92704728.030 7  22639429.398                    22639436.035
 117459538.095 7  91527044.24345  22351817.648                    22351824.945
 110710522.906 8  86268021.822 7  21067496.008                    21067501.750
 117077399.406 8  91229264.86045  22279064.836                    22279068.734
 115253927.990 8  89808307.363 7  21932091.688                    21932101.230
 130242024.030 6 101487336.76443  24784232.359                    24784239.527
 11  8 18  3  4 30.0000000  0  9G30G15G29G12G26G05G02G25G21
 117020295.396 7  91184709.99945  22268225.016                    22268232.754
 121575296.984 7  94734088.013 6  23135012.422                    23135019.984
 112467120.285 7  87636749.684 6  21401775.195                    21401782.238
 119058839.344 7  92773179.711 7  22656145.883                    22656152.727
 117381436.031 7  91466185.54345  22336955.367                    22336962.277
 110771795.280 8  86315766.525 7  21079155.734                    21079161.922
 117123047.767 8  91264834.99845  22287751.266                    22287755.234
 115297196.701 8  89842023.239 7  21940325.219                    21940335.180
 130185588.488 6 101443361.11443  24773493.039                    24773499.418
 11  8 18  3  5  0.0000000  0  9G30G15G29G12G26G05G02G25G21
 117080801.405 7  91231857.53345  22279739.102                    22279746.992
 121480488.895 7  94660211.627 6  23116971.102                    23116978.977
 112398816.647 7  87583526.091 6  21388777.586                    21388784.012
 119146882.709 7  92841784.893 7  22672900.023                    22672906.699
 117303688.611 7  91405603.16844  22322160.063                    22322167.180
 110833413.382 8  86363780.629 7  21090881.531                    21090887.363
 117168788.802 7  91300477.34045  22296455.609                    22296460.020
 115340926.202 7  89876098.175 7  21948646.586                    21948656.410
 130129142.802 6 101399377.52343  24762751.398                    24762757.863
 11  8 18  3  5 30.0000000  0  9G30G15G29G12G26G05G02G25G21
 117141689.178 7  91279302.54345  22291325.656                    22291333.855
 121385781.165 7  94586413.423 6  23098948.266                    23098956.707
 112330766.256 7  87530499.829 6  21375828.156                    21375834.875
 119235120.258 7  92910541.393 7  22689690.422                    22689698.141
 117226299.829 7  91345300.26145  22307433.320                    22307440.469
 110895375.267 8  86412062.620 7  21102672.484                    21102678.574
 117214623.222 7  91336192.44145  22305177.344                    22305182.492
 115385114.670 7  89910530.754 7  21957055.711                    21957065.621
 130072686.711 6 101355385.84443  24752008.672                    24752014.781
 11  8 18  3  6  0.0000000  0  9G30G15G29G12G26G05G02G25G21
 117202955.438 7  91327042.47545  22302984.281                    22302992.223
 121291176.673 7  94512695.677 6  23080945.961                    23080953.887
 112262970.980 7  87477672.350 6  21362927.398                    21362933.891
 119323548.850 7  92979446.766 7  22706518.234                    22706524.980
 117149272.924 7  91285279.32145  22292775.875                    22292782.898
 110957678.114 8  86460610.291 7  21114527.992                    21114533.930
 117260551.092 7  91371980.38045  22313917.781                    22313921.871
 115429759.384 8  89945318.835 7  21965551.203                    21965561.059
 130016219.408 7 101311385.44243  24741263.758                    24741269.191
 11  8 18  3  6 30.0000000  0  9G30G15G29G12G26G05G02G25G21
 117264597.336 7  91375075.12645  22314714.156                    22314722.098
 121196678.631 7  94439060.878 6  23062963.180                    23062970.828
 112195433.632 7  87425045.844 6  21350075.070                    21350081.664
 119412165.501 7  93048498.699 7  22723381.195                    22723388.992
 117072611.710 7  91225543.34645  22278187.250                    22278194.461
 111020319.766 8  86509421.968 7  21126448.289                    21126454.445
 117306572.890 7  91407841.50945  22322674.813                    22322679.555
 115474858.205 8  89980460.765 7  21974133.414                    21974142.844
 129959740.526 6 101267375.99443  24730515.172                    24730521.711
 11  8 18  3  7  0.0000000  0  9G30G15G29G12G26G05G02G25G21
 117326612.077 7  91423398.30045  22326515.125                    22326523.141
 121102290.201 7  94365511.504 6  23045001.703                    23045008.512
 112128156.551 7  87372622.140 7  21337272.555                    21337279.691
 119500967.136 7  93117694.764 7  22740279.508                    22740287.129
 116996319.917 7  91166095.24545  22263669.789                    22263676.488
 111083297.611 8  86558495.620 7  21138432.680                    21138438.879
 117352688.870 7  91443776.03945  22331450.016                    22331455.176
 115520408.907 8  90015954.808 7  21982801.578                    21982811.070
 129903249.606 6 101223357.18243  24719765.188                    24719772.055
 11  8 18  3  7 30.0000000  0  9G30G15G29G12G26G05G02G25G21
 117388996.625 7  91472009.62945  22338386.914                    22338394.262
 121008014.265 7  94292049.781 6  23027062.492                    23027068.082
 112061141.689 7  87320402.768 7  21324520.367                    21324527.418
 119589950.802 7  93187032.662 6  22757212.766                    22757220.445
 116920401.019 7  91106937.67145  22249222.656                    22249229.789
 111146609.336 8  86607829.438 7  21150480.648                    21150486.309
 117398899.463 7  91479784.29345  22340244.102                    22340249.203
 115566408.948 8  90051798.977 7  21991554.844                    21991563.977
 129846746.107 6 101179328.52743  24709012.102                    24709019.727
 11  8 18  3  8  0.0000000  0  9G30G15G29G12G26G05G02G25G21
 117451747.950 7  91520906.75745  22350327.758                    22350335.695
 120913854.182 7  94218678.354 6  23009144.148                    23009149.891
 111994391.660 7  87268389.760 7  21311818.422                    21311824.859
 119679113.403 7  93256509.994 7  22774180.352                    22774187.293
 116844858.529 7  91048073.42245  22234847.328                    22234855.480
 111210252.349 8  86657421.391 7  21162591.555                    21162597.621
 117445205.061 7  91515866.56845  22349055.234                    22349060.711
 115612856.092 8  90087991.552 7  22000393.547                    22000402.828
 129790229.544 6 101135289.75643  24698257.922                    24698265.281
 11  8 18  3  8 30.0000000  0  9G30G15G29G12G26G05G02G25G21
 117514862.990 7  91570087.30245  22362338.422                    22362346.219
 120819812.995 7  94145399.580 6  22991248.148                    22991255.082
 111927908.880 7  87216584.993 7  21299167.250                    21299173.688
 119768451.726 7  93326124.272 6  22791180.875                    22791187.488
 116769695.960 7  90989505.23545  22220544.453                    22220552.410
 111274224.284 8  86707269.659 7  21174764.602                    21174770.797
 117491605.788 7  91552022.97645  22357885.359                    22357890.516
 115659747.840 8  90124530.561 7  22009316.977                    22009326.117
 129733699.484 6 101091240.46043  24687500.391                    24687507.793
 11  8 18  3  9  0.0000000  0 10G30G18G15G29G12G26G05G02G25G21
 117578338.493 7  91619548.70645  22374417.492                    22374425.488
 129717089.36416 101078306.24152  24684346.250                    24684355.070
 120725893.401 7  94072215.539 6  22973375.734                    22973383.156
 111861695.083 7  87164989.833 7  21286566.797                    21286573.852
 119857962.662 7  93395873.023 6  22808213.992                    22808220.465
 116694916.564 7  90931235.60145  22206314.039                    22206321.676
 111338522.314 8  86757372.028 7  21187000.375                    21187006.563
 117538101.819 7  91588253.62845  22366733.063                    22366737.996
 115707081.433 8  90161413.866 7  22018324.328                    22018333.637
 129677154.930 6 101047179.91043  24676740.672                    24676748.063
 11  8 18  3  9 30.0000000  0 10G30G18G15G29G12G26G05G02G25G21
 117642170.974 7  91669288.27445  22386564.641                    22386572.414
 129627359.505 6 101008387.13942  24667271.508                    24667280.246
 120632097.928 7  93999128.203 6  22955527.406                    22955534.668
 111795752.451 7  87113605.969 7  21274018.664                    21274025.371
 119947642.362 7  93465753.310 6  22825279.125                    22825286.113
 116620523.395 7  90873266.93745  22192157.805                    22192165.063
 111403143.472 8  86807726.178 7  21199297.250                    21199303.711
 117584692.890 7  91624558.35945  22375599.883                    22375604.434
 115754854.004 8  90198639.234 7  22027415.031                    22027424.453
 129620595.076 6 101003107.40943  24665977.430                    24665984.137
 11  8 18  3 10  0.0000000  0 10G30G18G15G29G12G26G05G02G25G21
 117706357.990 7  91719304.11645  22398778.617                    22398785.953
 129537792.294 6 100938594.68042  24650227.594                    24650235.520
 120538430.618 7  93926140.726 6  22937702.688                    22937710.734
 111730083.942 7  87062435.723 7  21261522.219                    21261529.121
 120037488.524 7  93535763.291 6  22842376.391                    22842383.484
 116546520.722 7  90815602.54645  22178075.133                    22178083.059
 111468086.083 8  86858330.809 7  21211655.156                    21211661.824
 117631380.061 7  91660937.96245  22384483.555                    22384488.680
 115803063.733 8  90236205.244 7  22036589.258                    22036598.777
 129564020.076 6 100959023.08743  24655212.117                    24655218.242
 11  8 18  3 10 30.0000000  0 10G30G18G15G29G12G26G05G02G25G21
 117770896.632 7  91769593.94845  22411060.055                    22411066.813
 129448389.310 6 100868930.31242  24633213.859                    24633222.656
 120444894.603 7  93853255.552 7  22919903.281                    22919911.695
 111664691.910 7  87011480.908 7  21249078.461                    21249085.691
 120127497.663 7  93605900.268 6  22859504.500                    22859511.594
 116472912.127 7  90758245.23045  22164068.289                    22164075.746
 111533347.514 8  86909183.880 7  21224074.102                    21224080.320
 117678163.484 7  91697392.57745  22393385.984                    22393391.398
 115851708.228 8  90274110.017 7  22045846.180                    22045855.820
 129507429.478 6 100914926.60943  24644443.063                    24644449.793
 11  8 18  3 11  0.0000000  0 10G30G18G15G29G12G26G05G02G25G21
 117835784.183 7  91820155.65945  22423407.352                    22423414.375
 129359152.192 6 100799395.16142  24616232.148                    24616240.742
 120351492.799 7  93780474.966 7  22902130.164                    22902137.473
 111599579.072 7  86960743.633 6  21236687.594                    21236694.422
 120217667.388 7  93676162.401 6  22876663.406                    22876670.086
 116399701.441 7  90701197.97045  22150137.125                    22150143.801
 111598925.687 8  86960283.742 7  21236553.320                    21236559.297
 117725044.001 7  91733922.82645  22402307.195                    22402312.402
 115900785.375 8  90312351.935 7  22055185.375                    22055194.406
 129450822.861 6 100870817.64143  24633671.133                    24633677.930
 11  8 18  3 11 30.0000000  0 10G30G18G15G29G12G26G05G02G25G21
 117901017.339 7  91870986.68045  22435820.859                    22435828.199
 129270081.912 6 100729989.95542  24599282.898                    24599291.484
 120258228.271 7  93707801.362 6  22884382.477                    22884389.254
 111534747.676 7  86910225.689 6  21224350.836                    21224357.129
 120307994.530 7  93746547.166 7  22893852.266                    22893859.574
 116326892.016 7  90644463.39245  22136281.672                    22136288.055
 111664817.946 8  87011628.363 7  21249092.273                    21249098.316
 117772021.819 7  91770528.89545  22411246.828                    22411252.094
 115950292.392 7  90350928.801 7  22064605.758                    22064615.109
 129394199.692 6 100826695.82243  24622895.508                    24622902.754
 11  8 18  3 12  0.0000000  0 10G30G18G15G29G12G26G05G02G25G21
 117966592.850 7  91922084.47244  22448299.875                    22448306.805
 129181179.869 6 100660715.89042  24582365.078                    24582373.047
 120165104.094 7  93635237.141 6  22866660.953                    22866668.230
 111470199.953 7  86859928.782 6  21212067.219                    21212074.246
 120398475.790 7  93817052.028 7  22911070.250                    22911077.734
 116254487.144 7  90588044.04245  22122503.148                    22122511.070
 111731021.345 8  87063215.445 7  21261690.086                    21261696.180
 117819097.191 7  91807210.98545  22420204.883                    22420210.313
 116000226.590 8  90389838.541 7  22074107.594                    22074117.184
 129337559.228 6 100782560.50743  24612117.766                    24612123.715
 11  8 18  3 12 30.0000000  0 10G30G18G15G29G12G26G05G02G25G21
 118032507.945 7  91973446.88744  22460842.891                    22460850.012
 129092447.375 6 100591573.85842  24565479.609                    24565487.449
 120072123.684 7  93562784.933 6  22848967.688                    22848974.125
 111405938.423 7  86809854.881 6  21199839.109                    21199845.645
 120489108.498 7  93887674.899 7  22928316.992                    22928324.063
 116182490.493 7  90531942.79345  22108802.594                    22108810.340
 111797534.050 8  87115043.530 7  21274347.344                    21274353.461
 117866270.499 7  91843969.37645  22429181.711                    22429186.551
 116050585.793 8  90429079.459 7  22083690.664                    22083700.410
 129280901.469 6 100738411.68543  24601335.836                    24601342.168
 11  8 18  3 13  0.0000000  0 10G30G18G15G29G12G26G05G02G25G21
 118098759.553 7  92025071.51244  22473449.891                    22473457.313
 129003885.566 6 100522564.88943  24548627.109                    24548634.910
 119979289.783 7  93490446.887 6  22831301.672                    22831308.148
 111341965.568 7  86760005.908 6  21187665.523                    21187671.641
 120579889.286 7  93958413.168 6  22945591.633                    22945598.719
 116110905.422 7  90476162.24945  22095180.813                    22095188.102
 111864353.691 8  87167110.785 7  21287062.602                    21287068.551
 117913542.309 7  91880804.53045  22438177.133                    22438181.727
 116101367.355 8  90468649.490 7  22093354.000                    22093363.617
 129224225.805 6 100694248.86843  24590550.719                    24590556.992
 11  8 18  3 13 30.0000000  0 10G30G18G15G29G12G26G05G02G25G21
 118165344.610 7  92076955.95745  22486121.289                    22486127.820
 128915496.003 6 100453690.08743  24531806.719                    24531815.484
 119886606.083 7  93418225.881 6  22813664.844                    22813671.297
 111278283.744 7  86710383.730 6  21175547.320                    21175553.727
 120670815.364 7  94029264.634 6  22962894.109                    22962901.590
 116039735.539 7  90420705.23945  22081637.398                    22081644.875
 111931477.712 8  87219415.208 7  21299835.984                    21299842.301
 117960912.977 7  91917716.70645  22447191.656                    22447196.141
 116152568.789 8  90508546.684 7  22103097.227                    22103106.516
 129167531.369 6 100650071.47143  24579761.445                    24579768.164
 11  8 18  3 14  0.0000000  0 10G30G18G15G29G12G26G05G02G25G21
 118232259.887 7  92129097.70244  22498854.883                    22498861.641
 128827279.602 6 100384950.18143  24515019.953                    24515027.996
 119794075.251 7  93346123.966 6  22796056.391                    22796063.203
 111214895.095 7  86660989.996 6  21163484.875                    21163491.410
 120761883.405 7  94100226.717 6  22980223.953                    22980231.207
 115968984.227 7  90365574.36845  22068174.297                    22068181.027
 111998903.373 8  87271954.682 7  21312666.727                    21312673.285
 118008382.689 7  91954706.05645  22456224.844                    22456229.773
 116204187.401 8  90548768.957 7  22112920.555                    22112929.305
 129110817.893 6 100605879.21443  24568970.273                    24568976.180
 11  8 18  3 14 30.0000000  0 10G30G18G15G29G12G26G05G02G25G21
 118299502.036 7  92181494.16144  22511649.961                    22511657.582
 128739237.584 6 100316346.21343  24498265.891                    24498274.063
 119701700.109 7  93274143.363 7  22778478.039                    22778485.543
 111151801.603 7  86611826.246 6  21151478.180                    21151485.250
 120853089.896 7  94171296.684 6  22997579.922                    22997587.234
 115898654.816 7  90310772.25645  22054790.773                    22054798.340
 112066627.943 8  87324727.074 7  21325553.797                    21325560.293
 118055951.370 7  91991772.52445  22465277.539                    22465281.766
 116256220.377 8  90589314.099 7  22122822.094                    22122831.105
 129054084.772 6 100561671.67443  24558173.703                    24558180.254
 11  8 18  3 15  0.0000000  0 10G30G18G15G29G12G26G05G02G25G21
 118367068.300 7  92234143.16044  22524507.648                    22524514.559
 128651371.456 6 100247879.26843  24481545.695                    24481553.477
 119609484.324 7  93202286.951 7  22760930.148                    22760937.895
 111089006.306 7  86562894.862 6  21139529.125                    21139535.512
 120944432.304 7  94242472.557 7  23014962.188                    23014969.332
 115828750.870 7  90256301.67945  22041488.125                    22041495.551
 112134649.563 8  87377730.933 7  21338498.461                    21338504.090
 118103619.880 7  92028916.78645  22474348.617                    22474352.949
 116308665.483 8  90630180.389 7  22132802.109                    22132811.387
 128997331.822 6 100517448.64743  24547374.031                    24547380.793
 11  8 18  3 15 30.0000000  0 10G30G18G15G29G12G26G05G02G25G21
 118434955.333 7  92287042.12244  22537425.898                    22537433.508
 128563682.334 6 100179550.32143  24464858.695                    24464866.777
 119517430.662 7  93130556.869 7  22743412.734                    22743419.840
 111026511.040 7  86514197.266 7  21127636.273                    21127643.070
 121035907.348 7  94313751.800 7  23032369.555                    23032376.301
 115759275.665 7  90202165.18045  22028267.617                    22028274.867
 112202965.171 8  87430963.862 7  21351498.273                    21351504.027
 118151388.522 8  92066139.08145  22483438.375                    22483442.848
 116361519.777 8  90671365.543 7  22142860.063                    22142869.145
 128940558.072 6 100473209.40343  24536570.531                    24536576.996
 11  8 18  3 16  0.0000000  0 10G30G18G15G29G12G26G05G02G25G21
 118503159.796 7  92340188.44144  22550405.258                    22550412.406
 128476171.095 6 100111359.96143  24448206.078                    24448213.387
 119425542.042 7  93058955.385 6  22725926.359                    22725934.047
 110964318.214 7  86465735.335 6  21115801.625                    21115808.195
 121127511.908 7  94385131.960 6  23049801.477                    23049808.559
 115690232.613 7  90148365.43545  22015129.211                    22015136.590
 112271572.337 8  87484423.998 7  21364554.055                    21364559.738
 118199257.580 8  92103439.61545  22492547.508                    22492551.973
 116414780.529 8  90712867.404 7  22152994.781                    22153004.418
 128883763.385 6 100428953.86743  24525762.930                    24525768.727
 11  8 18  3 16 30.0000000  0 10G30G18G15G29G12G26G05G02G25G21
 118571678.886 7  92393579.93545  22563444.164                    22563451.406
 128388839.345 6 100043309.49543  24431587.133                    24431594.656
 119333821.796 7  92987485.108 6  22708473.016                    22708479.883
 110902430.258 7  86417510.975 7  21104025.039                    21104031.355
 121219242.971 7  94456610.678 6  23067257.281                    23067264.266
 115621624.967 7  90094904.96945  22002073.477                    22002080.703
 112340468.819 8  87538109.576 7  21377664.367                    21377670.457
 118247227.479 7  92140818.72545  22501676.125                    22501680.426
 116468445.297 8  90754684.081 7  22163207.313                    22163217.051
 128826947.199 6 100384681.56743  24514950.352                    24514956.664
 11  8 18  3 17  0.0000000  0 10G30G18G15G29G12G26G05G02G25G21
 118640509.456 7  92447214.14945  22576542.383                    22576549.820
 128301688.317 6  99975399.83143  24415003.172                    24415010.445
 119242273.107 7  92916148.534 6  22691051.750                    22691058.672
 110840849.697 7  86369526.140 7  21092306.367                    21092313.086
 121311097.468 7  94528185.600 6  23084736.352                    23084743.281
 115553456.599 7  90041786.78745  21989101.742                    21989108.660
 112409652.005 8  87592018.557 7  21390829.469                    21390835.750
 118295298.572 7  92178276.70945  22510823.391                    22510828.035
 116522511.480 8  90796813.571 7  22173495.641                    22173505.145
 128770109.245 6 100340392.31343  24504135.094                    24504140.914
 11  8 18  3 17 30.0000000  0 10G30G18G15G29G12G26G05G02G25G21
 118709648.864 7  92501088.99045  22589698.414                    22589706.848
 128214719.673 6  99907632.31343  24398452.141                    24398459.945
 119150899.530 7  92844948.395 6  22673663.750                    22673670.207
 110779579.489 7  86321783.139 7  21080647.016                    21080653.504
 121403073.015 7  94599854.846 6  23102239.086                    23102245.773
 115485730.933 7  89989013.56845  21976214.023                    21976220.969
 112479119.786 8  87646149.304 7  21404048.602                    21404054.875
 118343471.437 7  92215813.97145  22519990.492                    22519995.637
 116576976.895 8  90839254.156 7  22183859.953                    22183869.664
 128713249.303 6 100296085.91643  24493314.234                    24493321.027
 11  8 18  3 18  0.0000000  0 10G30G18G15G29G12G26G05G02G25G21
 118779093.620 7  92555201.78145  22602913.469                    22602921.840
 128127934.086 6  99840007.37943  24381937.148                    24381945.621
 119059704.009 7  92773886.991 6  22656309.953                    22656316.633
 110718621.527 7  86274283.433 6  21069046.883                    21069053.137
 121495165.920 7  94671615.534 6  23119763.672                    23119770.406
 115418451.119 7  89936587.76245  21963410.344                    21963418.172
 112548869.674 8  87700499.864 7  21417321.438                    21417327.660
 118391746.653 7  92253430.97345  22529176.484                    22529181.930
 116631838.459 8  90882003.425 7  22194299.555                    22194309.730
 128656366.696 6 100251761.86243  24482489.938                    24482495.977
 11  8 18  3 18 30.0000000  0 10G30G18G15G29G12G26G05G02G25G21
 118848840.536 7  92609550.03945  22616186.367                    22616194.527
 128041332.805 6  99772526.06843  24365456.695                    24365465.281
 118968689.263 7  92702966.456 7  22638990.320                    22638997.316
 110657978.050 7  86227028.789 7  21057507.086                    21057513.547
 121587373.453 7  94743465.554 6  23137310.406                    23137316.684
 115351620.734 7  89884512.15845  21950693.164                    21950700.168
 112618899.270 8  87755068.387 7  21430647.938                    21430654.410
 118440124.277 7  92291127.78245  22538382.758                    22538387.836
 116687093.463 8  90925059.261 7  22204814.336                    22204824.035
 128599461.142 6 100207419.93543  24471661.305                    24471667.777
 11  8 18  3 19  0.0000000  0 10G30G18G15G29G12G26G05G02G25G21
 118918886.124 7  92664131.01945  22629515.344                    22629523.199
 127954916.774 6  99705189.05642  24349012.328                    24349020.449
 118877858.298 7  92632189.128 7  22621706.000                    22621713.203
 110597651.266 7  86180020.917 6  21046026.969                    21046033.551
 121679691.897 7  94815402.002 6  23154877.570                    23154884.285
 115285242.606 7  89832788.96845  21938062.031                    21938069.355
 112689205.568 8  87809852.508 7  21444026.727                    21444033.105
 118488604.876 7  92328904.83444  22547608.477                    22547612.195
 116742738.911 8  90968419.335 7  22215403.320                    22215413.297
 128542531.918 7 100163059.55743  24460828.063                    24460834.184
 11  8 18  3 19 30.0000000  0 10G30G18G15G29G12G26G05G02G25G21
 118989227.807 7  92718942.72445  22642900.789                    22642908.688
 127868687.664 6  99637997.70542  24332603.297                    24332612.098
 118787214.855 7  92561557.923 7  22604456.813                    22604464.105
 110537644.024 7  86133262.029 6  21034607.656                    21034614.012
 121772118.991 7  94887423.099 6  23172465.945                    23172472.957
 115219320.767 7  89781421.32145  21925517.313                    21925524.617
 112759786.505 8  87864850.641 7  21457457.797                    21457463.973
 118537188.882 7  92366762.50044  22556853.695                    22556857.207
 116798772.694 8  91012082.016 7  22226066.289                    22226076.129
 128485578.690 7 100118680.49444  24449990.461                    24449997.516
